<?xml version="1.0" encoding="UTF-8" standalone="no" ?>
<gpx xmlns="http://www.topografix.com/GPX/1/1" xmlns:xsi="http://www.w3.org/2001/XMLSchema-instance" xsi:schemaLocation="http://www.topografix.com/GPX/1/1 http://www.topografix.com/GPX/1/1/gpx.xsd" version="1.1" creator="VisuGPX - https://www.visugpx.com">
  <metadata>
    <name>Combo Laragnais version kids</name>
    <desc><![CDATA[Une boucle adaptée aux enfants moyennant quelques courtes portions de poussages]]></desc>
  </metadata>
  <trk>
    <name><![CDATA[Combo Laragnais version kids_1]]></name>
    <extensions>
      <line xmlns="http://www.topografix.com/GPX/gpx_style/0/2">
        <color>0000FF</color>
        <width>4</width>
      </line>
    </extensions>
    <trkseg>
      <trkpt lat="44.36724" lon="5.77126">
        <ele>646.4</ele>
        <time>2024-04-25T08:33:21Z</time>
      </trkpt>
      <trkpt lat="44.36727" lon="5.77112">
        <ele>645.9</ele>
        <time>2024-04-25T08:33:29Z</time>
      </trkpt>
      <trkpt lat="44.36726" lon="5.77097">
        <ele>645.5</ele>
        <time>2024-04-25T08:33:33Z</time>
      </trkpt>
      <trkpt lat="44.36719" lon="5.77088">
        <ele>645.1</ele>
        <time>2024-04-25T08:33:38Z</time>
      </trkpt>
      <trkpt lat="44.36711" lon="5.77079">
        <ele>644.5</ele>
        <time>2024-04-25T08:33:42Z</time>
      </trkpt>
      <trkpt lat="44.36703" lon="5.77071">
        <ele>643.9</ele>
        <time>2024-04-25T08:33:45Z</time>
      </trkpt>
      <trkpt lat="44.36695" lon="5.77062">
        <ele>643.4</ele>
        <time>2024-04-25T08:33:48Z</time>
      </trkpt>
      <trkpt lat="44.36686" lon="5.77053">
        <ele>643</ele>
        <time>2024-04-25T08:33:51Z</time>
      </trkpt>
      <trkpt lat="44.36678" lon="5.77046">
        <ele>642.6</ele>
        <time>2024-04-25T08:33:54Z</time>
      </trkpt>
      <trkpt lat="44.36669" lon="5.7704">
        <ele>642.4</ele>
        <time>2024-04-25T08:33:58Z</time>
      </trkpt>
      <trkpt lat="44.36659" lon="5.77035">
        <ele>642.1</ele>
        <time>2024-04-25T08:34:01Z</time>
      </trkpt>
      <trkpt lat="44.36649" lon="5.7703">
        <ele>642</ele>
        <time>2024-04-25T08:34:04Z</time>
      </trkpt>
      <trkpt lat="44.3664" lon="5.77025">
        <ele>641.8</ele>
        <time>2024-04-25T08:34:07Z</time>
      </trkpt>
      <trkpt lat="44.36631" lon="5.77022">
        <ele>641.6</ele>
        <time>2024-04-25T08:34:10Z</time>
      </trkpt>
      <trkpt lat="44.36621" lon="5.77018">
        <ele>641.5</ele>
        <time>2024-04-25T08:34:14Z</time>
      </trkpt>
      <trkpt lat="44.36611" lon="5.77015">
        <ele>641.3</ele>
        <time>2024-04-25T08:34:18Z</time>
      </trkpt>
      <trkpt lat="44.366" lon="5.77011">
        <ele>641.2</ele>
        <time>2024-04-25T08:34:22Z</time>
      </trkpt>
      <trkpt lat="44.36589" lon="5.77005">
        <ele>641.1</ele>
        <time>2024-04-25T08:34:26Z</time>
      </trkpt>
      <trkpt lat="44.36578" lon="5.77001">
        <ele>641</ele>
        <time>2024-04-25T08:34:30Z</time>
      </trkpt>
      <trkpt lat="44.36569" lon="5.76998">
        <ele>641</ele>
        <time>2024-04-25T08:34:33Z</time>
      </trkpt>
      <trkpt lat="44.36558" lon="5.76994">
        <ele>641.1</ele>
        <time>2024-04-25T08:34:37Z</time>
      </trkpt>
      <trkpt lat="44.36549" lon="5.76989">
        <ele>641.1</ele>
        <time>2024-04-25T08:34:40Z</time>
      </trkpt>
      <trkpt lat="44.3654" lon="5.76983">
        <ele>641.1</ele>
        <time>2024-04-25T08:34:43Z</time>
      </trkpt>
      <trkpt lat="44.36531" lon="5.76976">
        <ele>641.2</ele>
        <time>2024-04-25T08:34:46Z</time>
      </trkpt>
      <trkpt lat="44.36523" lon="5.7697">
        <ele>641.4</ele>
        <time>2024-04-25T08:34:49Z</time>
      </trkpt>
      <trkpt lat="44.36512" lon="5.76963">
        <ele>641.7</ele>
        <time>2024-04-25T08:34:53Z</time>
      </trkpt>
      <trkpt lat="44.36503" lon="5.76959">
        <ele>642.1</ele>
        <time>2024-04-25T08:34:57Z</time>
      </trkpt>
      <trkpt lat="44.36495" lon="5.76951">
        <ele>642.5</ele>
        <time>2024-04-25T08:35:01Z</time>
      </trkpt>
      <trkpt lat="44.36485" lon="5.76946">
        <ele>642.9</ele>
        <time>2024-04-25T08:35:10Z</time>
      </trkpt>
      <trkpt lat="44.36474" lon="5.7695">
        <ele>643.3</ele>
        <time>2024-04-25T08:35:18Z</time>
      </trkpt>
      <trkpt lat="44.36467" lon="5.76962">
        <ele>643.4</ele>
        <time>2024-04-25T08:35:25Z</time>
      </trkpt>
      <trkpt lat="44.36461" lon="5.76973">
        <ele>643.3</ele>
        <time>2024-04-25T08:35:29Z</time>
      </trkpt>
      <trkpt lat="44.36454" lon="5.76985">
        <ele>643</ele>
        <time>2024-04-25T08:35:33Z</time>
      </trkpt>
      <trkpt lat="44.36449" lon="5.76998">
        <ele>642.5</ele>
        <time>2024-04-25T08:35:37Z</time>
      </trkpt>
      <trkpt lat="44.36441" lon="5.77007">
        <ele>641.8</ele>
        <time>2024-04-25T08:35:40Z</time>
      </trkpt>
      <trkpt lat="44.36435" lon="5.77022">
        <ele>640.9</ele>
        <time>2024-04-25T08:35:43Z</time>
      </trkpt>
      <trkpt lat="44.36433" lon="5.77038">
        <ele>640.1</ele>
        <time>2024-04-25T08:35:46Z</time>
      </trkpt>
      <trkpt lat="44.36434" lon="5.77052">
        <ele>639.5</ele>
        <time>2024-04-25T08:35:49Z</time>
      </trkpt>
      <trkpt lat="44.36433" lon="5.77067">
        <ele>638.6</ele>
        <time>2024-04-25T08:35:53Z</time>
      </trkpt>
      <trkpt lat="44.36427" lon="5.77079">
        <ele>637.8</ele>
        <time>2024-04-25T08:35:57Z</time>
      </trkpt>
      <trkpt lat="44.36415" lon="5.77081">
        <ele>636.9</ele>
        <time>2024-04-25T08:36:00Z</time>
      </trkpt>
      <trkpt lat="44.36404" lon="5.77074">
        <ele>636.1</ele>
        <time>2024-04-25T08:36:03Z</time>
      </trkpt>
      <trkpt lat="44.36397" lon="5.77062">
        <ele>635.5</ele>
        <time>2024-04-25T08:36:06Z</time>
      </trkpt>
      <trkpt lat="44.36392" lon="5.77049">
        <ele>634.9</ele>
        <time>2024-04-25T08:36:09Z</time>
      </trkpt>
      <trkpt lat="44.36386" lon="5.77036">
        <ele>634.1</ele>
        <time>2024-04-25T08:36:13Z</time>
      </trkpt>
      <trkpt lat="44.36381" lon="5.77024">
        <ele>633.4</ele>
        <time>2024-04-25T08:36:16Z</time>
      </trkpt>
      <trkpt lat="44.36379" lon="5.77011">
        <ele>632.8</ele>
        <time>2024-04-25T08:36:19Z</time>
      </trkpt>
      <trkpt lat="44.36371" lon="5.77001">
        <ele>632.2</ele>
        <time>2024-04-25T08:36:22Z</time>
      </trkpt>
      <trkpt lat="44.36361" lon="5.76995">
        <ele>631.6</ele>
        <time>2024-04-25T08:36:26Z</time>
      </trkpt>
      <trkpt lat="44.36351" lon="5.76992">
        <ele>631</ele>
        <time>2024-04-25T08:36:30Z</time>
      </trkpt>
      <trkpt lat="44.36341" lon="5.76994">
        <ele>630</ele>
        <time>2024-04-25T08:36:34Z</time>
      </trkpt>
      <trkpt lat="44.36332" lon="5.76999">
        <ele>629.3</ele>
        <time>2024-04-25T08:36:37Z</time>
      </trkpt>
      <trkpt lat="44.36321" lon="5.77">
        <ele>629.6</ele>
        <time>2024-04-25T08:36:41Z</time>
      </trkpt>
      <trkpt lat="44.36309" lon="5.77">
        <ele>631.3</ele>
        <time>2024-04-25T08:36:44Z</time>
      </trkpt>
      <trkpt lat="44.36299" lon="5.76999">
        <ele>633</ele>
        <time>2024-04-25T08:36:47Z</time>
      </trkpt>
      <trkpt lat="44.3629" lon="5.76996">
        <ele>633.1</ele>
        <time>2024-04-25T08:36:50Z</time>
      </trkpt>
      <trkpt lat="44.36279" lon="5.76996">
        <ele>634.6</ele>
        <time>2024-04-25T08:36:54Z</time>
      </trkpt>
      <trkpt lat="44.36269" lon="5.76998">
        <ele>634.8</ele>
        <time>2024-04-25T08:36:58Z</time>
      </trkpt>
      <trkpt lat="44.3626" lon="5.77">
        <ele>634.9</ele>
        <time>2024-04-25T08:37:01Z</time>
      </trkpt>
      <trkpt lat="44.3625" lon="5.77001">
        <ele>635</ele>
        <time>2024-04-25T08:37:04Z</time>
      </trkpt>
      <trkpt lat="44.36239" lon="5.77004">
        <ele>635.2</ele>
        <time>2024-04-25T08:37:07Z</time>
      </trkpt>
      <trkpt lat="44.36229" lon="5.77006">
        <ele>635.5</ele>
        <time>2024-04-25T08:37:10Z</time>
      </trkpt>
      <trkpt lat="44.3622" lon="5.77011">
        <ele>635.6</ele>
        <time>2024-04-25T08:37:13Z</time>
      </trkpt>
      <trkpt lat="44.36212" lon="5.77018">
        <ele>635.6</ele>
        <time>2024-04-25T08:37:16Z</time>
      </trkpt>
      <trkpt lat="44.36203" lon="5.77024">
        <ele>635.7</ele>
        <time>2024-04-25T08:37:19Z</time>
      </trkpt>
      <trkpt lat="44.36195" lon="5.7703">
        <ele>635.7</ele>
        <time>2024-04-25T08:37:22Z</time>
      </trkpt>
      <trkpt lat="44.36185" lon="5.7704">
        <ele>635.8</ele>
        <time>2024-04-25T08:37:26Z</time>
      </trkpt>
      <trkpt lat="44.36177" lon="5.77046">
        <ele>635.8</ele>
        <time>2024-04-25T08:37:29Z</time>
      </trkpt>
      <trkpt lat="44.36168" lon="5.77054">
        <ele>635.8</ele>
        <time>2024-04-25T08:37:33Z</time>
      </trkpt>
      <trkpt lat="44.36157" lon="5.7706">
        <ele>635.7</ele>
        <time>2024-04-25T08:37:37Z</time>
      </trkpt>
      <trkpt lat="44.36146" lon="5.77066">
        <ele>635.6</ele>
        <time>2024-04-25T08:37:41Z</time>
      </trkpt>
      <trkpt lat="44.36136" lon="5.7707">
        <ele>635.6</ele>
        <time>2024-04-25T08:37:44Z</time>
      </trkpt>
      <trkpt lat="44.36125" lon="5.77073">
        <ele>635.7</ele>
        <time>2024-04-25T08:37:47Z</time>
      </trkpt>
      <trkpt lat="44.36115" lon="5.77075">
        <ele>635.7</ele>
        <time>2024-04-25T08:37:50Z</time>
      </trkpt>
      <trkpt lat="44.36105" lon="5.77076">
        <ele>635.8</ele>
        <time>2024-04-25T08:37:53Z</time>
      </trkpt>
      <trkpt lat="44.36095" lon="5.77075">
        <ele>635.9</ele>
        <time>2024-04-25T08:37:56Z</time>
      </trkpt>
      <trkpt lat="44.36086" lon="5.77076">
        <ele>635.9</ele>
        <time>2024-04-25T08:37:59Z</time>
      </trkpt>
      <trkpt lat="44.36077" lon="5.77074">
        <ele>636</ele>
        <time>2024-04-25T08:38:02Z</time>
      </trkpt>
      <trkpt lat="44.36065" lon="5.77071">
        <ele>636</ele>
        <time>2024-04-25T08:38:06Z</time>
      </trkpt>
      <trkpt lat="44.36054" lon="5.77068">
        <ele>636.1</ele>
        <time>2024-04-25T08:38:10Z</time>
      </trkpt>
      <trkpt lat="44.36045" lon="5.77067">
        <ele>636.1</ele>
        <time>2024-04-25T08:38:13Z</time>
      </trkpt>
      <trkpt lat="44.36034" lon="5.77067">
        <ele>636.2</ele>
        <time>2024-04-25T08:38:17Z</time>
      </trkpt>
      <trkpt lat="44.36024" lon="5.77068">
        <ele>636.3</ele>
        <time>2024-04-25T08:38:20Z</time>
      </trkpt>
      <trkpt lat="44.36013" lon="5.77076">
        <ele>636.4</ele>
        <time>2024-04-25T08:38:24Z</time>
      </trkpt>
      <trkpt lat="44.36005" lon="5.77084">
        <ele>636.4</ele>
        <time>2024-04-25T08:38:27Z</time>
      </trkpt>
      <trkpt lat="44.35997" lon="5.77093">
        <ele>636.4</ele>
        <time>2024-04-25T08:38:30Z</time>
      </trkpt>
      <trkpt lat="44.35989" lon="5.77103">
        <ele>636.5</ele>
        <time>2024-04-25T08:38:33Z</time>
      </trkpt>
      <trkpt lat="44.35981" lon="5.77113">
        <ele>636.5</ele>
        <time>2024-04-25T08:38:36Z</time>
      </trkpt>
      <trkpt lat="44.35973" lon="5.77123">
        <ele>636.5</ele>
        <time>2024-04-25T08:38:39Z</time>
      </trkpt>
      <trkpt lat="44.35965" lon="5.77135">
        <ele>636.4</ele>
        <time>2024-04-25T08:38:42Z</time>
      </trkpt>
      <trkpt lat="44.35957" lon="5.77145">
        <ele>636.4</ele>
        <time>2024-04-25T08:38:45Z</time>
      </trkpt>
      <trkpt lat="44.3595" lon="5.77154">
        <ele>636.4</ele>
        <time>2024-04-25T08:38:48Z</time>
      </trkpt>
      <trkpt lat="44.35942" lon="5.77162">
        <ele>636.5</ele>
        <time>2024-04-25T08:38:51Z</time>
      </trkpt>
      <trkpt lat="44.35933" lon="5.77172">
        <ele>636.5</ele>
        <time>2024-04-25T08:38:55Z</time>
      </trkpt>
      <trkpt lat="44.35926" lon="5.7718">
        <ele>636.5</ele>
        <time>2024-04-25T08:38:58Z</time>
      </trkpt>
      <trkpt lat="44.35919" lon="5.77188">
        <ele>636.6</ele>
        <time>2024-04-25T08:39:01Z</time>
      </trkpt>
      <trkpt lat="44.35911" lon="5.77197">
        <ele>636.6</ele>
        <time>2024-04-25T08:39:04Z</time>
      </trkpt>
      <trkpt lat="44.35904" lon="5.77205">
        <ele>636.6</ele>
        <time>2024-04-25T08:39:07Z</time>
      </trkpt>
      <trkpt lat="44.35896" lon="5.77214">
        <ele>636.6</ele>
        <time>2024-04-25T08:39:10Z</time>
      </trkpt>
      <trkpt lat="44.35888" lon="5.77222">
        <ele>636.6</ele>
        <time>2024-04-25T08:39:13Z</time>
      </trkpt>
      <trkpt lat="44.35881" lon="5.77231">
        <ele>636.6</ele>
        <time>2024-04-25T08:39:16Z</time>
      </trkpt>
      <trkpt lat="44.35873" lon="5.77241">
        <ele>636.6</ele>
        <time>2024-04-25T08:39:19Z</time>
      </trkpt>
      <trkpt lat="44.35865" lon="5.77249">
        <ele>636.7</ele>
        <time>2024-04-25T08:39:22Z</time>
      </trkpt>
      <trkpt lat="44.35857" lon="5.77259">
        <ele>636.8</ele>
        <time>2024-04-25T08:39:26Z</time>
      </trkpt>
      <trkpt lat="44.35857" lon="5.77272">
        <ele>637</ele>
        <time>2024-04-25T08:39:33Z</time>
      </trkpt>
      <trkpt lat="44.35861" lon="5.77284">
        <ele>637.3</ele>
        <time>2024-04-25T08:39:38Z</time>
      </trkpt>
      <trkpt lat="44.35868" lon="5.77296">
        <ele>637.9</ele>
        <time>2024-04-25T08:39:43Z</time>
      </trkpt>
      <trkpt lat="44.35861" lon="5.77306">
        <ele>637.7</ele>
        <time>2024-04-25T08:39:50Z</time>
      </trkpt>
      <trkpt lat="44.35851" lon="5.77304">
        <ele>637.3</ele>
        <time>2024-04-25T08:39:54Z</time>
      </trkpt>
      <trkpt lat="44.35842" lon="5.77302">
        <ele>636.9</ele>
        <time>2024-04-25T08:39:58Z</time>
      </trkpt>
      <trkpt lat="44.35833" lon="5.77299">
        <ele>636.7</ele>
        <time>2024-04-25T08:40:02Z</time>
      </trkpt>
      <trkpt lat="44.35822" lon="5.77296">
        <ele>636.5</ele>
        <time>2024-04-25T08:40:06Z</time>
      </trkpt>
      <trkpt lat="44.35812" lon="5.77292">
        <ele>636.5</ele>
        <time>2024-04-25T08:40:10Z</time>
      </trkpt>
      <trkpt lat="44.35801" lon="5.77289">
        <ele>636.5</ele>
        <time>2024-04-25T08:40:14Z</time>
      </trkpt>
      <trkpt lat="44.35789" lon="5.7729">
        <ele>636.7</ele>
        <time>2024-04-25T08:40:18Z</time>
      </trkpt>
      <trkpt lat="44.35781" lon="5.77297">
        <ele>636.6</ele>
        <time>2024-04-25T08:40:24Z</time>
      </trkpt>
      <trkpt lat="44.35781" lon="5.77311">
        <ele>635.9</ele>
        <time>2024-04-25T08:41:12Z</time>
      </trkpt>
      <trkpt lat="44.35774" lon="5.7732">
        <ele>635.9</ele>
        <time>2024-04-25T08:41:17Z</time>
      </trkpt>
      <trkpt lat="44.35767" lon="5.77329">
        <ele>636</ele>
        <time>2024-04-25T08:41:22Z</time>
      </trkpt>
      <trkpt lat="44.35759" lon="5.77338">
        <ele>636</ele>
        <time>2024-04-25T08:41:27Z</time>
      </trkpt>
      <trkpt lat="44.35752" lon="5.77346">
        <ele>636.1</ele>
        <time>2024-04-25T08:41:31Z</time>
      </trkpt>
      <trkpt lat="44.35745" lon="5.77354">
        <ele>636.2</ele>
        <time>2024-04-25T08:41:35Z</time>
      </trkpt>
      <trkpt lat="44.35737" lon="5.77362">
        <ele>636.3</ele>
        <time>2024-04-25T08:41:39Z</time>
      </trkpt>
      <trkpt lat="44.35729" lon="5.77371">
        <ele>636.4</ele>
        <time>2024-04-25T08:41:43Z</time>
      </trkpt>
      <trkpt lat="44.35721" lon="5.7738">
        <ele>636.5</ele>
        <time>2024-04-25T08:41:47Z</time>
      </trkpt>
      <trkpt lat="44.35713" lon="5.7739">
        <ele>636.7</ele>
        <time>2024-04-25T08:41:51Z</time>
      </trkpt>
      <trkpt lat="44.35706" lon="5.77398">
        <ele>636.8</ele>
        <time>2024-04-25T08:41:54Z</time>
      </trkpt>
      <trkpt lat="44.35699" lon="5.77406">
        <ele>636.8</ele>
        <time>2024-04-25T08:41:57Z</time>
      </trkpt>
      <trkpt lat="44.35692" lon="5.77414">
        <ele>636.9</ele>
        <time>2024-04-25T08:42:00Z</time>
      </trkpt>
      <trkpt lat="44.35683" lon="5.77424">
        <ele>637</ele>
        <time>2024-04-25T08:42:04Z</time>
      </trkpt>
      <trkpt lat="44.35676" lon="5.77432">
        <ele>637</ele>
        <time>2024-04-25T08:42:07Z</time>
      </trkpt>
      <trkpt lat="44.35669" lon="5.7744">
        <ele>637.1</ele>
        <time>2024-04-25T08:42:10Z</time>
      </trkpt>
      <trkpt lat="44.35662" lon="5.77448">
        <ele>637.1</ele>
        <time>2024-04-25T08:42:13Z</time>
      </trkpt>
      <trkpt lat="44.35655" lon="5.77456">
        <ele>637.2</ele>
        <time>2024-04-25T08:42:16Z</time>
      </trkpt>
      <trkpt lat="44.35648" lon="5.77464">
        <ele>637.2</ele>
        <time>2024-04-25T08:42:19Z</time>
      </trkpt>
      <trkpt lat="44.3564" lon="5.77472">
        <ele>637.3</ele>
        <time>2024-04-25T08:42:22Z</time>
      </trkpt>
      <trkpt lat="44.35633" lon="5.77481">
        <ele>637.4</ele>
        <time>2024-04-25T08:42:25Z</time>
      </trkpt>
      <trkpt lat="44.35625" lon="5.7749">
        <ele>637.6</ele>
        <time>2024-04-25T08:42:28Z</time>
      </trkpt>
      <trkpt lat="44.35618" lon="5.77498">
        <ele>637.7</ele>
        <time>2024-04-25T08:42:31Z</time>
      </trkpt>
      <trkpt lat="44.3561" lon="5.77506">
        <ele>637.9</ele>
        <time>2024-04-25T08:42:34Z</time>
      </trkpt>
      <trkpt lat="44.35603" lon="5.77515">
        <ele>637.9</ele>
        <time>2024-04-25T08:42:37Z</time>
      </trkpt>
      <trkpt lat="44.35595" lon="5.77523">
        <ele>637.9</ele>
        <time>2024-04-25T08:42:40Z</time>
      </trkpt>
      <trkpt lat="44.35587" lon="5.77535">
        <ele>637.8</ele>
        <time>2024-04-25T08:42:44Z</time>
      </trkpt>
      <trkpt lat="44.35579" lon="5.77547">
        <ele>637.7</ele>
        <time>2024-04-25T08:42:48Z</time>
      </trkpt>
      <trkpt lat="44.35575" lon="5.77559">
        <ele>637.6</ele>
        <time>2024-04-25T08:42:51Z</time>
      </trkpt>
      <trkpt lat="44.35569" lon="5.77574">
        <ele>637.6</ele>
        <time>2024-04-25T08:42:55Z</time>
      </trkpt>
      <trkpt lat="44.35566" lon="5.77586">
        <ele>637.5</ele>
        <time>2024-04-25T08:42:58Z</time>
      </trkpt>
      <trkpt lat="44.35564" lon="5.77599">
        <ele>637.4</ele>
        <time>2024-04-25T08:43:01Z</time>
      </trkpt>
      <trkpt lat="44.35562" lon="5.77612">
        <ele>637.4</ele>
        <time>2024-04-25T08:43:04Z</time>
      </trkpt>
      <trkpt lat="44.35561" lon="5.77625">
        <ele>637.5</ele>
        <time>2024-04-25T08:43:07Z</time>
      </trkpt>
      <trkpt lat="44.35561" lon="5.77639">
        <ele>637.6</ele>
        <time>2024-04-25T08:43:10Z</time>
      </trkpt>
      <trkpt lat="44.35561" lon="5.77653">
        <ele>637.9</ele>
        <time>2024-04-25T08:43:13Z</time>
      </trkpt>
      <trkpt lat="44.35559" lon="5.77666">
        <ele>638.1</ele>
        <time>2024-04-25T08:43:16Z</time>
      </trkpt>
      <trkpt lat="44.35556" lon="5.77678">
        <ele>638.6</ele>
        <time>2024-04-25T08:43:19Z</time>
      </trkpt>
      <trkpt lat="44.35553" lon="5.77693">
        <ele>639.6</ele>
        <time>2024-04-25T08:43:23Z</time>
      </trkpt>
      <trkpt lat="44.35553" lon="5.77708">
        <ele>640.7</ele>
        <time>2024-04-25T08:43:37Z</time>
      </trkpt>
      <trkpt lat="44.35543" lon="5.77708">
        <ele>641.9</ele>
        <time>2024-04-25T08:43:54Z</time>
      </trkpt>
      <trkpt lat="44.35533" lon="5.77703">
        <ele>642.8</ele>
        <time>2024-04-25T08:44:02Z</time>
      </trkpt>
      <trkpt lat="44.35524" lon="5.77699">
        <ele>643.1</ele>
        <time>2024-04-25T08:44:07Z</time>
      </trkpt>
      <trkpt lat="44.35514" lon="5.77694">
        <ele>643.2</ele>
        <time>2024-04-25T08:44:12Z</time>
      </trkpt>
      <trkpt lat="44.35505" lon="5.77692">
        <ele>643.2</ele>
        <time>2024-04-25T08:44:16Z</time>
      </trkpt>
      <trkpt lat="44.35496" lon="5.7769">
        <ele>643</ele>
        <time>2024-04-25T08:44:20Z</time>
      </trkpt>
      <trkpt lat="44.35486" lon="5.77688">
        <ele>642.7</ele>
        <time>2024-04-25T08:44:23Z</time>
      </trkpt>
      <trkpt lat="44.35475" lon="5.77684">
        <ele>642.3</ele>
        <time>2024-04-25T08:44:26Z</time>
      </trkpt>
      <trkpt lat="44.35464" lon="5.77677">
        <ele>641.6</ele>
        <time>2024-04-25T08:44:29Z</time>
      </trkpt>
      <trkpt lat="44.35454" lon="5.77667">
        <ele>640.7</ele>
        <time>2024-04-25T08:44:32Z</time>
      </trkpt>
      <trkpt lat="44.35446" lon="5.77659">
        <ele>640</ele>
        <time>2024-04-25T08:44:34Z</time>
      </trkpt>
      <trkpt lat="44.35438" lon="5.77651">
        <ele>639.3</ele>
        <time>2024-04-25T08:44:36Z</time>
      </trkpt>
      <trkpt lat="44.3543" lon="5.77641">
        <ele>638.8</ele>
        <time>2024-04-25T08:44:38Z</time>
      </trkpt>
      <trkpt lat="44.35424" lon="5.77631">
        <ele>638.3</ele>
        <time>2024-04-25T08:44:40Z</time>
      </trkpt>
      <trkpt lat="44.35417" lon="5.77617">
        <ele>637.9</ele>
        <time>2024-04-25T08:44:43Z</time>
      </trkpt>
      <trkpt lat="44.35411" lon="5.77605">
        <ele>637.4</ele>
        <time>2024-04-25T08:44:46Z</time>
      </trkpt>
      <trkpt lat="44.35405" lon="5.77591">
        <ele>636.7</ele>
        <time>2024-04-25T08:44:49Z</time>
      </trkpt>
      <trkpt lat="44.35397" lon="5.77576">
        <ele>635.9</ele>
        <time>2024-04-25T08:44:52Z</time>
      </trkpt>
      <trkpt lat="44.35392" lon="5.77564">
        <ele>635.4</ele>
        <time>2024-04-25T08:44:54Z</time>
      </trkpt>
      <trkpt lat="44.35386" lon="5.77552">
        <ele>634.8</ele>
        <time>2024-04-25T08:44:56Z</time>
      </trkpt>
      <trkpt lat="44.3538" lon="5.77538">
        <ele>634.3</ele>
        <time>2024-04-25T08:44:58Z</time>
      </trkpt>
      <trkpt lat="44.35374" lon="5.77525">
        <ele>633.8</ele>
        <time>2024-04-25T08:45:00Z</time>
      </trkpt>
      <trkpt lat="44.35368" lon="5.77512">
        <ele>633.4</ele>
        <time>2024-04-25T08:45:02Z</time>
      </trkpt>
      <trkpt lat="44.35364" lon="5.775">
        <ele>633</ele>
        <time>2024-04-25T08:45:04Z</time>
      </trkpt>
      <trkpt lat="44.35359" lon="5.77484">
        <ele>632.5</ele>
        <time>2024-04-25T08:45:07Z</time>
      </trkpt>
      <trkpt lat="44.35363" lon="5.7747">
        <ele>632.3</ele>
        <time>2024-04-25T08:45:11Z</time>
      </trkpt>
      <trkpt lat="44.35352" lon="5.77475">
        <ele>632.2</ele>
        <time>2024-04-25T08:45:22Z</time>
      </trkpt>
      <trkpt lat="44.35344" lon="5.77464">
        <ele>631.6</ele>
        <time>2024-04-25T08:45:27Z</time>
      </trkpt>
      <trkpt lat="44.35339" lon="5.77449">
        <ele>631.1</ele>
        <time>2024-04-25T08:45:31Z</time>
      </trkpt>
      <trkpt lat="44.35333" lon="5.77437">
        <ele>630.7</ele>
        <time>2024-04-25T08:45:34Z</time>
      </trkpt>
      <trkpt lat="44.35326" lon="5.77423">
        <ele>630.2</ele>
        <time>2024-04-25T08:45:37Z</time>
      </trkpt>
      <trkpt lat="44.35318" lon="5.77408">
        <ele>629.8</ele>
        <time>2024-04-25T08:45:40Z</time>
      </trkpt>
      <trkpt lat="44.35312" lon="5.77397">
        <ele>629.5</ele>
        <time>2024-04-25T08:45:42Z</time>
      </trkpt>
      <trkpt lat="44.35306" lon="5.77387">
        <ele>629.3</ele>
        <time>2024-04-25T08:45:44Z</time>
      </trkpt>
      <trkpt lat="44.35298" lon="5.77378">
        <ele>629</ele>
        <time>2024-04-25T08:45:46Z</time>
      </trkpt>
      <trkpt lat="44.3529" lon="5.77371">
        <ele>628.8</ele>
        <time>2024-04-25T08:45:48Z</time>
      </trkpt>
      <trkpt lat="44.35282" lon="5.77364">
        <ele>628.5</ele>
        <time>2024-04-25T08:45:50Z</time>
      </trkpt>
      <trkpt lat="44.35273" lon="5.7736">
        <ele>628.1</ele>
        <time>2024-04-25T08:45:52Z</time>
      </trkpt>
      <trkpt lat="44.35264" lon="5.77359">
        <ele>627.7</ele>
        <time>2024-04-25T08:45:54Z</time>
      </trkpt>
      <trkpt lat="44.35255" lon="5.77358">
        <ele>627.2</ele>
        <time>2024-04-25T08:45:56Z</time>
      </trkpt>
      <trkpt lat="44.35245" lon="5.77357">
        <ele>626.7</ele>
        <time>2024-04-25T08:45:58Z</time>
      </trkpt>
      <trkpt lat="44.35232" lon="5.77354">
        <ele>625.9</ele>
        <time>2024-04-25T08:46:01Z</time>
      </trkpt>
      <trkpt lat="44.35223" lon="5.7735">
        <ele>625.4</ele>
        <time>2024-04-25T08:46:03Z</time>
      </trkpt>
      <trkpt lat="44.35211" lon="5.77345">
        <ele>624.6</ele>
        <time>2024-04-25T08:46:06Z</time>
      </trkpt>
      <trkpt lat="44.35201" lon="5.77337">
        <ele>623.9</ele>
        <time>2024-04-25T08:46:09Z</time>
      </trkpt>
      <trkpt lat="44.35192" lon="5.77331">
        <ele>623.1</ele>
        <time>2024-04-25T08:46:12Z</time>
      </trkpt>
      <trkpt lat="44.35184" lon="5.77324">
        <ele>622.4</ele>
        <time>2024-04-25T08:46:15Z</time>
      </trkpt>
      <trkpt lat="44.35177" lon="5.77314">
        <ele>621.6</ele>
        <time>2024-04-25T08:46:18Z</time>
      </trkpt>
      <trkpt lat="44.35172" lon="5.77302">
        <ele>620.5</ele>
        <time>2024-04-25T08:46:22Z</time>
      </trkpt>
      <trkpt lat="44.35165" lon="5.77293">
        <ele>619.4</ele>
        <time>2024-04-25T08:46:26Z</time>
      </trkpt>
      <trkpt lat="44.35156" lon="5.77283">
        <ele>617.8</ele>
        <time>2024-04-25T08:46:30Z</time>
      </trkpt>
      <trkpt lat="44.3515" lon="5.77293">
        <ele>616.4</ele>
        <time>2024-04-25T08:46:34Z</time>
      </trkpt>
      <trkpt lat="44.35145" lon="5.77309">
        <ele>614.9</ele>
        <time>2024-04-25T08:46:37Z</time>
      </trkpt>
      <trkpt lat="44.35137" lon="5.7732">
        <ele>613.7</ele>
        <time>2024-04-25T08:46:40Z</time>
      </trkpt>
      <trkpt lat="44.35125" lon="5.77319">
        <ele>612.8</ele>
        <time>2024-04-25T08:46:43Z</time>
      </trkpt>
      <trkpt lat="44.35116" lon="5.77317">
        <ele>612.4</ele>
        <time>2024-04-25T08:46:45Z</time>
      </trkpt>
      <trkpt lat="44.35103" lon="5.77314">
        <ele>612</ele>
        <time>2024-04-25T08:46:48Z</time>
      </trkpt>
      <trkpt lat="44.35093" lon="5.77312">
        <ele>611.8</ele>
        <time>2024-04-25T08:46:51Z</time>
      </trkpt>
      <trkpt lat="44.35086" lon="5.77299">
        <ele>611.4</ele>
        <time>2024-04-25T08:46:55Z</time>
      </trkpt>
      <trkpt lat="44.35086" lon="5.77284">
        <ele>611</ele>
        <time>2024-04-25T08:46:58Z</time>
      </trkpt>
      <trkpt lat="44.35087" lon="5.7727">
        <ele>610.6</ele>
        <time>2024-04-25T08:47:01Z</time>
      </trkpt>
      <trkpt lat="44.35089" lon="5.77256">
        <ele>610.1</ele>
        <time>2024-04-25T08:47:04Z</time>
      </trkpt>
      <trkpt lat="44.35088" lon="5.77241">
        <ele>609.6</ele>
        <time>2024-04-25T08:47:07Z</time>
      </trkpt>
      <trkpt lat="44.35081" lon="5.77228">
        <ele>609</ele>
        <time>2024-04-25T08:47:10Z</time>
      </trkpt>
      <trkpt lat="44.35073" lon="5.77214">
        <ele>608.4</ele>
        <time>2024-04-25T08:47:13Z</time>
      </trkpt>
      <trkpt lat="44.35066" lon="5.77199">
        <ele>607.9</ele>
        <time>2024-04-25T08:47:16Z</time>
      </trkpt>
      <trkpt lat="44.35058" lon="5.77187">
        <ele>607.4</ele>
        <time>2024-04-25T08:47:19Z</time>
      </trkpt>
      <trkpt lat="44.35051" lon="5.77173">
        <ele>606.9</ele>
        <time>2024-04-25T08:47:22Z</time>
      </trkpt>
      <trkpt lat="44.35043" lon="5.7716">
        <ele>606.5</ele>
        <time>2024-04-25T08:47:25Z</time>
      </trkpt>
      <trkpt lat="44.35037" lon="5.77147">
        <ele>606.4</ele>
        <time>2024-04-25T08:47:28Z</time>
      </trkpt>
      <trkpt lat="44.35031" lon="5.77135">
        <ele>606.5</ele>
        <time>2024-04-25T08:47:32Z</time>
      </trkpt>
      <trkpt lat="44.35032" lon="5.77122">
        <ele>606.7</ele>
        <time>2024-04-25T08:47:39Z</time>
      </trkpt>
      <trkpt lat="44.35031" lon="5.77107">
        <ele>607.4</ele>
        <time>2024-04-25T08:47:47Z</time>
      </trkpt>
      <trkpt lat="44.35027" lon="5.77094">
        <ele>608.1</ele>
        <time>2024-04-25T08:47:55Z</time>
      </trkpt>
      <trkpt lat="44.35025" lon="5.77079">
        <ele>608.9</ele>
        <time>2024-04-25T08:48:14Z</time>
      </trkpt>
      <trkpt lat="44.35022" lon="5.77065">
        <ele>609.1</ele>
        <time>2024-04-25T08:48:22Z</time>
      </trkpt>
      <trkpt lat="44.35017" lon="5.77054">
        <ele>609</ele>
        <time>2024-04-25T08:48:30Z</time>
      </trkpt>
      <trkpt lat="44.35013" lon="5.77042">
        <ele>608.8</ele>
        <time>2024-04-25T08:48:42Z</time>
      </trkpt>
      <trkpt lat="44.35007" lon="5.77028">
        <ele>608.5</ele>
        <time>2024-04-25T08:48:47Z</time>
      </trkpt>
      <trkpt lat="44.35007" lon="5.77015">
        <ele>608.2</ele>
        <time>2024-04-25T08:48:52Z</time>
      </trkpt>
      <trkpt lat="44.35007" lon="5.77002">
        <ele>608</ele>
        <time>2024-04-25T08:48:57Z</time>
      </trkpt>
      <trkpt lat="44.35003" lon="5.7699">
        <ele>607.5</ele>
        <time>2024-04-25T08:49:02Z</time>
      </trkpt>
      <trkpt lat="44.34992" lon="5.76988">
        <ele>606.4</ele>
        <time>2024-04-25T08:49:08Z</time>
      </trkpt>
      <trkpt lat="44.34982" lon="5.76994">
        <ele>605.2</ele>
        <time>2024-04-25T08:49:12Z</time>
      </trkpt>
      <trkpt lat="44.34974" lon="5.76988">
        <ele>604.1</ele>
        <time>2024-04-25T08:49:20Z</time>
      </trkpt>
      <trkpt lat="44.34968" lon="5.76978">
        <ele>603.5</ele>
        <time>2024-04-25T08:49:24Z</time>
      </trkpt>
      <trkpt lat="44.34961" lon="5.76969">
        <ele>603.3</ele>
        <time>2024-04-25T08:49:28Z</time>
      </trkpt>
      <trkpt lat="44.34952" lon="5.76966">
        <ele>603.6</ele>
        <time>2024-04-25T08:49:36Z</time>
      </trkpt>
      <trkpt lat="44.34944" lon="5.76976">
        <ele>604.2</ele>
        <time>2024-04-25T08:50:21Z</time>
      </trkpt>
      <trkpt lat="44.34936" lon="5.76985">
        <ele>605.3</ele>
        <time>2024-04-25T08:50:57Z</time>
      </trkpt>
      <trkpt lat="44.3493" lon="5.76995">
        <ele>606</ele>
        <time>2024-04-25T08:51:28Z</time>
      </trkpt>
      <trkpt lat="44.3492" lon="5.77005">
        <ele>606.4</ele>
        <time>2024-04-25T08:51:34Z</time>
      </trkpt>
      <trkpt lat="44.3491" lon="5.7701">
        <ele>606.5</ele>
        <time>2024-04-25T08:51:40Z</time>
      </trkpt>
      <trkpt lat="44.34901" lon="5.77002">
        <ele>606.5</ele>
        <time>2024-04-25T08:51:45Z</time>
      </trkpt>
      <trkpt lat="44.34892" lon="5.77003">
        <ele>606.3</ele>
        <time>2024-04-25T08:51:49Z</time>
      </trkpt>
      <trkpt lat="44.34884" lon="5.77013">
        <ele>606.3</ele>
        <time>2024-04-25T08:51:54Z</time>
      </trkpt>
      <trkpt lat="44.34877" lon="5.77021">
        <ele>606.2</ele>
        <time>2024-04-25T08:51:58Z</time>
      </trkpt>
      <trkpt lat="44.3487" lon="5.77029">
        <ele>606.1</ele>
        <time>2024-04-25T08:52:04Z</time>
      </trkpt>
      <trkpt lat="44.34861" lon="5.77036">
        <ele>605.9</ele>
        <time>2024-04-25T08:52:12Z</time>
      </trkpt>
      <trkpt lat="44.34852" lon="5.77043">
        <ele>605.6</ele>
        <time>2024-04-25T08:52:18Z</time>
      </trkpt>
      <trkpt lat="44.34844" lon="5.77051">
        <ele>605.2</ele>
        <time>2024-04-25T08:52:23Z</time>
      </trkpt>
      <trkpt lat="44.34836" lon="5.77059">
        <ele>604.7</ele>
        <time>2024-04-25T08:52:28Z</time>
      </trkpt>
      <trkpt lat="44.34829" lon="5.7707">
        <ele>604.1</ele>
        <time>2024-04-25T08:52:33Z</time>
      </trkpt>
      <trkpt lat="44.34822" lon="5.77081">
        <ele>603.5</ele>
        <time>2024-04-25T08:52:36Z</time>
      </trkpt>
      <trkpt lat="44.34817" lon="5.77092">
        <ele>602.9</ele>
        <time>2024-04-25T08:52:39Z</time>
      </trkpt>
      <trkpt lat="44.34813" lon="5.77106">
        <ele>602.3</ele>
        <time>2024-04-25T08:52:42Z</time>
      </trkpt>
      <trkpt lat="44.34805" lon="5.77116">
        <ele>602</ele>
        <time>2024-04-25T08:52:45Z</time>
      </trkpt>
      <trkpt lat="44.34798" lon="5.77124">
        <ele>601.8</ele>
        <time>2024-04-25T08:52:48Z</time>
      </trkpt>
      <trkpt lat="44.34792" lon="5.77138">
        <ele>601.7</ele>
        <time>2024-04-25T08:52:53Z</time>
      </trkpt>
      <trkpt lat="44.34786" lon="5.77152">
        <ele>601.9</ele>
        <time>2024-04-25T08:52:58Z</time>
      </trkpt>
      <trkpt lat="44.34781" lon="5.77163">
        <ele>602.1</ele>
        <time>2024-04-25T08:53:02Z</time>
      </trkpt>
      <trkpt lat="44.34778" lon="5.77176">
        <ele>602.3</ele>
        <time>2024-04-25T08:53:06Z</time>
      </trkpt>
      <trkpt lat="44.34778" lon="5.77189">
        <ele>602.6</ele>
        <time>2024-04-25T08:53:10Z</time>
      </trkpt>
      <trkpt lat="44.34779" lon="5.77203">
        <ele>603</ele>
        <time>2024-04-25T08:53:15Z</time>
      </trkpt>
      <trkpt lat="44.34781" lon="5.77217">
        <ele>603.3</ele>
        <time>2024-04-25T08:53:19Z</time>
      </trkpt>
      <trkpt lat="44.34783" lon="5.7723">
        <ele>603.7</ele>
        <time>2024-04-25T08:53:23Z</time>
      </trkpt>
      <trkpt lat="44.34784" lon="5.77243">
        <ele>604</ele>
        <time>2024-04-25T08:53:27Z</time>
      </trkpt>
      <trkpt lat="44.34785" lon="5.77257">
        <ele>604.6</ele>
        <time>2024-04-25T08:53:32Z</time>
      </trkpt>
      <trkpt lat="44.34784" lon="5.77272">
        <ele>605.3</ele>
        <time>2024-04-25T08:53:38Z</time>
      </trkpt>
      <trkpt lat="44.34781" lon="5.77287">
        <ele>606.1</ele>
        <time>2024-04-25T08:53:46Z</time>
      </trkpt>
      <trkpt lat="44.34776" lon="5.77301">
        <ele>607</ele>
        <time>2024-04-25T08:53:54Z</time>
      </trkpt>
      <trkpt lat="44.34768" lon="5.77312">
        <ele>607.9</ele>
        <time>2024-04-25T08:54:02Z</time>
      </trkpt>
      <trkpt lat="44.34759" lon="5.7732">
        <ele>608.5</ele>
        <time>2024-04-25T08:54:09Z</time>
      </trkpt>
      <trkpt lat="44.34751" lon="5.77331">
        <ele>608.6</ele>
        <time>2024-04-25T08:57:07Z</time>
      </trkpt>
      <trkpt lat="44.34745" lon="5.77343">
        <ele>608.5</ele>
        <time>2024-04-25T08:57:11Z</time>
      </trkpt>
      <trkpt lat="44.34739" lon="5.77353">
        <ele>608.4</ele>
        <time>2024-04-25T08:57:15Z</time>
      </trkpt>
      <trkpt lat="44.34733" lon="5.77363">
        <ele>608.3</ele>
        <time>2024-04-25T08:57:20Z</time>
      </trkpt>
      <trkpt lat="44.34729" lon="5.77377">
        <ele>608.4</ele>
        <time>2024-04-25T08:57:28Z</time>
      </trkpt>
      <trkpt lat="44.34726" lon="5.77389">
        <ele>608.4</ele>
        <time>2024-04-25T08:57:34Z</time>
      </trkpt>
      <trkpt lat="44.34724" lon="5.77403">
        <ele>608.7</ele>
        <time>2024-04-25T08:57:39Z</time>
      </trkpt>
      <trkpt lat="44.34722" lon="5.77417">
        <ele>609</ele>
        <time>2024-04-25T08:57:44Z</time>
      </trkpt>
      <trkpt lat="44.34718" lon="5.77431">
        <ele>609.3</ele>
        <time>2024-04-25T08:57:49Z</time>
      </trkpt>
      <trkpt lat="44.3471" lon="5.77437">
        <ele>609.7</ele>
        <time>2024-04-25T08:57:53Z</time>
      </trkpt>
      <trkpt lat="44.34701" lon="5.77438">
        <ele>609.9</ele>
        <time>2024-04-25T08:57:57Z</time>
      </trkpt>
      <trkpt lat="44.34691" lon="5.77436">
        <ele>609.2</ele>
        <time>2024-04-25T08:58:28Z</time>
      </trkpt>
      <trkpt lat="44.34681" lon="5.77435">
        <ele>608.4</ele>
        <time>2024-04-25T08:58:32Z</time>
      </trkpt>
      <trkpt lat="44.34672" lon="5.77434">
        <ele>607.7</ele>
        <time>2024-04-25T08:58:36Z</time>
      </trkpt>
      <trkpt lat="44.34661" lon="5.77429">
        <ele>606.7</ele>
        <time>2024-04-25T08:58:40Z</time>
      </trkpt>
      <trkpt lat="44.34651" lon="5.77425">
        <ele>605.7</ele>
        <time>2024-04-25T08:58:43Z</time>
      </trkpt>
      <trkpt lat="44.34642" lon="5.77423">
        <ele>604.8</ele>
        <time>2024-04-25T08:58:45Z</time>
      </trkpt>
      <trkpt lat="44.34629" lon="5.77425">
        <ele>603.7</ele>
        <time>2024-04-25T08:58:48Z</time>
      </trkpt>
      <trkpt lat="44.3462" lon="5.77431">
        <ele>602.9</ele>
        <time>2024-04-25T08:58:50Z</time>
      </trkpt>
      <trkpt lat="44.34611" lon="5.77439">
        <ele>602.2</ele>
        <time>2024-04-25T08:58:52Z</time>
      </trkpt>
      <trkpt lat="44.34603" lon="5.77446">
        <ele>601.8</ele>
        <time>2024-04-25T08:58:54Z</time>
      </trkpt>
      <trkpt lat="44.34601" lon="5.77459">
        <ele>602</ele>
        <time>2024-04-25T08:58:59Z</time>
      </trkpt>
      <trkpt lat="44.34612" lon="5.77466">
        <ele>602.6</ele>
        <time>2024-04-25T08:59:06Z</time>
      </trkpt>
      <trkpt lat="44.34622" lon="5.77472">
        <ele>603.3</ele>
        <time>2024-04-25T08:59:11Z</time>
      </trkpt>
      <trkpt lat="44.34629" lon="5.77481">
        <ele>604.1</ele>
        <time>2024-04-25T08:59:16Z</time>
      </trkpt>
      <trkpt lat="44.34635" lon="5.77494">
        <ele>605.2</ele>
        <time>2024-04-25T08:59:23Z</time>
      </trkpt>
      <trkpt lat="44.3464" lon="5.77508">
        <ele>606.4</ele>
        <time>2024-04-25T08:59:31Z</time>
      </trkpt>
      <trkpt lat="44.34643" lon="5.77521">
        <ele>607.6</ele>
        <time>2024-04-25T08:59:39Z</time>
      </trkpt>
      <trkpt lat="44.34647" lon="5.77533">
        <ele>608.6</ele>
        <time>2024-04-25T08:59:45Z</time>
      </trkpt>
      <trkpt lat="44.34646" lon="5.77547">
        <ele>609.9</ele>
        <time>2024-04-25T08:59:53Z</time>
      </trkpt>
      <trkpt lat="44.34636" lon="5.77552">
        <ele>611.4</ele>
        <time>2024-04-25T09:00:04Z</time>
      </trkpt>
      <trkpt lat="44.34625" lon="5.77555">
        <ele>612.7</ele>
        <time>2024-04-25T09:00:17Z</time>
      </trkpt>
      <trkpt lat="44.34616" lon="5.77553">
        <ele>613.7</ele>
        <time>2024-04-25T09:01:12Z</time>
      </trkpt>
      <trkpt lat="44.34606" lon="5.77555">
        <ele>614.9</ele>
        <time>2024-04-25T09:01:20Z</time>
      </trkpt>
      <trkpt lat="44.34596" lon="5.77558">
        <ele>616</ele>
        <time>2024-04-25T09:01:28Z</time>
      </trkpt>
      <trkpt lat="44.34587" lon="5.77564">
        <ele>617.2</ele>
        <time>2024-04-25T09:01:55Z</time>
      </trkpt>
      <trkpt lat="44.34577" lon="5.77566">
        <ele>618.2</ele>
        <time>2024-04-25T09:02:06Z</time>
      </trkpt>
      <trkpt lat="44.34568" lon="5.77565">
        <ele>619.2</ele>
        <time>2024-04-25T09:02:15Z</time>
      </trkpt>
      <trkpt lat="44.34558" lon="5.77568">
        <ele>620.6</ele>
        <time>2024-04-25T09:02:26Z</time>
      </trkpt>
      <trkpt lat="44.3455" lon="5.77575">
        <ele>621.6</ele>
        <time>2024-04-25T09:02:34Z</time>
      </trkpt>
      <trkpt lat="44.3454" lon="5.77578">
        <ele>622.7</ele>
        <time>2024-04-25T09:02:44Z</time>
      </trkpt>
      <trkpt lat="44.3453" lon="5.77584">
        <ele>623.9</ele>
        <time>2024-04-25T09:02:54Z</time>
      </trkpt>
      <trkpt lat="44.3452" lon="5.77587">
        <ele>624.9</ele>
        <time>2024-04-25T09:03:04Z</time>
      </trkpt>
      <trkpt lat="44.3451" lon="5.77592">
        <ele>625.8</ele>
        <time>2024-04-25T09:03:17Z</time>
      </trkpt>
      <trkpt lat="44.34502" lon="5.77598">
        <ele>626.7</ele>
        <time>2024-04-25T09:03:21Z</time>
      </trkpt>
      <trkpt lat="44.34492" lon="5.77603">
        <ele>627.6</ele>
        <time>2024-04-25T09:03:26Z</time>
      </trkpt>
      <trkpt lat="44.34482" lon="5.77604">
        <ele>629</ele>
        <time>2024-04-25T09:05:26Z</time>
      </trkpt>
      <trkpt lat="44.34473" lon="5.77602">
        <ele>629.9</ele>
        <time>2024-04-25T09:05:30Z</time>
      </trkpt>
      <trkpt lat="44.34464" lon="5.77601">
        <ele>630.8</ele>
        <time>2024-04-25T09:05:34Z</time>
      </trkpt>
      <trkpt lat="44.34455" lon="5.776">
        <ele>631.8</ele>
        <time>2024-04-25T09:05:39Z</time>
      </trkpt>
      <trkpt lat="44.34443" lon="5.77599">
        <ele>633.2</ele>
        <time>2024-04-25T09:05:47Z</time>
      </trkpt>
      <trkpt lat="44.34432" lon="5.77599">
        <ele>634.6</ele>
        <time>2024-04-25T09:05:55Z</time>
      </trkpt>
      <trkpt lat="44.34423" lon="5.776">
        <ele>635.6</ele>
        <time>2024-04-25T09:06:01Z</time>
      </trkpt>
      <trkpt lat="44.34413" lon="5.776">
        <ele>636.9</ele>
        <time>2024-04-25T09:06:09Z</time>
      </trkpt>
      <trkpt lat="44.34403" lon="5.77606">
        <ele>638.2</ele>
        <time>2024-04-25T09:06:17Z</time>
      </trkpt>
      <trkpt lat="44.34401" lon="5.77619">
        <ele>639.4</ele>
        <time>2024-04-25T09:06:24Z</time>
      </trkpt>
      <trkpt lat="44.34411" lon="5.7763">
        <ele>640.8</ele>
        <time>2024-04-25T09:06:34Z</time>
      </trkpt>
      <trkpt lat="44.3442" lon="5.77632">
        <ele>641.9</ele>
        <time>2024-04-25T09:06:42Z</time>
      </trkpt>
      <trkpt lat="44.34429" lon="5.77635">
        <ele>642.9</ele>
        <time>2024-04-25T09:06:49Z</time>
      </trkpt>
      <trkpt lat="44.34439" lon="5.77637">
        <ele>643.9</ele>
        <time>2024-04-25T09:06:56Z</time>
      </trkpt>
      <trkpt lat="44.34448" lon="5.77639">
        <ele>644.8</ele>
        <time>2024-04-25T09:07:02Z</time>
      </trkpt>
      <trkpt lat="44.34457" lon="5.77642">
        <ele>645.7</ele>
        <time>2024-04-25T09:07:10Z</time>
      </trkpt>
      <trkpt lat="44.34467" lon="5.77646">
        <ele>646.8</ele>
        <time>2024-04-25T09:07:18Z</time>
      </trkpt>
      <trkpt lat="44.34478" lon="5.7765">
        <ele>648</ele>
        <time>2024-04-25T09:07:28Z</time>
      </trkpt>
      <trkpt lat="44.34488" lon="5.77653">
        <ele>649</ele>
        <time>2024-04-25T09:07:36Z</time>
      </trkpt>
      <trkpt lat="44.34497" lon="5.77651">
        <ele>649.8</ele>
        <time>2024-04-25T09:07:44Z</time>
      </trkpt>
      <trkpt lat="44.34507" lon="5.7765">
        <ele>650.6</ele>
        <time>2024-04-25T09:07:52Z</time>
      </trkpt>
      <trkpt lat="44.34517" lon="5.77651">
        <ele>651.6</ele>
        <time>2024-04-25T09:08:00Z</time>
      </trkpt>
      <trkpt lat="44.34526" lon="5.77657">
        <ele>652.7</ele>
        <time>2024-04-25T09:08:08Z</time>
      </trkpt>
      <trkpt lat="44.34532" lon="5.77667">
        <ele>653.7</ele>
        <time>2024-04-25T09:08:16Z</time>
      </trkpt>
      <trkpt lat="44.34537" lon="5.77678">
        <ele>654.7</ele>
        <time>2024-04-25T09:08:24Z</time>
      </trkpt>
      <trkpt lat="44.3454" lon="5.77691">
        <ele>655.7</ele>
        <time>2024-04-25T09:08:32Z</time>
      </trkpt>
      <trkpt lat="44.34542" lon="5.77704">
        <ele>656.7</ele>
        <time>2024-04-25T09:08:40Z</time>
      </trkpt>
      <trkpt lat="44.34543" lon="5.77717">
        <ele>657.7</ele>
        <time>2024-04-25T09:08:48Z</time>
      </trkpt>
      <trkpt lat="44.34546" lon="5.7773">
        <ele>658.6</ele>
        <time>2024-04-25T09:08:56Z</time>
      </trkpt>
      <trkpt lat="44.34552" lon="5.77744">
        <ele>659.9</ele>
        <time>2024-04-25T09:10:01Z</time>
      </trkpt>
      <trkpt lat="44.34559" lon="5.77754">
        <ele>660.9</ele>
        <time>2024-04-25T09:10:08Z</time>
      </trkpt>
      <trkpt lat="44.34567" lon="5.77762">
        <ele>662.1</ele>
        <time>2024-04-25T09:10:16Z</time>
      </trkpt>
      <trkpt lat="44.34575" lon="5.77771">
        <ele>663.2</ele>
        <time>2024-04-25T09:10:24Z</time>
      </trkpt>
      <trkpt lat="44.34584" lon="5.77779">
        <ele>664.4</ele>
        <time>2024-04-25T09:10:32Z</time>
      </trkpt>
      <trkpt lat="44.34592" lon="5.77788">
        <ele>665.5</ele>
        <time>2024-04-25T09:10:40Z</time>
      </trkpt>
      <trkpt lat="44.34598" lon="5.778">
        <ele>666.8</ele>
        <time>2024-04-25T09:10:48Z</time>
      </trkpt>
      <trkpt lat="44.34606" lon="5.77809">
        <ele>668.1</ele>
        <time>2024-04-25T09:10:56Z</time>
      </trkpt>
      <trkpt lat="44.34615" lon="5.7782">
        <ele>669.6</ele>
        <time>2024-04-25T09:11:04Z</time>
      </trkpt>
      <trkpt lat="44.34625" lon="5.77825">
        <ele>670.7</ele>
        <time>2024-04-25T09:11:11Z</time>
      </trkpt>
      <trkpt lat="44.34634" lon="5.77829">
        <ele>671.7</ele>
        <time>2024-04-25T09:11:19Z</time>
      </trkpt>
      <trkpt lat="44.34644" lon="5.77831">
        <ele>672.6</ele>
        <time>2024-04-25T09:11:26Z</time>
      </trkpt>
      <trkpt lat="44.34653" lon="5.77835">
        <ele>673.5</ele>
        <time>2024-04-25T09:11:33Z</time>
      </trkpt>
      <trkpt lat="44.34663" lon="5.77841">
        <ele>674.4</ele>
        <time>2024-04-25T09:11:41Z</time>
      </trkpt>
      <trkpt lat="44.34673" lon="5.77846">
        <ele>675.2</ele>
        <time>2024-04-25T09:11:49Z</time>
      </trkpt>
      <trkpt lat="44.34682" lon="5.77856">
        <ele>676.2</ele>
        <time>2024-04-25T09:11:56Z</time>
      </trkpt>
      <trkpt lat="44.34688" lon="5.7787">
        <ele>677.3</ele>
        <time>2024-04-25T09:12:04Z</time>
      </trkpt>
      <trkpt lat="44.34693" lon="5.77884">
        <ele>678.3</ele>
        <time>2024-04-25T09:12:12Z</time>
      </trkpt>
      <trkpt lat="44.34699" lon="5.77895">
        <ele>679.1</ele>
        <time>2024-04-25T09:12:18Z</time>
      </trkpt>
      <trkpt lat="44.34704" lon="5.77907">
        <ele>680</ele>
        <time>2024-04-25T09:12:25Z</time>
      </trkpt>
      <trkpt lat="44.34709" lon="5.77922">
        <ele>681.1</ele>
        <time>2024-04-25T09:12:33Z</time>
      </trkpt>
      <trkpt lat="44.34713" lon="5.77937">
        <ele>682.1</ele>
        <time>2024-04-25T09:12:41Z</time>
      </trkpt>
      <trkpt lat="44.34715" lon="5.77951">
        <ele>683.3</ele>
        <time>2024-04-25T09:12:49Z</time>
      </trkpt>
      <trkpt lat="44.34718" lon="5.77964">
        <ele>684.3</ele>
        <time>2024-04-25T09:12:56Z</time>
      </trkpt>
      <trkpt lat="44.34719" lon="5.77977">
        <ele>685.1</ele>
        <time>2024-04-25T09:13:02Z</time>
      </trkpt>
      <trkpt lat="44.34723" lon="5.77991">
        <ele>686.1</ele>
        <time>2024-04-25T09:13:10Z</time>
      </trkpt>
      <trkpt lat="44.34726" lon="5.78004">
        <ele>687</ele>
        <time>2024-04-25T09:13:18Z</time>
      </trkpt>
      <trkpt lat="44.34731" lon="5.78016">
        <ele>688</ele>
        <time>2024-04-25T09:13:25Z</time>
      </trkpt>
      <trkpt lat="44.34738" lon="5.78028">
        <ele>689.1</ele>
        <time>2024-04-25T09:13:33Z</time>
      </trkpt>
      <trkpt lat="44.34745" lon="5.78038">
        <ele>690.1</ele>
        <time>2024-04-25T09:13:41Z</time>
      </trkpt>
      <trkpt lat="44.34754" lon="5.78048">
        <ele>691.2</ele>
        <time>2024-04-25T09:13:49Z</time>
      </trkpt>
      <trkpt lat="44.34761" lon="5.78058">
        <ele>692.1</ele>
        <time>2024-04-25T09:13:56Z</time>
      </trkpt>
      <trkpt lat="44.3477" lon="5.78069">
        <ele>693.1</ele>
        <time>2024-04-25T09:14:04Z</time>
      </trkpt>
      <trkpt lat="44.34778" lon="5.78079">
        <ele>694.1</ele>
        <time>2024-04-25T09:14:12Z</time>
      </trkpt>
      <trkpt lat="44.34785" lon="5.78088">
        <ele>695</ele>
        <time>2024-04-25T09:14:18Z</time>
      </trkpt>
      <trkpt lat="44.34793" lon="5.78094">
        <ele>695.8</ele>
        <time>2024-04-25T09:14:24Z</time>
      </trkpt>
      <trkpt lat="44.34801" lon="5.78104">
        <ele>697</ele>
        <time>2024-04-25T09:14:32Z</time>
      </trkpt>
      <trkpt lat="44.3481" lon="5.78106">
        <ele>698</ele>
        <time>2024-04-25T09:14:38Z</time>
      </trkpt>
      <trkpt lat="44.3482" lon="5.78104">
        <ele>699</ele>
        <time>2024-04-25T09:14:45Z</time>
      </trkpt>
      <trkpt lat="44.3483" lon="5.78101">
        <ele>700.1</ele>
        <time>2024-04-25T09:14:53Z</time>
      </trkpt>
      <trkpt lat="44.3484" lon="5.78103">
        <ele>701</ele>
        <time>2024-04-25T09:15:00Z</time>
      </trkpt>
      <trkpt lat="44.3485" lon="5.7811">
        <ele>702</ele>
        <time>2024-04-25T09:15:08Z</time>
      </trkpt>
      <trkpt lat="44.34858" lon="5.78118">
        <ele>702.9</ele>
        <time>2024-04-25T09:15:13Z</time>
      </trkpt>
      <trkpt lat="44.34866" lon="5.78127">
        <ele>704</ele>
        <time>2024-04-25T09:15:21Z</time>
      </trkpt>
      <trkpt lat="44.34866" lon="5.78114">
        <ele>705.6</ele>
        <time>2024-04-25T09:15:35Z</time>
      </trkpt>
      <trkpt lat="44.3486" lon="5.78104">
        <ele>706.2</ele>
        <time>2024-04-25T09:15:43Z</time>
      </trkpt>
      <trkpt lat="44.34854" lon="5.78092">
        <ele>707</ele>
        <time>2024-04-25T09:17:26Z</time>
      </trkpt>
      <trkpt lat="44.34845" lon="5.78084">
        <ele>707.9</ele>
        <time>2024-04-25T09:17:31Z</time>
      </trkpt>
      <trkpt lat="44.34837" lon="5.78076">
        <ele>709</ele>
        <time>2024-04-25T09:17:37Z</time>
      </trkpt>
      <trkpt lat="44.3483" lon="5.78062">
        <ele>710.3</ele>
        <time>2024-04-25T09:17:45Z</time>
      </trkpt>
      <trkpt lat="44.34837" lon="5.78053">
        <ele>711.1</ele>
        <time>2024-04-25T09:17:52Z</time>
      </trkpt>
      <trkpt lat="44.34847" lon="5.7806">
        <ele>711.8</ele>
        <time>2024-04-25T09:17:59Z</time>
      </trkpt>
      <trkpt lat="44.34855" lon="5.78068">
        <ele>712.5</ele>
        <time>2024-04-25T09:18:05Z</time>
      </trkpt>
      <trkpt lat="44.34865" lon="5.78077">
        <ele>713.3</ele>
        <time>2024-04-25T09:18:13Z</time>
      </trkpt>
      <trkpt lat="44.34873" lon="5.78087">
        <ele>714.1</ele>
        <time>2024-04-25T09:18:21Z</time>
      </trkpt>
      <trkpt lat="44.34881" lon="5.78098">
        <ele>715</ele>
        <time>2024-04-25T09:18:28Z</time>
      </trkpt>
      <trkpt lat="44.34889" lon="5.78108">
        <ele>715.6</ele>
        <time>2024-04-25T09:18:36Z</time>
      </trkpt>
      <trkpt lat="44.34898" lon="5.78114">
        <ele>716.1</ele>
        <time>2024-04-25T09:18:42Z</time>
      </trkpt>
      <trkpt lat="44.34907" lon="5.7812">
        <ele>716.4</ele>
        <time>2024-04-25T09:18:48Z</time>
      </trkpt>
      <trkpt lat="44.34917" lon="5.78129">
        <ele>716.8</ele>
        <time>2024-04-25T09:18:55Z</time>
      </trkpt>
      <trkpt lat="44.34926" lon="5.78137">
        <ele>717.5</ele>
        <time>2024-04-25T09:19:03Z</time>
      </trkpt>
      <trkpt lat="44.34935" lon="5.78139">
        <ele>718.3</ele>
        <time>2024-04-25T09:19:11Z</time>
      </trkpt>
      <trkpt lat="44.34945" lon="5.78138">
        <ele>719.4</ele>
        <time>2024-04-25T09:19:24Z</time>
      </trkpt>
      <trkpt lat="44.34956" lon="5.78137">
        <ele>720.8</ele>
        <time>2024-04-25T09:19:45Z</time>
      </trkpt>
      <trkpt lat="44.34967" lon="5.78137">
        <ele>722.3</ele>
        <time>2024-04-25T09:19:56Z</time>
      </trkpt>
      <trkpt lat="44.34976" lon="5.78138">
        <ele>723.6</ele>
        <time>2024-04-25T09:20:04Z</time>
      </trkpt>
      <trkpt lat="44.34987" lon="5.78139">
        <ele>725.1</ele>
        <time>2024-04-25T09:20:15Z</time>
      </trkpt>
      <trkpt lat="44.34998" lon="5.78138">
        <ele>726.8</ele>
        <time>2024-04-25T09:20:27Z</time>
      </trkpt>
      <trkpt lat="44.35008" lon="5.78142">
        <ele>728.4</ele>
        <time>2024-04-25T09:20:36Z</time>
      </trkpt>
      <trkpt lat="44.35017" lon="5.78147">
        <ele>729.4</ele>
        <time>2024-04-25T09:20:43Z</time>
      </trkpt>
      <trkpt lat="44.35027" lon="5.78152">
        <ele>730.2</ele>
        <time>2024-04-25T09:21:01Z</time>
      </trkpt>
      <trkpt lat="44.35028" lon="5.78139">
        <ele>730</ele>
        <time>2024-04-25T09:23:17Z</time>
      </trkpt>
      <trkpt lat="44.35019" lon="5.7814">
        <ele>728.8</ele>
        <time>2024-04-25T09:24:40Z</time>
      </trkpt>
      <trkpt lat="44.35019" lon="5.78154">
        <ele>729.1</ele>
        <time>2024-04-25T09:26:21Z</time>
      </trkpt>
      <trkpt lat="44.35013" lon="5.78164">
        <ele>729.8</ele>
        <time>2024-04-25T09:27:55Z</time>
      </trkpt>
      <trkpt lat="44.3501" lon="5.78177">
        <ele>730.3</ele>
        <time>2024-04-25T09:27:58Z</time>
      </trkpt>
      <trkpt lat="44.35004" lon="5.78188">
        <ele>731</ele>
        <time>2024-04-25T09:28:01Z</time>
      </trkpt>
      <trkpt lat="44.34997" lon="5.782">
        <ele>731.8</ele>
        <time>2024-04-25T09:28:04Z</time>
      </trkpt>
      <trkpt lat="44.34989" lon="5.7821">
        <ele>732.6</ele>
        <time>2024-04-25T09:28:08Z</time>
      </trkpt>
      <trkpt lat="44.34982" lon="5.7822">
        <ele>733.3</ele>
        <time>2024-04-25T09:28:13Z</time>
      </trkpt>
      <trkpt lat="44.34973" lon="5.78225">
        <ele>733.8</ele>
        <time>2024-04-25T09:28:18Z</time>
      </trkpt>
      <trkpt lat="44.34965" lon="5.78231">
        <ele>734.3</ele>
        <time>2024-04-25T09:28:22Z</time>
      </trkpt>
      <trkpt lat="44.34958" lon="5.78241">
        <ele>734.5</ele>
        <time>2024-04-25T09:28:26Z</time>
      </trkpt>
      <trkpt lat="44.34953" lon="5.78253">
        <ele>734.6</ele>
        <time>2024-04-25T09:28:30Z</time>
      </trkpt>
      <trkpt lat="44.34951" lon="5.78266">
        <ele>734.6</ele>
        <time>2024-04-25T09:28:33Z</time>
      </trkpt>
      <trkpt lat="44.34949" lon="5.78283">
        <ele>734.6</ele>
        <time>2024-04-25T09:28:36Z</time>
      </trkpt>
      <trkpt lat="44.34948" lon="5.78301">
        <ele>734.7</ele>
        <time>2024-04-25T09:28:39Z</time>
      </trkpt>
      <trkpt lat="44.34949" lon="5.78316">
        <ele>734.9</ele>
        <time>2024-04-25T09:28:42Z</time>
      </trkpt>
      <trkpt lat="44.34947" lon="5.78331">
        <ele>735.3</ele>
        <time>2024-04-25T09:28:45Z</time>
      </trkpt>
      <trkpt lat="44.34941" lon="5.78342">
        <ele>735.8</ele>
        <time>2024-04-25T09:28:48Z</time>
      </trkpt>
      <trkpt lat="44.34933" lon="5.7835">
        <ele>736.6</ele>
        <time>2024-04-25T09:28:51Z</time>
      </trkpt>
      <trkpt lat="44.34929" lon="5.78362">
        <ele>738</ele>
        <time>2024-04-25T09:29:31Z</time>
      </trkpt>
      <trkpt lat="44.34931" lon="5.78376">
        <ele>739.7</ele>
        <time>2024-04-25T09:29:36Z</time>
      </trkpt>
      <trkpt lat="44.3493" lon="5.78389">
        <ele>741.7</ele>
        <time>2024-04-25T09:29:44Z</time>
      </trkpt>
      <trkpt lat="44.3493" lon="5.78402">
        <ele>743.4</ele>
        <time>2024-04-25T09:30:04Z</time>
      </trkpt>
      <trkpt lat="44.34935" lon="5.78416">
        <ele>745.3</ele>
        <time>2024-04-25T09:30:21Z</time>
      </trkpt>
      <trkpt lat="44.34939" lon="5.7843">
        <ele>745.7</ele>
        <time>2024-04-25T09:31:32Z</time>
      </trkpt>
      <trkpt lat="44.3494" lon="5.78446">
        <ele>746.9</ele>
        <time>2024-04-25T09:31:45Z</time>
      </trkpt>
      <trkpt lat="44.34937" lon="5.7846">
        <ele>748.4</ele>
        <time>2024-04-25T09:31:59Z</time>
      </trkpt>
      <trkpt lat="44.34941" lon="5.78472">
        <ele>749.7</ele>
        <time>2024-04-25T09:32:13Z</time>
      </trkpt>
      <trkpt lat="44.3495" lon="5.78479">
        <ele>749.9</ele>
        <time>2024-04-25T09:32:20Z</time>
      </trkpt>
      <trkpt lat="44.3496" lon="5.78486">
        <ele>750</ele>
        <time>2024-04-25T09:32:28Z</time>
      </trkpt>
      <trkpt lat="44.34968" lon="5.78494">
        <ele>749.5</ele>
        <time>2024-04-25T09:32:37Z</time>
      </trkpt>
      <trkpt lat="44.34975" lon="5.78504">
        <ele>750.7</ele>
        <time>2024-04-25T09:32:46Z</time>
      </trkpt>
      <trkpt lat="44.34983" lon="5.78511">
        <ele>750.2</ele>
        <time>2024-04-25T09:32:52Z</time>
      </trkpt>
      <trkpt lat="44.34992" lon="5.78519">
        <ele>749.8</ele>
        <time>2024-04-25T09:33:02Z</time>
      </trkpt>
      <trkpt lat="44.35002" lon="5.78525">
        <ele>748.2</ele>
        <time>2024-04-25T09:33:21Z</time>
      </trkpt>
      <trkpt lat="44.3501" lon="5.78518">
        <ele>746.3</ele>
        <time>2024-04-25T09:33:45Z</time>
      </trkpt>
      <trkpt lat="44.35013" lon="5.78506">
        <ele>745.7</ele>
        <time>2024-04-25T09:33:53Z</time>
      </trkpt>
      <trkpt lat="44.35013" lon="5.78492">
        <ele>745.2</ele>
        <time>2024-04-25T09:33:59Z</time>
      </trkpt>
      <trkpt lat="44.35013" lon="5.78478">
        <ele>744.8</ele>
        <time>2024-04-25T09:34:04Z</time>
      </trkpt>
      <trkpt lat="44.35015" lon="5.78465">
        <ele>744.5</ele>
        <time>2024-04-25T09:34:08Z</time>
      </trkpt>
      <trkpt lat="44.35018" lon="5.78451">
        <ele>744.2</ele>
        <time>2024-04-25T09:34:13Z</time>
      </trkpt>
      <trkpt lat="44.35023" lon="5.78438">
        <ele>744.1</ele>
        <time>2024-04-25T09:34:18Z</time>
      </trkpt>
      <trkpt lat="44.35028" lon="5.78424">
        <ele>744</ele>
        <time>2024-04-25T09:34:23Z</time>
      </trkpt>
      <trkpt lat="44.35033" lon="5.7841">
        <ele>743.9</ele>
        <time>2024-04-25T09:34:30Z</time>
      </trkpt>
      <trkpt lat="44.35036" lon="5.78395">
        <ele>743.8</ele>
        <time>2024-04-25T09:34:36Z</time>
      </trkpt>
      <trkpt lat="44.35037" lon="5.78381">
        <ele>743.6</ele>
        <time>2024-04-25T09:34:41Z</time>
      </trkpt>
      <trkpt lat="44.35041" lon="5.78367">
        <ele>743.4</ele>
        <time>2024-04-25T09:34:46Z</time>
      </trkpt>
      <trkpt lat="44.35043" lon="5.78353">
        <ele>742.9</ele>
        <time>2024-04-25T09:34:51Z</time>
      </trkpt>
      <trkpt lat="44.35046" lon="5.78338">
        <ele>743.1</ele>
        <time>2024-04-25T09:34:55Z</time>
      </trkpt>
      <trkpt lat="44.35048" lon="5.78322">
        <ele>743.4</ele>
        <time>2024-04-25T09:34:59Z</time>
      </trkpt>
      <trkpt lat="44.35048" lon="5.78308">
        <ele>743.4</ele>
        <time>2024-04-25T09:35:02Z</time>
      </trkpt>
      <trkpt lat="44.35047" lon="5.78295">
        <ele>743</ele>
        <time>2024-04-25T09:35:05Z</time>
      </trkpt>
      <trkpt lat="44.35049" lon="5.78281">
        <ele>742.2</ele>
        <time>2024-04-25T09:35:08Z</time>
      </trkpt>
      <trkpt lat="44.35054" lon="5.78267">
        <ele>741.1</ele>
        <time>2024-04-25T09:35:11Z</time>
      </trkpt>
      <trkpt lat="44.3506" lon="5.78253">
        <ele>740.1</ele>
        <time>2024-04-25T09:35:14Z</time>
      </trkpt>
      <trkpt lat="44.35064" lon="5.78239">
        <ele>739.2</ele>
        <time>2024-04-25T09:35:17Z</time>
      </trkpt>
      <trkpt lat="44.35064" lon="5.78226">
        <ele>738.9</ele>
        <time>2024-04-25T09:35:20Z</time>
      </trkpt>
      <trkpt lat="44.35059" lon="5.78211">
        <ele>738.5</ele>
        <time>2024-04-25T09:35:23Z</time>
      </trkpt>
      <trkpt lat="44.35054" lon="5.782">
        <ele>738.2</ele>
        <time>2024-04-25T09:35:26Z</time>
      </trkpt>
      <trkpt lat="44.35052" lon="5.78187">
        <ele>738</ele>
        <time>2024-04-25T09:35:32Z</time>
      </trkpt>
      <trkpt lat="44.35061" lon="5.78189">
        <ele>737.7</ele>
        <time>2024-04-25T09:35:38Z</time>
      </trkpt>
      <trkpt lat="44.35051" lon="5.78182">
        <ele>737</ele>
        <time>2024-04-25T09:36:25Z</time>
      </trkpt>
      <trkpt lat="44.35058" lon="5.7819">
        <ele>735.8</ele>
        <time>2024-04-25T09:38:06Z</time>
      </trkpt>
      <trkpt lat="44.35068" lon="5.7819">
        <ele>734.9</ele>
        <time>2024-04-25T09:38:36Z</time>
      </trkpt>
      <trkpt lat="44.35058" lon="5.78194">
        <ele>734.3</ele>
        <time>2024-04-25T09:38:45Z</time>
      </trkpt>
      <trkpt lat="44.35049" lon="5.78189">
        <ele>733.8</ele>
        <time>2024-04-25T09:38:51Z</time>
      </trkpt>
      <trkpt lat="44.35045" lon="5.78177">
        <ele>733.3</ele>
        <time>2024-04-25T09:38:55Z</time>
      </trkpt>
      <trkpt lat="44.35041" lon="5.78163">
        <ele>732.8</ele>
        <time>2024-04-25T09:38:59Z</time>
      </trkpt>
      <trkpt lat="44.35042" lon="5.78149">
        <ele>731</ele>
        <time>2024-04-25T09:39:04Z</time>
      </trkpt>
      <trkpt lat="44.35046" lon="5.78136">
        <ele>717.6</ele>
        <time>2024-04-25T09:41:23Z</time>
      </trkpt>
      <trkpt lat="44.35053" lon="5.78128">
        <ele>716.6</ele>
        <time>2024-04-25T09:41:26Z</time>
      </trkpt>
      <trkpt lat="44.35061" lon="5.78119">
        <ele>715.1</ele>
        <time>2024-04-25T09:41:29Z</time>
      </trkpt>
      <trkpt lat="44.35072" lon="5.78111">
        <ele>714.2</ele>
        <time>2024-04-25T09:41:32Z</time>
      </trkpt>
      <trkpt lat="44.35083" lon="5.78109">
        <ele>715.4</ele>
        <time>2024-04-25T09:41:35Z</time>
      </trkpt>
      <trkpt lat="44.35094" lon="5.7811">
        <ele>715.9</ele>
        <time>2024-04-25T09:41:38Z</time>
      </trkpt>
      <trkpt lat="44.35104" lon="5.78112">
        <ele>715.9</ele>
        <time>2024-04-25T09:41:42Z</time>
      </trkpt>
      <trkpt lat="44.35113" lon="5.78114">
        <ele>716.3</ele>
        <time>2024-04-25T09:41:47Z</time>
      </trkpt>
      <trkpt lat="44.35123" lon="5.78112">
        <ele>715.1</ele>
        <time>2024-04-25T09:41:51Z</time>
      </trkpt>
      <trkpt lat="44.35133" lon="5.78109">
        <ele>713.9</ele>
        <time>2024-04-25T09:41:54Z</time>
      </trkpt>
      <trkpt lat="44.35142" lon="5.78108">
        <ele>712.8</ele>
        <time>2024-04-25T09:41:57Z</time>
      </trkpt>
      <trkpt lat="44.35152" lon="5.78109">
        <ele>711.6</ele>
        <time>2024-04-25T09:42:00Z</time>
      </trkpt>
      <trkpt lat="44.35163" lon="5.78108">
        <ele>710.4</ele>
        <time>2024-04-25T09:42:04Z</time>
      </trkpt>
      <trkpt lat="44.35172" lon="5.78107">
        <ele>709.3</ele>
        <time>2024-04-25T09:42:11Z</time>
      </trkpt>
      <trkpt lat="44.3518" lon="5.78097">
        <ele>708.1</ele>
        <time>2024-04-25T09:42:34Z</time>
      </trkpt>
      <trkpt lat="44.35188" lon="5.78089">
        <ele>706.9</ele>
        <time>2024-04-25T09:42:38Z</time>
      </trkpt>
      <trkpt lat="44.35199" lon="5.78092">
        <ele>705</ele>
        <time>2024-04-25T09:43:00Z</time>
      </trkpt>
      <trkpt lat="44.35208" lon="5.78084">
        <ele>701.6</ele>
        <time>2024-04-25T09:44:11Z</time>
      </trkpt>
      <trkpt lat="44.3522" lon="5.78076">
        <ele>700</ele>
        <time>2024-04-25T09:44:15Z</time>
      </trkpt>
      <trkpt lat="44.35228" lon="5.78068">
        <ele>698.8</ele>
        <time>2024-04-25T09:44:18Z</time>
      </trkpt>
      <trkpt lat="44.35227" lon="5.78053">
        <ele>697.4</ele>
        <time>2024-04-25T09:44:34Z</time>
      </trkpt>
      <trkpt lat="44.35221" lon="5.78043">
        <ele>696.2</ele>
        <time>2024-04-25T09:44:45Z</time>
      </trkpt>
      <trkpt lat="44.3521" lon="5.78042">
        <ele>695</ele>
        <time>2024-04-25T09:44:49Z</time>
      </trkpt>
      <trkpt lat="44.352" lon="5.7804">
        <ele>693.8</ele>
        <time>2024-04-25T09:44:53Z</time>
      </trkpt>
      <trkpt lat="44.35191" lon="5.78038">
        <ele>692.7</ele>
        <time>2024-04-25T09:44:58Z</time>
      </trkpt>
      <trkpt lat="44.35181" lon="5.78034">
        <ele>691.5</ele>
        <time>2024-04-25T09:45:01Z</time>
      </trkpt>
      <trkpt lat="44.35172" lon="5.7803">
        <ele>690.4</ele>
        <time>2024-04-25T09:45:04Z</time>
      </trkpt>
      <trkpt lat="44.35164" lon="5.78024">
        <ele>689.3</ele>
        <time>2024-04-25T09:45:07Z</time>
      </trkpt>
      <trkpt lat="44.35154" lon="5.78015">
        <ele>687.9</ele>
        <time>2024-04-25T09:45:11Z</time>
      </trkpt>
      <trkpt lat="44.35146" lon="5.78008">
        <ele>686.9</ele>
        <time>2024-04-25T09:45:14Z</time>
      </trkpt>
      <trkpt lat="44.35136" lon="5.78002">
        <ele>685.6</ele>
        <time>2024-04-25T09:45:19Z</time>
      </trkpt>
      <trkpt lat="44.35127" lon="5.77993">
        <ele>684.2</ele>
        <time>2024-04-25T09:45:24Z</time>
      </trkpt>
      <trkpt lat="44.35119" lon="5.77984">
        <ele>683</ele>
        <time>2024-04-25T09:45:28Z</time>
      </trkpt>
      <trkpt lat="44.35112" lon="5.77973">
        <ele>681.8</ele>
        <time>2024-04-25T09:45:33Z</time>
      </trkpt>
      <trkpt lat="44.35103" lon="5.77964">
        <ele>680.5</ele>
        <time>2024-04-25T09:45:39Z</time>
      </trkpt>
      <trkpt lat="44.35097" lon="5.77951">
        <ele>679.3</ele>
        <time>2024-04-25T09:45:44Z</time>
      </trkpt>
      <trkpt lat="44.35095" lon="5.77938">
        <ele>678.1</ele>
        <time>2024-04-25T09:45:50Z</time>
      </trkpt>
      <trkpt lat="44.35098" lon="5.77923">
        <ele>676.7</ele>
        <time>2024-04-25T09:46:26Z</time>
      </trkpt>
      <trkpt lat="44.35105" lon="5.77907">
        <ele>675.2</ele>
        <time>2024-04-25T09:46:29Z</time>
      </trkpt>
      <trkpt lat="44.35111" lon="5.7789">
        <ele>673.7</ele>
        <time>2024-04-25T09:46:32Z</time>
      </trkpt>
      <trkpt lat="44.35115" lon="5.77877">
        <ele>671.5</ele>
        <time>2024-04-25T09:46:35Z</time>
      </trkpt>
      <trkpt lat="44.35116" lon="5.77862">
        <ele>667.8</ele>
        <time>2024-04-25T09:46:40Z</time>
      </trkpt>
      <trkpt lat="44.35107" lon="5.77855">
        <ele>664.9</ele>
        <time>2024-04-25T09:46:58Z</time>
      </trkpt>
      <trkpt lat="44.351" lon="5.77847">
        <ele>664</ele>
        <time>2024-04-25T09:47:03Z</time>
      </trkpt>
      <trkpt lat="44.35092" lon="5.7784">
        <ele>662.5</ele>
        <time>2024-04-25T09:47:09Z</time>
      </trkpt>
      <trkpt lat="44.35086" lon="5.77829">
        <ele>660.8</ele>
        <time>2024-04-25T09:47:13Z</time>
      </trkpt>
      <trkpt lat="44.35081" lon="5.77818">
        <ele>659.1</ele>
        <time>2024-04-25T09:47:20Z</time>
      </trkpt>
      <trkpt lat="44.35078" lon="5.77806">
        <ele>656.9</ele>
        <time>2024-04-25T09:47:29Z</time>
      </trkpt>
      <trkpt lat="44.35073" lon="5.77794">
        <ele>653.7</ele>
        <time>2024-04-25T09:47:50Z</time>
      </trkpt>
      <trkpt lat="44.35063" lon="5.77783">
        <ele>647.5</ele>
        <time>2024-04-25T09:48:43Z</time>
      </trkpt>
      <trkpt lat="44.35053" lon="5.77779">
        <ele>647</ele>
        <time>2024-04-25T09:48:46Z</time>
      </trkpt>
      <trkpt lat="44.35043" lon="5.77767">
        <ele>645.6</ele>
        <time>2024-04-25T09:48:49Z</time>
      </trkpt>
      <trkpt lat="44.35037" lon="5.77756">
        <ele>644</ele>
        <time>2024-04-25T09:48:52Z</time>
      </trkpt>
      <trkpt lat="44.35027" lon="5.77748">
        <ele>643.1</ele>
        <time>2024-04-25T09:48:56Z</time>
      </trkpt>
      <trkpt lat="44.35023" lon="5.77735">
        <ele>641.9</ele>
        <time>2024-04-25T09:48:59Z</time>
      </trkpt>
      <trkpt lat="44.35023" lon="5.77721">
        <ele>639.6</ele>
        <time>2024-04-25T09:49:02Z</time>
      </trkpt>
      <trkpt lat="44.35017" lon="5.77705">
        <ele>637.8</ele>
        <time>2024-04-25T09:49:05Z</time>
      </trkpt>
      <trkpt lat="44.35014" lon="5.77693">
        <ele>636.8</ele>
        <time>2024-04-25T09:49:07Z</time>
      </trkpt>
      <trkpt lat="44.35008" lon="5.77682">
        <ele>635.1</ele>
        <time>2024-04-25T09:49:10Z</time>
      </trkpt>
      <trkpt lat="44.35001" lon="5.77671">
        <ele>634</ele>
        <time>2024-04-25T09:49:13Z</time>
      </trkpt>
      <trkpt lat="44.34995" lon="5.77657">
        <ele>632</ele>
        <time>2024-04-25T09:49:16Z</time>
      </trkpt>
      <trkpt lat="44.34992" lon="5.77643">
        <ele>630.5</ele>
        <time>2024-04-25T09:49:18Z</time>
      </trkpt>
      <trkpt lat="44.3499" lon="5.7763">
        <ele>629</ele>
        <time>2024-04-25T09:49:21Z</time>
      </trkpt>
      <trkpt lat="44.34983" lon="5.77622">
        <ele>628</ele>
        <time>2024-04-25T09:49:24Z</time>
      </trkpt>
      <trkpt lat="44.34974" lon="5.77613">
        <ele>626.8</ele>
        <time>2024-04-25T09:49:29Z</time>
      </trkpt>
      <trkpt lat="44.34967" lon="5.77602">
        <ele>625.4</ele>
        <time>2024-04-25T09:49:35Z</time>
      </trkpt>
      <trkpt lat="44.34958" lon="5.77596">
        <ele>624.9</ele>
        <time>2024-04-25T09:49:39Z</time>
      </trkpt>
      <trkpt lat="44.34951" lon="5.77587">
        <ele>624.2</ele>
        <time>2024-04-25T09:49:48Z</time>
      </trkpt>
      <trkpt lat="44.34946" lon="5.77573">
        <ele>623.7</ele>
        <time>2024-04-25T09:49:54Z</time>
      </trkpt>
      <trkpt lat="44.34939" lon="5.77565">
        <ele>624.1</ele>
        <time>2024-04-25T09:50:00Z</time>
      </trkpt>
      <trkpt lat="44.34933" lon="5.77553">
        <ele>623.9</ele>
        <time>2024-04-25T09:50:04Z</time>
      </trkpt>
      <trkpt lat="44.34923" lon="5.7755">
        <ele>623</ele>
        <time>2024-04-25T09:50:08Z</time>
      </trkpt>
      <trkpt lat="44.34913" lon="5.7755">
        <ele>622.1</ele>
        <time>2024-04-25T09:50:11Z</time>
      </trkpt>
      <trkpt lat="44.34908" lon="5.77538">
        <ele>621.3</ele>
        <time>2024-04-25T09:50:15Z</time>
      </trkpt>
      <trkpt lat="44.349" lon="5.7753">
        <ele>620.4</ele>
        <time>2024-04-25T09:50:18Z</time>
      </trkpt>
      <trkpt lat="44.34891" lon="5.77523">
        <ele>619.6</ele>
        <time>2024-04-25T09:50:21Z</time>
      </trkpt>
      <trkpt lat="44.34882" lon="5.77513">
        <ele>618.7</ele>
        <time>2024-04-25T09:50:26Z</time>
      </trkpt>
      <trkpt lat="44.34871" lon="5.77507">
        <ele>617.9</ele>
        <time>2024-04-25T09:50:31Z</time>
      </trkpt>
      <trkpt lat="44.34861" lon="5.77498">
        <ele>617.1</ele>
        <time>2024-04-25T09:50:35Z</time>
      </trkpt>
      <trkpt lat="44.34854" lon="5.77485">
        <ele>616.3</ele>
        <time>2024-04-25T09:50:39Z</time>
      </trkpt>
      <trkpt lat="44.34845" lon="5.77483">
        <ele>615.5</ele>
        <time>2024-04-25T09:50:42Z</time>
      </trkpt>
      <trkpt lat="44.34832" lon="5.77484">
        <ele>614.6</ele>
        <time>2024-04-25T09:50:45Z</time>
      </trkpt>
      <trkpt lat="44.3482" lon="5.77485">
        <ele>613.8</ele>
        <time>2024-04-25T09:50:48Z</time>
      </trkpt>
      <trkpt lat="44.34808" lon="5.77484">
        <ele>613.1</ele>
        <time>2024-04-25T09:50:51Z</time>
      </trkpt>
      <trkpt lat="44.34799" lon="5.77483">
        <ele>612.6</ele>
        <time>2024-04-25T09:50:53Z</time>
      </trkpt>
      <trkpt lat="44.34788" lon="5.77476">
        <ele>612</ele>
        <time>2024-04-25T09:50:56Z</time>
      </trkpt>
      <trkpt lat="44.34778" lon="5.77472">
        <ele>611.6</ele>
        <time>2024-04-25T09:51:06Z</time>
      </trkpt>
      <trkpt lat="44.3477" lon="5.77465">
        <ele>611.3</ele>
        <time>2024-04-25T09:51:21Z</time>
      </trkpt>
      <trkpt lat="44.34762" lon="5.77457">
        <ele>611.1</ele>
        <time>2024-04-25T09:51:26Z</time>
      </trkpt>
      <trkpt lat="44.34753" lon="5.77452">
        <ele>611.1</ele>
        <time>2024-04-25T09:51:29Z</time>
      </trkpt>
      <trkpt lat="44.34743" lon="5.77447">
        <ele>611</ele>
        <time>2024-04-25T09:51:35Z</time>
      </trkpt>
      <trkpt lat="44.34733" lon="5.77444">
        <ele>610.9</ele>
        <time>2024-04-25T09:51:42Z</time>
      </trkpt>
      <trkpt lat="44.34725" lon="5.77437">
        <ele>610.7</ele>
        <time>2024-04-25T09:53:31Z</time>
      </trkpt>
      <trkpt lat="44.34716" lon="5.77436">
        <ele>610.5</ele>
        <time>2024-04-25T09:53:45Z</time>
      </trkpt>
      <trkpt lat="44.34707" lon="5.77438">
        <ele>610.2</ele>
        <time>2024-04-25T09:53:49Z</time>
      </trkpt>
      <trkpt lat="44.34697" lon="5.77439">
        <ele>609.6</ele>
        <time>2024-04-25T09:53:52Z</time>
      </trkpt>
      <trkpt lat="44.34685" lon="5.77438">
        <ele>608.8</ele>
        <time>2024-04-25T09:53:55Z</time>
      </trkpt>
      <trkpt lat="44.34672" lon="5.77435">
        <ele>607.7</ele>
        <time>2024-04-25T09:53:58Z</time>
      </trkpt>
      <trkpt lat="44.34663" lon="5.77432">
        <ele>607</ele>
        <time>2024-04-25T09:54:00Z</time>
      </trkpt>
      <trkpt lat="44.34653" lon="5.77428">
        <ele>605.9</ele>
        <time>2024-04-25T09:54:02Z</time>
      </trkpt>
      <trkpt lat="44.34641" lon="5.77426">
        <ele>604.8</ele>
        <time>2024-04-25T09:54:04Z</time>
      </trkpt>
      <trkpt lat="44.34629" lon="5.77428">
        <ele>603.6</ele>
        <time>2024-04-25T09:54:06Z</time>
      </trkpt>
      <trkpt lat="44.34616" lon="5.77436">
        <ele>602.6</ele>
        <time>2024-04-25T09:54:08Z</time>
      </trkpt>
      <trkpt lat="44.34605" lon="5.77444">
        <ele>601.9</ele>
        <time>2024-04-25T09:54:10Z</time>
      </trkpt>
      <trkpt lat="44.34598" lon="5.77453">
        <ele>601.6</ele>
        <time>2024-04-25T09:54:12Z</time>
      </trkpt>
      <trkpt lat="44.34605" lon="5.77463">
        <ele>601.7</ele>
        <time>2024-04-25T09:54:19Z</time>
      </trkpt>
      <trkpt lat="44.34614" lon="5.77467">
        <ele>602.8</ele>
        <time>2024-04-25T10:01:16Z</time>
      </trkpt>
      <trkpt lat="44.34623" lon="5.77474">
        <ele>603.5</ele>
        <time>2024-04-25T10:01:21Z</time>
      </trkpt>
      <trkpt lat="44.3463" lon="5.77485">
        <ele>604.4</ele>
        <time>2024-04-25T10:01:28Z</time>
      </trkpt>
      <trkpt lat="44.34636" lon="5.77497">
        <ele>605.5</ele>
        <time>2024-04-25T10:01:35Z</time>
      </trkpt>
      <trkpt lat="44.34639" lon="5.7751">
        <ele>606.6</ele>
        <time>2024-04-25T10:01:44Z</time>
      </trkpt>
      <trkpt lat="44.34644" lon="5.77525">
        <ele>608</ele>
        <time>2024-04-25T10:01:53Z</time>
      </trkpt>
      <trkpt lat="44.34645" lon="5.77539">
        <ele>609.2</ele>
        <time>2024-04-25T10:02:01Z</time>
      </trkpt>
      <trkpt lat="44.34638" lon="5.7755">
        <ele>610.8</ele>
        <time>2024-04-25T10:02:09Z</time>
      </trkpt>
      <trkpt lat="44.34628" lon="5.77553">
        <ele>612.2</ele>
        <time>2024-04-25T10:02:18Z</time>
      </trkpt>
      <trkpt lat="44.34618" lon="5.77556">
        <ele>613.4</ele>
        <time>2024-04-25T10:02:26Z</time>
      </trkpt>
      <trkpt lat="44.34608" lon="5.77561">
        <ele>614.7</ele>
        <time>2024-04-25T10:02:37Z</time>
      </trkpt>
      <trkpt lat="44.34598" lon="5.77563">
        <ele>615.9</ele>
        <time>2024-04-25T10:02:45Z</time>
      </trkpt>
      <trkpt lat="44.34589" lon="5.77568">
        <ele>616.9</ele>
        <time>2024-04-25T10:02:54Z</time>
      </trkpt>
      <trkpt lat="44.34579" lon="5.77569">
        <ele>618.1</ele>
        <time>2024-04-25T10:03:02Z</time>
      </trkpt>
      <trkpt lat="44.34569" lon="5.7757">
        <ele>619.2</ele>
        <time>2024-04-25T10:03:10Z</time>
      </trkpt>
      <trkpt lat="44.3456" lon="5.77573">
        <ele>620.2</ele>
        <time>2024-04-25T10:03:18Z</time>
      </trkpt>
      <trkpt lat="44.34551" lon="5.77577">
        <ele>621.2</ele>
        <time>2024-04-25T10:03:26Z</time>
      </trkpt>
      <trkpt lat="44.34541" lon="5.77582">
        <ele>622.2</ele>
        <time>2024-04-25T10:03:34Z</time>
      </trkpt>
      <trkpt lat="44.34532" lon="5.77585">
        <ele>623.1</ele>
        <time>2024-04-25T10:03:41Z</time>
      </trkpt>
      <trkpt lat="44.34522" lon="5.77588">
        <ele>624.2</ele>
        <time>2024-04-25T10:03:49Z</time>
      </trkpt>
      <trkpt lat="44.34512" lon="5.77593">
        <ele>625.1</ele>
        <time>2024-04-25T10:03:57Z</time>
      </trkpt>
      <trkpt lat="44.34503" lon="5.77598">
        <ele>625.9</ele>
        <time>2024-04-25T10:04:05Z</time>
      </trkpt>
      <trkpt lat="44.34493" lon="5.77602">
        <ele>626.9</ele>
        <time>2024-04-25T10:04:13Z</time>
      </trkpt>
      <trkpt lat="44.34483" lon="5.77605">
        <ele>627.8</ele>
        <time>2024-04-25T10:04:21Z</time>
      </trkpt>
      <trkpt lat="44.34471" lon="5.77604">
        <ele>628.8</ele>
        <time>2024-04-25T10:04:29Z</time>
      </trkpt>
      <trkpt lat="44.34461" lon="5.77602">
        <ele>629.7</ele>
        <time>2024-04-25T10:04:37Z</time>
      </trkpt>
      <trkpt lat="44.34452" lon="5.77601">
        <ele>630.7</ele>
        <time>2024-04-25T10:04:45Z</time>
      </trkpt>
      <trkpt lat="44.34443" lon="5.776">
        <ele>631.6</ele>
        <time>2024-04-25T10:06:05Z</time>
      </trkpt>
      <trkpt lat="44.34431" lon="5.776">
        <ele>633</ele>
        <time>2024-04-25T10:06:13Z</time>
      </trkpt>
      <trkpt lat="44.3442" lon="5.77599">
        <ele>634.2</ele>
        <time>2024-04-25T10:06:21Z</time>
      </trkpt>
      <trkpt lat="44.34409" lon="5.77602">
        <ele>635.5</ele>
        <time>2024-04-25T10:06:29Z</time>
      </trkpt>
      <trkpt lat="44.34401" lon="5.77609">
        <ele>636.6</ele>
        <time>2024-04-25T10:06:37Z</time>
      </trkpt>
      <trkpt lat="44.344" lon="5.77623">
        <ele>637.8</ele>
        <time>2024-04-25T10:06:45Z</time>
      </trkpt>
      <trkpt lat="44.34409" lon="5.77624">
        <ele>640.4</ele>
        <time>2024-04-25T10:13:58Z</time>
      </trkpt>
      <trkpt lat="44.34416" lon="5.77633">
        <ele>643.8</ele>
        <time>2024-04-25T10:30:56Z</time>
      </trkpt>
      <trkpt lat="44.34425" lon="5.77634">
        <ele>644.7</ele>
        <time>2024-04-25T10:31:00Z</time>
      </trkpt>
      <trkpt lat="44.34437" lon="5.77637">
        <ele>645.8</ele>
        <time>2024-04-25T10:31:08Z</time>
      </trkpt>
      <trkpt lat="44.34447" lon="5.77641">
        <ele>646.9</ele>
        <time>2024-04-25T10:31:16Z</time>
      </trkpt>
      <trkpt lat="44.34458" lon="5.77645">
        <ele>648.1</ele>
        <time>2024-04-25T10:31:24Z</time>
      </trkpt>
      <trkpt lat="44.34468" lon="5.7765">
        <ele>649.1</ele>
        <time>2024-04-25T10:31:32Z</time>
      </trkpt>
      <trkpt lat="44.34477" lon="5.77652">
        <ele>649.8</ele>
        <time>2024-04-25T10:31:39Z</time>
      </trkpt>
      <trkpt lat="44.34488" lon="5.77653">
        <ele>650.6</ele>
        <time>2024-04-25T10:31:47Z</time>
      </trkpt>
      <trkpt lat="44.34498" lon="5.77652">
        <ele>651.5</ele>
        <time>2024-04-25T10:31:55Z</time>
      </trkpt>
      <trkpt lat="44.34507" lon="5.77651">
        <ele>652.4</ele>
        <time>2024-04-25T10:32:01Z</time>
      </trkpt>
      <trkpt lat="44.34517" lon="5.77652">
        <ele>653.5</ele>
        <time>2024-04-25T10:32:08Z</time>
      </trkpt>
      <trkpt lat="44.34526" lon="5.7766">
        <ele>654.6</ele>
        <time>2024-04-25T10:32:16Z</time>
      </trkpt>
      <trkpt lat="44.34533" lon="5.7767">
        <ele>655.6</ele>
        <time>2024-04-25T10:32:24Z</time>
      </trkpt>
      <trkpt lat="44.34539" lon="5.77683">
        <ele>656.7</ele>
        <time>2024-04-25T10:32:32Z</time>
      </trkpt>
      <trkpt lat="44.34541" lon="5.77697">
        <ele>657.7</ele>
        <time>2024-04-25T10:32:40Z</time>
      </trkpt>
      <trkpt lat="44.34543" lon="5.77712">
        <ele>658.7</ele>
        <time>2024-04-25T10:32:48Z</time>
      </trkpt>
      <trkpt lat="44.34544" lon="5.77726">
        <ele>659.7</ele>
        <time>2024-04-25T10:32:56Z</time>
      </trkpt>
      <trkpt lat="44.34548" lon="5.7774">
        <ele>660.9</ele>
        <time>2024-04-25T10:33:04Z</time>
      </trkpt>
      <trkpt lat="44.34554" lon="5.77753">
        <ele>662</ele>
        <time>2024-04-25T10:33:12Z</time>
      </trkpt>
      <trkpt lat="44.34562" lon="5.77762">
        <ele>663.1</ele>
        <time>2024-04-25T10:33:20Z</time>
      </trkpt>
      <trkpt lat="44.34569" lon="5.77771">
        <ele>664.1</ele>
        <time>2024-04-25T10:33:28Z</time>
      </trkpt>
      <trkpt lat="44.34578" lon="5.7778">
        <ele>665.3</ele>
        <time>2024-04-25T10:33:38Z</time>
      </trkpt>
      <trkpt lat="44.34586" lon="5.77788">
        <ele>666.4</ele>
        <time>2024-04-25T10:33:46Z</time>
      </trkpt>
      <trkpt lat="44.34594" lon="5.77799">
        <ele>667.8</ele>
        <time>2024-04-25T10:33:56Z</time>
      </trkpt>
      <trkpt lat="44.34601" lon="5.77809">
        <ele>669</ele>
        <time>2024-04-25T10:34:04Z</time>
      </trkpt>
      <trkpt lat="44.3461" lon="5.77817">
        <ele>670.2</ele>
        <time>2024-04-25T10:34:12Z</time>
      </trkpt>
      <trkpt lat="44.34618" lon="5.77823">
        <ele>671.2</ele>
        <time>2024-04-25T10:34:20Z</time>
      </trkpt>
      <trkpt lat="44.34627" lon="5.77826">
        <ele>672</ele>
        <time>2024-04-25T10:34:27Z</time>
      </trkpt>
      <trkpt lat="44.34636" lon="5.77829">
        <ele>672.8</ele>
        <time>2024-04-25T10:34:35Z</time>
      </trkpt>
      <trkpt lat="44.34647" lon="5.77832">
        <ele>673.8</ele>
        <time>2024-04-25T10:34:45Z</time>
      </trkpt>
      <trkpt lat="44.34655" lon="5.77838">
        <ele>674.5</ele>
        <time>2024-04-25T10:34:53Z</time>
      </trkpt>
      <trkpt lat="44.34664" lon="5.77843">
        <ele>675.2</ele>
        <time>2024-04-25T10:35:00Z</time>
      </trkpt>
      <trkpt lat="44.34673" lon="5.77846">
        <ele>676</ele>
        <time>2024-04-25T10:35:06Z</time>
      </trkpt>
      <trkpt lat="44.34681" lon="5.77857">
        <ele>676.9</ele>
        <time>2024-04-25T10:35:14Z</time>
      </trkpt>
      <trkpt lat="44.34687" lon="5.77869">
        <ele>677.8</ele>
        <time>2024-04-25T10:35:22Z</time>
      </trkpt>
      <trkpt lat="44.34692" lon="5.77882">
        <ele>678.7</ele>
        <time>2024-04-25T10:35:29Z</time>
      </trkpt>
      <trkpt lat="44.34697" lon="5.77893">
        <ele>679.6</ele>
        <time>2024-04-25T10:35:36Z</time>
      </trkpt>
      <trkpt lat="44.34703" lon="5.77905">
        <ele>680.5</ele>
        <time>2024-04-25T10:35:44Z</time>
      </trkpt>
      <trkpt lat="44.34707" lon="5.77918">
        <ele>681.3</ele>
        <time>2024-04-25T10:35:52Z</time>
      </trkpt>
      <trkpt lat="44.3471" lon="5.77933">
        <ele>682.3</ele>
        <time>2024-04-25T10:36:00Z</time>
      </trkpt>
      <trkpt lat="44.34712" lon="5.77949">
        <ele>683.5</ele>
        <time>2024-04-25T10:36:10Z</time>
      </trkpt>
      <trkpt lat="44.34714" lon="5.77962">
        <ele>684.4</ele>
        <time>2024-04-25T10:36:19Z</time>
      </trkpt>
      <trkpt lat="44.34717" lon="5.77975">
        <ele>685.3</ele>
        <time>2024-04-25T10:36:27Z</time>
      </trkpt>
      <trkpt lat="44.3472" lon="5.77989">
        <ele>686.3</ele>
        <time>2024-04-25T10:36:35Z</time>
      </trkpt>
      <trkpt lat="44.34725" lon="5.78003">
        <ele>687.3</ele>
        <time>2024-04-25T10:36:43Z</time>
      </trkpt>
      <trkpt lat="44.3473" lon="5.78016">
        <ele>688.3</ele>
        <time>2024-04-25T10:36:51Z</time>
      </trkpt>
      <trkpt lat="44.34733" lon="5.78028">
        <ele>689.2</ele>
        <time>2024-04-25T10:36:59Z</time>
      </trkpt>
      <trkpt lat="44.34741" lon="5.78039">
        <ele>690.2</ele>
        <time>2024-04-25T10:37:07Z</time>
      </trkpt>
      <trkpt lat="44.34749" lon="5.78048">
        <ele>691.1</ele>
        <time>2024-04-25T10:37:15Z</time>
      </trkpt>
      <trkpt lat="44.34758" lon="5.78057">
        <ele>692</ele>
        <time>2024-04-25T10:37:23Z</time>
      </trkpt>
      <trkpt lat="44.34765" lon="5.78067">
        <ele>692.9</ele>
        <time>2024-04-25T10:37:31Z</time>
      </trkpt>
      <trkpt lat="44.34773" lon="5.78076">
        <ele>693.7</ele>
        <time>2024-04-25T10:37:39Z</time>
      </trkpt>
      <trkpt lat="44.34781" lon="5.78084">
        <ele>694.6</ele>
        <time>2024-04-25T10:37:47Z</time>
      </trkpt>
      <trkpt lat="44.34788" lon="5.78093">
        <ele>695.6</ele>
        <time>2024-04-25T10:37:55Z</time>
      </trkpt>
      <trkpt lat="44.34797" lon="5.78103">
        <ele>696.7</ele>
        <time>2024-04-25T10:38:03Z</time>
      </trkpt>
      <trkpt lat="44.34806" lon="5.78106">
        <ele>697.7</ele>
        <time>2024-04-25T10:38:10Z</time>
      </trkpt>
      <trkpt lat="44.34815" lon="5.78105">
        <ele>698.7</ele>
        <time>2024-04-25T10:38:16Z</time>
      </trkpt>
      <trkpt lat="44.34824" lon="5.78104">
        <ele>699.5</ele>
        <time>2024-04-25T10:38:22Z</time>
      </trkpt>
      <trkpt lat="44.34835" lon="5.78104">
        <ele>700.5</ele>
        <time>2024-04-25T10:38:30Z</time>
      </trkpt>
      <trkpt lat="44.34845" lon="5.78109">
        <ele>701.5</ele>
        <time>2024-04-25T10:38:38Z</time>
      </trkpt>
      <trkpt lat="44.34854" lon="5.78117">
        <ele>702.4</ele>
        <time>2024-04-25T10:38:46Z</time>
      </trkpt>
      <trkpt lat="44.34861" lon="5.78127">
        <ele>703.3</ele>
        <time>2024-04-25T10:38:53Z</time>
      </trkpt>
      <trkpt lat="44.34869" lon="5.78134">
        <ele>704.2</ele>
        <time>2024-04-25T10:39:01Z</time>
      </trkpt>
      <trkpt lat="44.34867" lon="5.7812">
        <ele>705.4</ele>
        <time>2024-04-25T10:42:07Z</time>
      </trkpt>
      <trkpt lat="44.3486" lon="5.78108">
        <ele>706.1</ele>
        <time>2024-04-25T10:42:13Z</time>
      </trkpt>
      <trkpt lat="44.34853" lon="5.78099">
        <ele>706.7</ele>
        <time>2024-04-25T10:42:19Z</time>
      </trkpt>
      <trkpt lat="44.34846" lon="5.78091">
        <ele>707.4</ele>
        <time>2024-04-25T10:42:24Z</time>
      </trkpt>
      <trkpt lat="44.34838" lon="5.78084">
        <ele>708.4</ele>
        <time>2024-04-25T10:42:30Z</time>
      </trkpt>
      <trkpt lat="44.34832" lon="5.78074">
        <ele>709.4</ele>
        <time>2024-04-25T10:42:38Z</time>
      </trkpt>
      <trkpt lat="44.34829" lon="5.78062">
        <ele>710.4</ele>
        <time>2024-04-25T10:42:45Z</time>
      </trkpt>
      <trkpt lat="44.34837" lon="5.78054">
        <ele>711.2</ele>
        <time>2024-04-25T10:42:52Z</time>
      </trkpt>
      <trkpt lat="44.34845" lon="5.7806">
        <ele>711.7</ele>
        <time>2024-04-25T10:42:57Z</time>
      </trkpt>
      <trkpt lat="44.34853" lon="5.78067">
        <ele>712.3</ele>
        <time>2024-04-25T10:43:03Z</time>
      </trkpt>
      <trkpt lat="44.3486" lon="5.78075">
        <ele>712.9</ele>
        <time>2024-04-25T10:43:09Z</time>
      </trkpt>
      <trkpt lat="44.34869" lon="5.78085">
        <ele>713.7</ele>
        <time>2024-04-25T10:43:16Z</time>
      </trkpt>
      <trkpt lat="44.34877" lon="5.78095">
        <ele>714.6</ele>
        <time>2024-04-25T10:43:24Z</time>
      </trkpt>
      <trkpt lat="44.34885" lon="5.78104">
        <ele>715.4</ele>
        <time>2024-04-25T10:43:31Z</time>
      </trkpt>
      <trkpt lat="44.34894" lon="5.78113">
        <ele>715.9</ele>
        <time>2024-04-25T10:43:37Z</time>
      </trkpt>
      <trkpt lat="44.34904" lon="5.7812">
        <ele>716.3</ele>
        <time>2024-04-25T10:43:43Z</time>
      </trkpt>
      <trkpt lat="44.34913" lon="5.78128">
        <ele>716.7</ele>
        <time>2024-04-25T10:43:49Z</time>
      </trkpt>
      <trkpt lat="44.34922" lon="5.78136">
        <ele>717.2</ele>
        <time>2024-04-25T10:43:54Z</time>
      </trkpt>
      <trkpt lat="44.34932" lon="5.7814">
        <ele>718</ele>
        <time>2024-04-25T10:44:01Z</time>
      </trkpt>
      <trkpt lat="44.34943" lon="5.78139">
        <ele>719.2</ele>
        <time>2024-04-25T10:44:09Z</time>
      </trkpt>
      <trkpt lat="44.34953" lon="5.78139">
        <ele>720.4</ele>
        <time>2024-04-25T10:44:17Z</time>
      </trkpt>
      <trkpt lat="44.34963" lon="5.78141">
        <ele>721.7</ele>
        <time>2024-04-25T10:44:25Z</time>
      </trkpt>
      <trkpt lat="44.34972" lon="5.7814">
        <ele>723.1</ele>
        <time>2024-04-25T10:44:33Z</time>
      </trkpt>
      <trkpt lat="44.34981" lon="5.78141">
        <ele>724.3</ele>
        <time>2024-04-25T10:44:41Z</time>
      </trkpt>
      <trkpt lat="44.34993" lon="5.78141">
        <ele>726.1</ele>
        <time>2024-04-25T10:44:52Z</time>
      </trkpt>
      <trkpt lat="44.35004" lon="5.78142">
        <ele>727.7</ele>
        <time>2024-04-25T10:45:02Z</time>
      </trkpt>
      <trkpt lat="44.35014" lon="5.78146">
        <ele>729.1</ele>
        <time>2024-04-25T10:45:12Z</time>
      </trkpt>
      <trkpt lat="44.35023" lon="5.78151">
        <ele>730</ele>
        <time>2024-04-25T10:45:22Z</time>
      </trkpt>
      <trkpt lat="44.35034" lon="5.78153">
        <ele>731.6</ele>
        <time>2024-04-25T10:45:32Z</time>
      </trkpt>
      <trkpt lat="44.35041" lon="5.78164">
        <ele>733.2</ele>
        <time>2024-04-25T10:45:42Z</time>
      </trkpt>
      <trkpt lat="44.35046" lon="5.78176">
        <ele>734.5</ele>
        <time>2024-04-25T10:45:50Z</time>
      </trkpt>
      <trkpt lat="44.35049" lon="5.78188">
        <ele>735.8</ele>
        <time>2024-04-25T10:45:58Z</time>
      </trkpt>
      <trkpt lat="44.35053" lon="5.782">
        <ele>736.8</ele>
        <time>2024-04-25T10:46:06Z</time>
      </trkpt>
      <trkpt lat="44.35057" lon="5.78212">
        <ele>737.5</ele>
        <time>2024-04-25T10:46:12Z</time>
      </trkpt>
      <trkpt lat="44.35062" lon="5.78223">
        <ele>738.2</ele>
        <time>2024-04-25T10:46:18Z</time>
      </trkpt>
      <trkpt lat="44.35066" lon="5.78238">
        <ele>739.2</ele>
        <time>2024-04-25T10:46:26Z</time>
      </trkpt>
      <trkpt lat="44.35069" lon="5.78253">
        <ele>740.4</ele>
        <time>2024-04-25T10:46:34Z</time>
      </trkpt>
      <trkpt lat="44.35074" lon="5.78264">
        <ele>741.5</ele>
        <time>2024-04-25T10:46:41Z</time>
      </trkpt>
      <trkpt lat="44.35077" lon="5.78278">
        <ele>742.7</ele>
        <time>2024-04-25T10:46:49Z</time>
      </trkpt>
      <trkpt lat="44.35078" lon="5.78291">
        <ele>743.6</ele>
        <time>2024-04-25T10:46:57Z</time>
      </trkpt>
      <trkpt lat="44.35077" lon="5.78305">
        <ele>744.4</ele>
        <time>2024-04-25T10:48:41Z</time>
      </trkpt>
      <trkpt lat="44.35077" lon="5.78318">
        <ele>744.9</ele>
        <time>2024-04-25T10:48:45Z</time>
      </trkpt>
      <trkpt lat="44.35076" lon="5.78331">
        <ele>745.4</ele>
        <time>2024-04-25T10:48:50Z</time>
      </trkpt>
      <trkpt lat="44.35076" lon="5.78345">
        <ele>745.8</ele>
        <time>2024-04-25T10:48:55Z</time>
      </trkpt>
      <trkpt lat="44.35077" lon="5.78359">
        <ele>746.1</ele>
        <time>2024-04-25T10:49:00Z</time>
      </trkpt>
      <trkpt lat="44.35079" lon="5.78375">
        <ele>746.1</ele>
        <time>2024-04-25T10:49:05Z</time>
      </trkpt>
      <trkpt lat="44.35081" lon="5.78391">
        <ele>745.8</ele>
        <time>2024-04-25T10:49:10Z</time>
      </trkpt>
      <trkpt lat="44.35081" lon="5.78404">
        <ele>745.4</ele>
        <time>2024-04-25T10:49:15Z</time>
      </trkpt>
      <trkpt lat="44.35078" lon="5.78416">
        <ele>744.8</ele>
        <time>2024-04-25T10:49:43Z</time>
      </trkpt>
      <trkpt lat="44.35074" lon="5.78429">
        <ele>744.1</ele>
        <time>2024-04-25T10:49:46Z</time>
      </trkpt>
      <trkpt lat="44.35069" lon="5.78447">
        <ele>743.5</ele>
        <time>2024-04-25T10:49:49Z</time>
      </trkpt>
      <trkpt lat="44.35067" lon="5.7846">
        <ele>743.1</ele>
        <time>2024-04-25T10:49:52Z</time>
      </trkpt>
      <trkpt lat="44.35064" lon="5.78475">
        <ele>743</ele>
        <time>2024-04-25T10:50:40Z</time>
      </trkpt>
      <trkpt lat="44.35064" lon="5.7849">
        <ele>743.2</ele>
        <time>2024-04-25T10:50:44Z</time>
      </trkpt>
      <trkpt lat="44.35062" lon="5.78505">
        <ele>743.4</ele>
        <time>2024-04-25T10:50:48Z</time>
      </trkpt>
      <trkpt lat="44.35058" lon="5.78521">
        <ele>743.5</ele>
        <time>2024-04-25T10:50:52Z</time>
      </trkpt>
      <trkpt lat="44.35054" lon="5.78533">
        <ele>743.5</ele>
        <time>2024-04-25T10:50:55Z</time>
      </trkpt>
      <trkpt lat="44.3505" lon="5.78548">
        <ele>743.6</ele>
        <time>2024-04-25T10:50:59Z</time>
      </trkpt>
      <trkpt lat="44.35045" lon="5.78561">
        <ele>743.8</ele>
        <time>2024-04-25T10:51:03Z</time>
      </trkpt>
      <trkpt lat="44.3504" lon="5.78572">
        <ele>744.1</ele>
        <time>2024-04-25T10:51:07Z</time>
      </trkpt>
      <trkpt lat="44.35034" lon="5.78583">
        <ele>744.6</ele>
        <time>2024-04-25T10:51:11Z</time>
      </trkpt>
      <trkpt lat="44.35028" lon="5.78595">
        <ele>745.2</ele>
        <time>2024-04-25T10:51:16Z</time>
      </trkpt>
      <trkpt lat="44.35022" lon="5.78605">
        <ele>745.6</ele>
        <time>2024-04-25T10:51:20Z</time>
      </trkpt>
      <trkpt lat="44.35017" lon="5.78616">
        <ele>746.2</ele>
        <time>2024-04-25T10:51:25Z</time>
      </trkpt>
      <trkpt lat="44.35012" lon="5.78629">
        <ele>746.8</ele>
        <time>2024-04-25T10:51:31Z</time>
      </trkpt>
      <trkpt lat="44.35007" lon="5.78641">
        <ele>747.5</ele>
        <time>2024-04-25T10:51:37Z</time>
      </trkpt>
      <trkpt lat="44.35001" lon="5.78652">
        <ele>748.2</ele>
        <time>2024-04-25T10:51:42Z</time>
      </trkpt>
      <trkpt lat="44.34993" lon="5.78659">
        <ele>748.9</ele>
        <time>2024-04-25T10:52:07Z</time>
      </trkpt>
      <trkpt lat="44.3499" lon="5.78675">
        <ele>749.6</ele>
        <time>2024-04-25T10:52:13Z</time>
      </trkpt>
      <trkpt lat="44.34982" lon="5.78684">
        <ele>750.3</ele>
        <time>2024-04-25T10:52:40Z</time>
      </trkpt>
      <trkpt lat="44.34975" lon="5.78695">
        <ele>750.8</ele>
        <time>2024-04-25T10:52:45Z</time>
      </trkpt>
      <trkpt lat="44.34968" lon="5.78706">
        <ele>751.2</ele>
        <time>2024-04-25T10:52:50Z</time>
      </trkpt>
      <trkpt lat="44.34961" lon="5.78717">
        <ele>751.7</ele>
        <time>2024-04-25T10:52:55Z</time>
      </trkpt>
      <trkpt lat="44.34954" lon="5.78726">
        <ele>752.2</ele>
        <time>2024-04-25T10:53:00Z</time>
      </trkpt>
      <trkpt lat="44.34948" lon="5.78736">
        <ele>752.8</ele>
        <time>2024-04-25T10:53:06Z</time>
      </trkpt>
      <trkpt lat="44.34941" lon="5.78746">
        <ele>753.6</ele>
        <time>2024-04-25T10:53:12Z</time>
      </trkpt>
      <trkpt lat="44.34935" lon="5.78756">
        <ele>754.4</ele>
        <time>2024-04-25T10:53:18Z</time>
      </trkpt>
      <trkpt lat="44.34927" lon="5.78765">
        <ele>755.5</ele>
        <time>2024-04-25T10:53:26Z</time>
      </trkpt>
      <trkpt lat="44.34919" lon="5.78776">
        <ele>756.8</ele>
        <time>2024-04-25T10:53:36Z</time>
      </trkpt>
      <trkpt lat="44.34912" lon="5.78785">
        <ele>758</ele>
        <time>2024-04-25T10:53:45Z</time>
      </trkpt>
      <trkpt lat="44.34904" lon="5.78796">
        <ele>759.5</ele>
        <time>2024-04-25T10:53:56Z</time>
      </trkpt>
      <trkpt lat="44.34896" lon="5.78805">
        <ele>760.9</ele>
        <time>2024-04-25T10:54:06Z</time>
      </trkpt>
      <trkpt lat="44.34888" lon="5.78812">
        <ele>762.2</ele>
        <time>2024-04-25T10:54:14Z</time>
      </trkpt>
      <trkpt lat="44.34881" lon="5.78821">
        <ele>763.4</ele>
        <time>2024-04-25T10:54:22Z</time>
      </trkpt>
      <trkpt lat="44.34886" lon="5.78832">
        <ele>761.8</ele>
        <time>2024-04-25T10:56:20Z</time>
      </trkpt>
      <trkpt lat="44.34888" lon="5.78845">
        <ele>760.9</ele>
        <time>2024-04-25T10:56:23Z</time>
      </trkpt>
      <trkpt lat="44.34886" lon="5.78859">
        <ele>760.2</ele>
        <time>2024-04-25T10:56:39Z</time>
      </trkpt>
      <trkpt lat="44.34879" lon="5.78873">
        <ele>759.7</ele>
        <time>2024-04-25T10:57:08Z</time>
      </trkpt>
      <trkpt lat="44.34874" lon="5.78886">
        <ele>759.3</ele>
        <time>2024-04-25T10:57:13Z</time>
      </trkpt>
      <trkpt lat="44.34869" lon="5.78897">
        <ele>758.9</ele>
        <time>2024-04-25T10:57:17Z</time>
      </trkpt>
      <trkpt lat="44.34862" lon="5.78909">
        <ele>758.4</ele>
        <time>2024-04-25T10:57:21Z</time>
      </trkpt>
      <trkpt lat="44.34873" lon="5.78902">
        <ele>754.1</ele>
        <time>2024-04-25T10:59:11Z</time>
      </trkpt>
      <trkpt lat="44.34885" lon="5.78896">
        <ele>751.4</ele>
        <time>2024-04-25T10:59:14Z</time>
      </trkpt>
      <trkpt lat="44.34896" lon="5.78891">
        <ele>748.2</ele>
        <time>2024-04-25T10:59:17Z</time>
      </trkpt>
      <trkpt lat="44.34906" lon="5.7889">
        <ele>746.4</ele>
        <time>2024-04-25T10:59:19Z</time>
      </trkpt>
      <trkpt lat="44.34916" lon="5.78887">
        <ele>744.1</ele>
        <time>2024-04-25T10:59:24Z</time>
      </trkpt>
      <trkpt lat="44.34926" lon="5.78887">
        <ele>742.2</ele>
        <time>2024-04-25T10:59:27Z</time>
      </trkpt>
      <trkpt lat="44.34937" lon="5.78881">
        <ele>739.8</ele>
        <time>2024-04-25T10:59:30Z</time>
      </trkpt>
      <trkpt lat="44.34948" lon="5.78873">
        <ele>737.8</ele>
        <time>2024-04-25T10:59:33Z</time>
      </trkpt>
      <trkpt lat="44.34956" lon="5.78864">
        <ele>736.1</ele>
        <time>2024-04-25T10:59:36Z</time>
      </trkpt>
      <trkpt lat="44.34964" lon="5.78857">
        <ele>734.7</ele>
        <time>2024-04-25T10:59:39Z</time>
      </trkpt>
      <trkpt lat="44.34975" lon="5.78851">
        <ele>733.5</ele>
        <time>2024-04-25T10:59:43Z</time>
      </trkpt>
      <trkpt lat="44.34985" lon="5.78847">
        <ele>732.2</ele>
        <time>2024-04-25T10:59:47Z</time>
      </trkpt>
      <trkpt lat="44.34996" lon="5.78845">
        <ele>731.1</ele>
        <time>2024-04-25T10:59:52Z</time>
      </trkpt>
      <trkpt lat="44.35006" lon="5.78843">
        <ele>729.8</ele>
        <time>2024-04-25T10:59:58Z</time>
      </trkpt>
      <trkpt lat="44.35017" lon="5.78839">
        <ele>729.1</ele>
        <time>2024-04-25T11:00:03Z</time>
      </trkpt>
      <trkpt lat="44.35027" lon="5.7884">
        <ele>727.9</ele>
        <time>2024-04-25T11:00:07Z</time>
      </trkpt>
      <trkpt lat="44.35035" lon="5.78846">
        <ele>726.5</ele>
        <time>2024-04-25T11:00:11Z</time>
      </trkpt>
      <trkpt lat="44.35044" lon="5.78854">
        <ele>725</ele>
        <time>2024-04-25T11:00:15Z</time>
      </trkpt>
      <trkpt lat="44.35053" lon="5.78859">
        <ele>723.5</ele>
        <time>2024-04-25T11:00:19Z</time>
      </trkpt>
      <trkpt lat="44.35063" lon="5.78863">
        <ele>721.8</ele>
        <time>2024-04-25T11:00:23Z</time>
      </trkpt>
      <trkpt lat="44.35074" lon="5.78863">
        <ele>719.6</ele>
        <time>2024-04-25T11:00:28Z</time>
      </trkpt>
      <trkpt lat="44.35085" lon="5.78864">
        <ele>717.5</ele>
        <time>2024-04-25T11:00:32Z</time>
      </trkpt>
      <trkpt lat="44.35094" lon="5.78867">
        <ele>715.1</ele>
        <time>2024-04-25T11:00:37Z</time>
      </trkpt>
      <trkpt lat="44.35103" lon="5.78866">
        <ele>712.6</ele>
        <time>2024-04-25T11:00:41Z</time>
      </trkpt>
      <trkpt lat="44.35114" lon="5.78864">
        <ele>708.1</ele>
        <time>2024-04-25T11:00:45Z</time>
      </trkpt>
      <trkpt lat="44.35124" lon="5.78859">
        <ele>705.4</ele>
        <time>2024-04-25T11:00:51Z</time>
      </trkpt>
      <trkpt lat="44.35134" lon="5.78855">
        <ele>702.4</ele>
        <time>2024-04-25T11:00:57Z</time>
      </trkpt>
      <trkpt lat="44.35146" lon="5.78851">
        <ele>698.2</ele>
        <time>2024-04-25T11:01:03Z</time>
      </trkpt>
      <trkpt lat="44.35156" lon="5.78848">
        <ele>695.1</ele>
        <time>2024-04-25T11:01:08Z</time>
      </trkpt>
      <trkpt lat="44.35165" lon="5.78856">
        <ele>691.6</ele>
        <time>2024-04-25T11:01:14Z</time>
      </trkpt>
      <trkpt lat="44.35168" lon="5.78868">
        <ele>689.9</ele>
        <time>2024-04-25T11:01:18Z</time>
      </trkpt>
      <trkpt lat="44.35164" lon="5.78881">
        <ele>690.8</ele>
        <time>2024-04-25T11:01:22Z</time>
      </trkpt>
      <trkpt lat="44.35156" lon="5.78888">
        <ele>694.2</ele>
        <time>2024-04-25T11:01:26Z</time>
      </trkpt>
      <trkpt lat="44.35146" lon="5.78892">
        <ele>698.4</ele>
        <time>2024-04-25T11:01:52Z</time>
      </trkpt>
      <trkpt lat="44.35137" lon="5.789">
        <ele>702.4</ele>
        <time>2024-04-25T11:01:56Z</time>
      </trkpt>
      <trkpt lat="44.3513" lon="5.7891">
        <ele>705.2</ele>
        <time>2024-04-25T11:01:59Z</time>
      </trkpt>
      <trkpt lat="44.3512" lon="5.78922">
        <ele>709.2</ele>
        <time>2024-04-25T11:02:02Z</time>
      </trkpt>
      <trkpt lat="44.35117" lon="5.78936">
        <ele>711.3</ele>
        <time>2024-04-25T11:02:05Z</time>
      </trkpt>
      <trkpt lat="44.35124" lon="5.78948">
        <ele>710.5</ele>
        <time>2024-04-25T11:02:08Z</time>
      </trkpt>
      <trkpt lat="44.35134" lon="5.7895">
        <ele>707.1</ele>
        <time>2024-04-25T11:02:10Z</time>
      </trkpt>
      <trkpt lat="44.35146" lon="5.78951">
        <ele>701.6</ele>
        <time>2024-04-25T11:02:13Z</time>
      </trkpt>
      <trkpt lat="44.35157" lon="5.78949">
        <ele>696.3</ele>
        <time>2024-04-25T11:02:15Z</time>
      </trkpt>
      <trkpt lat="44.35167" lon="5.78947">
        <ele>692.6</ele>
        <time>2024-04-25T11:02:17Z</time>
      </trkpt>
      <trkpt lat="44.3518" lon="5.78947">
        <ele>688.1</ele>
        <time>2024-04-25T11:02:20Z</time>
      </trkpt>
      <trkpt lat="44.35191" lon="5.78949">
        <ele>684.3</ele>
        <time>2024-04-25T11:02:22Z</time>
      </trkpt>
      <trkpt lat="44.35204" lon="5.78949">
        <ele>680.8</ele>
        <time>2024-04-25T11:02:25Z</time>
      </trkpt>
      <trkpt lat="44.35214" lon="5.78949">
        <ele>679.1</ele>
        <time>2024-04-25T11:02:28Z</time>
      </trkpt>
      <trkpt lat="44.35225" lon="5.7895">
        <ele>676.9</ele>
        <time>2024-04-25T11:02:32Z</time>
      </trkpt>
      <trkpt lat="44.35233" lon="5.78943">
        <ele>676.7</ele>
        <time>2024-04-25T11:03:20Z</time>
      </trkpt>
      <trkpt lat="44.35237" lon="5.78931">
        <ele>676.6</ele>
        <time>2024-04-25T11:05:43Z</time>
      </trkpt>
      <trkpt lat="44.35238" lon="5.78916">
        <ele>676.5</ele>
        <time>2024-04-25T11:05:46Z</time>
      </trkpt>
      <trkpt lat="44.35239" lon="5.78901">
        <ele>676.4</ele>
        <time>2024-04-25T11:05:49Z</time>
      </trkpt>
      <trkpt lat="44.3524" lon="5.78884">
        <ele>676.3</ele>
        <time>2024-04-25T11:05:54Z</time>
      </trkpt>
      <trkpt lat="44.35241" lon="5.78871">
        <ele>676.1</ele>
        <time>2024-04-25T11:05:58Z</time>
      </trkpt>
      <trkpt lat="44.35243" lon="5.78856">
        <ele>676</ele>
        <time>2024-04-25T11:06:02Z</time>
      </trkpt>
      <trkpt lat="44.35245" lon="5.78843">
        <ele>675.9</ele>
        <time>2024-04-25T11:06:05Z</time>
      </trkpt>
      <trkpt lat="44.35245" lon="5.78827">
        <ele>675.7</ele>
        <time>2024-04-25T11:06:08Z</time>
      </trkpt>
      <trkpt lat="44.35247" lon="5.78812">
        <ele>675.5</ele>
        <time>2024-04-25T11:06:11Z</time>
      </trkpt>
      <trkpt lat="44.35248" lon="5.78798">
        <ele>675.4</ele>
        <time>2024-04-25T11:06:14Z</time>
      </trkpt>
      <trkpt lat="44.3525" lon="5.78784">
        <ele>675.2</ele>
        <time>2024-04-25T11:06:17Z</time>
      </trkpt>
      <trkpt lat="44.35253" lon="5.78772">
        <ele>675.1</ele>
        <time>2024-04-25T11:06:20Z</time>
      </trkpt>
      <trkpt lat="44.35255" lon="5.78758">
        <ele>675</ele>
        <time>2024-04-25T11:06:24Z</time>
      </trkpt>
      <trkpt lat="44.35256" lon="5.78744">
        <ele>674.9</ele>
        <time>2024-04-25T11:06:29Z</time>
      </trkpt>
      <trkpt lat="44.35261" lon="5.78733">
        <ele>674.8</ele>
        <time>2024-04-25T11:06:35Z</time>
      </trkpt>
      <trkpt lat="44.35267" lon="5.78723">
        <ele>674.6</ele>
        <time>2024-04-25T11:06:40Z</time>
      </trkpt>
      <trkpt lat="44.35279" lon="5.78724">
        <ele>673.1</ele>
        <time>2024-04-25T11:07:13Z</time>
      </trkpt>
      <trkpt lat="44.35289" lon="5.7873">
        <ele>671.5</ele>
        <time>2024-04-25T11:07:17Z</time>
      </trkpt>
      <trkpt lat="44.35301" lon="5.78736">
        <ele>670</ele>
        <time>2024-04-25T11:07:20Z</time>
      </trkpt>
      <trkpt lat="44.35312" lon="5.7874">
        <ele>668.7</ele>
        <time>2024-04-25T11:07:23Z</time>
      </trkpt>
      <trkpt lat="44.35322" lon="5.78744">
        <ele>667.5</ele>
        <time>2024-04-25T11:07:26Z</time>
      </trkpt>
      <trkpt lat="44.35335" lon="5.78743">
        <ele>666.2</ele>
        <time>2024-04-25T11:07:29Z</time>
      </trkpt>
      <trkpt lat="44.35345" lon="5.78739">
        <ele>665.2</ele>
        <time>2024-04-25T11:07:31Z</time>
      </trkpt>
      <trkpt lat="44.35355" lon="5.78734">
        <ele>664.1</ele>
        <time>2024-04-25T11:07:33Z</time>
      </trkpt>
      <trkpt lat="44.35366" lon="5.78728">
        <ele>662.9</ele>
        <time>2024-04-25T11:07:35Z</time>
      </trkpt>
      <trkpt lat="44.35375" lon="5.78722">
        <ele>661.7</ele>
        <time>2024-04-25T11:07:37Z</time>
      </trkpt>
      <trkpt lat="44.3538" lon="5.78708">
        <ele>659.9</ele>
        <time>2024-04-25T11:07:40Z</time>
      </trkpt>
      <trkpt lat="44.35377" lon="5.78695">
        <ele>658.4</ele>
        <time>2024-04-25T11:07:42Z</time>
      </trkpt>
      <trkpt lat="44.35374" lon="5.7868">
        <ele>656.6</ele>
        <time>2024-04-25T11:07:44Z</time>
      </trkpt>
      <trkpt lat="44.35372" lon="5.78666">
        <ele>654.9</ele>
        <time>2024-04-25T11:07:46Z</time>
      </trkpt>
      <trkpt lat="44.35375" lon="5.7865">
        <ele>652.6</ele>
        <time>2024-04-25T11:07:49Z</time>
      </trkpt>
      <trkpt lat="44.35388" lon="5.78649">
        <ele>650.3</ele>
        <time>2024-04-25T11:07:52Z</time>
      </trkpt>
      <trkpt lat="44.35396" lon="5.78658">
        <ele>649.2</ele>
        <time>2024-04-25T11:07:55Z</time>
      </trkpt>
      <trkpt lat="44.35403" lon="5.78668">
        <ele>648.9</ele>
        <time>2024-04-25T11:07:58Z</time>
      </trkpt>
      <trkpt lat="44.35408" lon="5.7868">
        <ele>649.2</ele>
        <time>2024-04-25T11:08:05Z</time>
      </trkpt>
      <trkpt lat="44.35416" lon="5.78688">
        <ele>649.9</ele>
        <time>2024-04-25T11:08:14Z</time>
      </trkpt>
      <trkpt lat="44.35425" lon="5.78692">
        <ele>650.6</ele>
        <time>2024-04-25T11:08:23Z</time>
      </trkpt>
      <trkpt lat="44.35434" lon="5.78695">
        <ele>651.3</ele>
        <time>2024-04-25T11:08:33Z</time>
      </trkpt>
      <trkpt lat="44.35444" lon="5.78695">
        <ele>652</ele>
        <time>2024-04-25T11:08:39Z</time>
      </trkpt>
      <trkpt lat="44.35453" lon="5.78693">
        <ele>652.8</ele>
        <time>2024-04-25T11:08:49Z</time>
      </trkpt>
      <trkpt lat="44.35463" lon="5.78686">
        <ele>653.9</ele>
        <time>2024-04-25T11:09:01Z</time>
      </trkpt>
      <trkpt lat="44.3547" lon="5.78678">
        <ele>654.7</ele>
        <time>2024-04-25T11:09:10Z</time>
      </trkpt>
      <trkpt lat="44.35478" lon="5.78672">
        <ele>655.7</ele>
        <time>2024-04-25T11:09:19Z</time>
      </trkpt>
      <trkpt lat="44.35488" lon="5.78669">
        <ele>656.9</ele>
        <time>2024-04-25T11:09:33Z</time>
      </trkpt>
      <trkpt lat="44.35498" lon="5.78669">
        <ele>658</ele>
        <time>2024-04-25T11:09:43Z</time>
      </trkpt>
      <trkpt lat="44.35507" lon="5.78668">
        <ele>658.9</ele>
        <time>2024-04-25T11:09:51Z</time>
      </trkpt>
      <trkpt lat="44.35517" lon="5.78663">
        <ele>660</ele>
        <time>2024-04-25T11:10:04Z</time>
      </trkpt>
      <trkpt lat="44.35524" lon="5.78654">
        <ele>660.8</ele>
        <time>2024-04-25T11:10:15Z</time>
      </trkpt>
      <trkpt lat="44.35531" lon="5.78643">
        <ele>662</ele>
        <time>2024-04-25T11:10:27Z</time>
      </trkpt>
      <trkpt lat="44.35537" lon="5.78632">
        <ele>663.2</ele>
        <time>2024-04-25T11:10:39Z</time>
      </trkpt>
      <trkpt lat="44.35545" lon="5.78624">
        <ele>664.2</ele>
        <time>2024-04-25T11:10:49Z</time>
      </trkpt>
      <trkpt lat="44.35549" lon="5.78612">
        <ele>665.3</ele>
        <time>2024-04-25T11:11:50Z</time>
      </trkpt>
      <trkpt lat="44.35557" lon="5.78603">
        <ele>666.1</ele>
        <time>2024-04-25T11:11:59Z</time>
      </trkpt>
      <trkpt lat="44.35564" lon="5.78595">
        <ele>666.8</ele>
        <time>2024-04-25T11:12:07Z</time>
      </trkpt>
      <trkpt lat="44.35572" lon="5.78586">
        <ele>667.5</ele>
        <time>2024-04-25T11:12:17Z</time>
      </trkpt>
      <trkpt lat="44.3558" lon="5.78576">
        <ele>668.1</ele>
        <time>2024-04-25T11:12:25Z</time>
      </trkpt>
      <trkpt lat="44.35588" lon="5.78567">
        <ele>668.6</ele>
        <time>2024-04-25T11:12:32Z</time>
      </trkpt>
      <trkpt lat="44.35595" lon="5.78558">
        <ele>668.8</ele>
        <time>2024-04-25T11:12:37Z</time>
      </trkpt>
      <trkpt lat="44.35604" lon="5.7855">
        <ele>669</ele>
        <time>2024-04-25T11:12:42Z</time>
      </trkpt>
      <trkpt lat="44.35612" lon="5.78544">
        <ele>669</ele>
        <time>2024-04-25T11:12:46Z</time>
      </trkpt>
      <trkpt lat="44.35621" lon="5.78537">
        <ele>669</ele>
        <time>2024-04-25T11:12:51Z</time>
      </trkpt>
      <trkpt lat="44.3563" lon="5.7853">
        <ele>669</ele>
        <time>2024-04-25T11:12:55Z</time>
      </trkpt>
      <trkpt lat="44.35638" lon="5.78523">
        <ele>669</ele>
        <time>2024-04-25T11:13:00Z</time>
      </trkpt>
      <trkpt lat="44.35645" lon="5.78515">
        <ele>669.1</ele>
        <time>2024-04-25T11:13:04Z</time>
      </trkpt>
      <trkpt lat="44.35653" lon="5.78505">
        <ele>669.2</ele>
        <time>2024-04-25T11:13:08Z</time>
      </trkpt>
      <trkpt lat="44.3566" lon="5.78494">
        <ele>669.3</ele>
        <time>2024-04-25T11:13:12Z</time>
      </trkpt>
      <trkpt lat="44.35667" lon="5.78485">
        <ele>669.6</ele>
        <time>2024-04-25T11:13:16Z</time>
      </trkpt>
      <trkpt lat="44.35676" lon="5.78477">
        <ele>669.9</ele>
        <time>2024-04-25T11:13:21Z</time>
      </trkpt>
      <trkpt lat="44.35684" lon="5.7847">
        <ele>670.2</ele>
        <time>2024-04-25T11:13:27Z</time>
      </trkpt>
      <trkpt lat="44.35695" lon="5.78463">
        <ele>670.7</ele>
        <time>2024-04-25T11:13:34Z</time>
      </trkpt>
      <trkpt lat="44.35704" lon="5.7846">
        <ele>671</ele>
        <time>2024-04-25T11:13:38Z</time>
      </trkpt>
      <trkpt lat="44.35715" lon="5.78458">
        <ele>671.4</ele>
        <time>2024-04-25T11:13:43Z</time>
      </trkpt>
      <trkpt lat="44.35724" lon="5.78457">
        <ele>671.7</ele>
        <time>2024-04-25T11:13:47Z</time>
      </trkpt>
      <trkpt lat="44.35733" lon="5.78458">
        <ele>672</ele>
        <time>2024-04-25T11:13:53Z</time>
      </trkpt>
      <trkpt lat="44.35743" lon="5.78457">
        <ele>672.3</ele>
        <time>2024-04-25T11:13:59Z</time>
      </trkpt>
      <trkpt lat="44.35753" lon="5.78455">
        <ele>672.5</ele>
        <time>2024-04-25T11:14:04Z</time>
      </trkpt>
      <trkpt lat="44.35765" lon="5.78455">
        <ele>672.7</ele>
        <time>2024-04-25T11:14:09Z</time>
      </trkpt>
      <trkpt lat="44.35775" lon="5.78454">
        <ele>672.8</ele>
        <time>2024-04-25T11:14:13Z</time>
      </trkpt>
      <trkpt lat="44.35784" lon="5.78452">
        <ele>673.2</ele>
        <time>2024-04-25T11:14:17Z</time>
      </trkpt>
      <trkpt lat="44.35796" lon="5.78447">
        <ele>673.7</ele>
        <time>2024-04-25T11:14:23Z</time>
      </trkpt>
      <trkpt lat="44.35808" lon="5.78444">
        <ele>674.2</ele>
        <time>2024-04-25T11:14:29Z</time>
      </trkpt>
      <trkpt lat="44.35819" lon="5.78444">
        <ele>674.7</ele>
        <time>2024-04-25T11:14:34Z</time>
      </trkpt>
      <trkpt lat="44.3583" lon="5.7844">
        <ele>675.4</ele>
        <time>2024-04-25T11:14:40Z</time>
      </trkpt>
      <trkpt lat="44.35838" lon="5.78434">
        <ele>676.2</ele>
        <time>2024-04-25T11:14:45Z</time>
      </trkpt>
      <trkpt lat="44.35848" lon="5.78429">
        <ele>677.1</ele>
        <time>2024-04-25T11:14:51Z</time>
      </trkpt>
      <trkpt lat="44.35857" lon="5.78426">
        <ele>677.9</ele>
        <time>2024-04-25T11:14:56Z</time>
      </trkpt>
      <trkpt lat="44.35867" lon="5.7842">
        <ele>678.6</ele>
        <time>2024-04-25T11:15:04Z</time>
      </trkpt>
      <trkpt lat="44.35869" lon="5.78406">
        <ele>678.5</ele>
        <time>2024-04-25T11:15:30Z</time>
      </trkpt>
      <trkpt lat="44.3587" lon="5.78393">
        <ele>678.5</ele>
        <time>2024-04-25T11:15:34Z</time>
      </trkpt>
      <trkpt lat="44.35877" lon="5.78383">
        <ele>678.8</ele>
        <time>2024-04-25T11:15:40Z</time>
      </trkpt>
      <trkpt lat="44.35885" lon="5.78377">
        <ele>679.4</ele>
        <time>2024-04-25T11:15:46Z</time>
      </trkpt>
      <trkpt lat="44.35893" lon="5.78371">
        <ele>680.1</ele>
        <time>2024-04-25T11:15:52Z</time>
      </trkpt>
      <trkpt lat="44.35885" lon="5.78377">
        <ele>679.3</ele>
        <time>2024-04-25T11:16:01Z</time>
      </trkpt>
      <trkpt lat="44.35877" lon="5.78383">
        <ele>678.8</ele>
        <time>2024-04-25T11:16:04Z</time>
      </trkpt>
      <trkpt lat="44.35871" lon="5.78394">
        <ele>678.5</ele>
        <time>2024-04-25T11:16:07Z</time>
      </trkpt>
      <trkpt lat="44.3587" lon="5.7841">
        <ele>678.6</ele>
        <time>2024-04-25T11:16:10Z</time>
      </trkpt>
      <trkpt lat="44.35871" lon="5.78423">
        <ele>678.7</ele>
        <time>2024-04-25T11:16:46Z</time>
      </trkpt>
      <trkpt lat="44.35878" lon="5.78432">
        <ele>678.7</ele>
        <time>2024-04-25T11:16:50Z</time>
      </trkpt>
      <trkpt lat="44.35872" lon="5.7842">
        <ele>678.7</ele>
        <time>2024-04-25T11:17:00Z</time>
      </trkpt>
      <trkpt lat="44.35863" lon="5.78423">
        <ele>678.4</ele>
        <time>2024-04-25T11:17:08Z</time>
      </trkpt>
      <trkpt lat="44.35853" lon="5.78429">
        <ele>677.9</ele>
        <time>2024-04-25T11:17:12Z</time>
      </trkpt>
      <trkpt lat="44.35843" lon="5.78435">
        <ele>677.5</ele>
        <time>2024-04-25T11:17:15Z</time>
      </trkpt>
      <trkpt lat="44.35851" lon="5.78429">
        <ele>676.7</ele>
        <time>2024-04-25T11:19:04Z</time>
      </trkpt>
      <trkpt lat="44.3586" lon="5.78425">
        <ele>677.8</ele>
        <time>2024-04-25T11:19:10Z</time>
      </trkpt>
      <trkpt lat="44.35869" lon="5.78419">
        <ele>678.6</ele>
        <time>2024-04-25T11:19:16Z</time>
      </trkpt>
      <trkpt lat="44.35872" lon="5.78406">
        <ele>678.5</ele>
        <time>2024-04-25T11:19:20Z</time>
      </trkpt>
      <trkpt lat="44.35873" lon="5.78387">
        <ele>678.7</ele>
        <time>2024-04-25T11:19:24Z</time>
      </trkpt>
      <trkpt lat="44.35881" lon="5.78377">
        <ele>679.1</ele>
        <time>2024-04-25T11:19:29Z</time>
      </trkpt>
      <trkpt lat="44.35891" lon="5.78369">
        <ele>680</ele>
        <time>2024-04-25T11:19:36Z</time>
      </trkpt>
      <trkpt lat="44.359" lon="5.78362">
        <ele>681.1</ele>
        <time>2024-04-25T11:19:44Z</time>
      </trkpt>
      <trkpt lat="44.35909" lon="5.78356">
        <ele>682.5</ele>
        <time>2024-04-25T11:20:00Z</time>
      </trkpt>
      <trkpt lat="44.35915" lon="5.78344">
        <ele>684.4</ele>
        <time>2024-04-25T11:20:07Z</time>
      </trkpt>
      <trkpt lat="44.35918" lon="5.78331">
        <ele>686.8</ele>
        <time>2024-04-25T11:20:15Z</time>
      </trkpt>
      <trkpt lat="44.35919" lon="5.78317">
        <ele>689.1</ele>
        <time>2024-04-25T11:20:33Z</time>
      </trkpt>
      <trkpt lat="44.35922" lon="5.78305">
        <ele>691.8</ele>
        <time>2024-04-25T11:20:49Z</time>
      </trkpt>
      <trkpt lat="44.3593" lon="5.78296">
        <ele>694.5</ele>
        <time>2024-04-25T11:21:06Z</time>
      </trkpt>
      <trkpt lat="44.35924" lon="5.78307">
        <ele>699.2</ele>
        <time>2024-04-25T11:21:36Z</time>
      </trkpt>
      <trkpt lat="44.3593" lon="5.78297">
        <ele>700.2</ele>
        <time>2024-04-25T11:22:15Z</time>
      </trkpt>
      <trkpt lat="44.35939" lon="5.78291">
        <ele>699</ele>
        <time>2024-04-25T11:22:31Z</time>
      </trkpt>
      <trkpt lat="44.3593" lon="5.78297">
        <ele>696.1</ele>
        <time>2024-04-25T11:22:48Z</time>
      </trkpt>
      <trkpt lat="44.35922" lon="5.78305">
        <ele>694</ele>
        <time>2024-04-25T11:22:56Z</time>
      </trkpt>
      <trkpt lat="44.35932" lon="5.78295">
        <ele>689.5</ele>
        <time>2024-04-25T11:24:30Z</time>
      </trkpt>
      <trkpt lat="44.3594" lon="5.78289">
        <ele>686.8</ele>
        <time>2024-04-25T11:25:45Z</time>
      </trkpt>
      <trkpt lat="44.35949" lon="5.78287">
        <ele>686.4</ele>
        <time>2024-04-25T11:26:39Z</time>
      </trkpt>
      <trkpt lat="44.35959" lon="5.78284">
        <ele>686.2</ele>
        <time>2024-04-25T11:26:43Z</time>
      </trkpt>
      <trkpt lat="44.35968" lon="5.78282">
        <ele>686</ele>
        <time>2024-04-25T11:26:48Z</time>
      </trkpt>
      <trkpt lat="44.35977" lon="5.78277">
        <ele>685.5</ele>
        <time>2024-04-25T11:26:54Z</time>
      </trkpt>
      <trkpt lat="44.35986" lon="5.78279">
        <ele>685.1</ele>
        <time>2024-04-25T11:26:57Z</time>
      </trkpt>
      <trkpt lat="44.35996" lon="5.78279">
        <ele>684.6</ele>
        <time>2024-04-25T11:27:00Z</time>
      </trkpt>
      <trkpt lat="44.36006" lon="5.78275">
        <ele>684.1</ele>
        <time>2024-04-25T11:27:03Z</time>
      </trkpt>
      <trkpt lat="44.36016" lon="5.78271">
        <ele>683.7</ele>
        <time>2024-04-25T11:27:06Z</time>
      </trkpt>
      <trkpt lat="44.36025" lon="5.78269">
        <ele>683.3</ele>
        <time>2024-04-25T11:27:23Z</time>
      </trkpt>
      <trkpt lat="44.36032" lon="5.78261">
        <ele>682.8</ele>
        <time>2024-04-25T11:28:09Z</time>
      </trkpt>
      <trkpt lat="44.36041" lon="5.78248">
        <ele>681.7</ele>
        <time>2024-04-25T11:28:13Z</time>
      </trkpt>
      <trkpt lat="44.36047" lon="5.78233">
        <ele>680.3</ele>
        <time>2024-04-25T11:28:17Z</time>
      </trkpt>
      <trkpt lat="44.36053" lon="5.78222">
        <ele>679.4</ele>
        <time>2024-04-25T11:28:20Z</time>
      </trkpt>
      <trkpt lat="44.36061" lon="5.78213">
        <ele>679.1</ele>
        <time>2024-04-25T11:28:26Z</time>
      </trkpt>
      <trkpt lat="44.36071" lon="5.78208">
        <ele>679.2</ele>
        <time>2024-04-25T11:28:34Z</time>
      </trkpt>
      <trkpt lat="44.36061" lon="5.78212">
        <ele>679.5</ele>
        <time>2024-04-25T11:29:22Z</time>
      </trkpt>
      <trkpt lat="44.36058" lon="5.782">
        <ele>679.5</ele>
        <time>2024-04-25T11:29:33Z</time>
      </trkpt>
      <trkpt lat="44.36065" lon="5.78188">
        <ele>679.4</ele>
        <time>2024-04-25T11:29:38Z</time>
      </trkpt>
      <trkpt lat="44.36075" lon="5.78184">
        <ele>679.3</ele>
        <time>2024-04-25T11:30:16Z</time>
      </trkpt>
      <trkpt lat="44.36085" lon="5.78188">
        <ele>679.3</ele>
        <time>2024-04-25T11:30:20Z</time>
      </trkpt>
      <trkpt lat="44.36085" lon="5.78174">
        <ele>679.4</ele>
        <time>2024-04-25T11:30:51Z</time>
      </trkpt>
      <trkpt lat="44.36093" lon="5.78165">
        <ele>679.3</ele>
        <time>2024-04-25T11:31:30Z</time>
      </trkpt>
      <trkpt lat="44.36104" lon="5.78166">
        <ele>678.8</ele>
        <time>2024-04-25T11:31:35Z</time>
      </trkpt>
      <trkpt lat="44.36113" lon="5.78161">
        <ele>678.1</ele>
        <time>2024-04-25T11:31:39Z</time>
      </trkpt>
      <trkpt lat="44.36123" lon="5.78154">
        <ele>677.1</ele>
        <time>2024-04-25T11:31:44Z</time>
      </trkpt>
      <trkpt lat="44.36131" lon="5.78148">
        <ele>676.4</ele>
        <time>2024-04-25T11:31:47Z</time>
      </trkpt>
      <trkpt lat="44.36139" lon="5.78137">
        <ele>675.6</ele>
        <time>2024-04-25T11:31:53Z</time>
      </trkpt>
      <trkpt lat="44.3614" lon="5.78124">
        <ele>674.9</ele>
        <time>2024-04-25T11:31:58Z</time>
      </trkpt>
      <trkpt lat="44.3614" lon="5.78108">
        <ele>674.2</ele>
        <time>2024-04-25T11:32:02Z</time>
      </trkpt>
      <trkpt lat="44.36137" lon="5.78096">
        <ele>673.6</ele>
        <time>2024-04-25T11:32:05Z</time>
      </trkpt>
      <trkpt lat="44.3613" lon="5.78087">
        <ele>673.2</ele>
        <time>2024-04-25T11:32:08Z</time>
      </trkpt>
      <trkpt lat="44.36124" lon="5.78077">
        <ele>672.7</ele>
        <time>2024-04-25T11:32:12Z</time>
      </trkpt>
      <trkpt lat="44.36119" lon="5.78066">
        <ele>672.2</ele>
        <time>2024-04-25T11:32:15Z</time>
      </trkpt>
      <trkpt lat="44.36117" lon="5.78051">
        <ele>671.6</ele>
        <time>2024-04-25T11:32:19Z</time>
      </trkpt>
      <trkpt lat="44.3612" lon="5.78036">
        <ele>670.7</ele>
        <time>2024-04-25T11:32:23Z</time>
      </trkpt>
      <trkpt lat="44.36123" lon="5.7802">
        <ele>669.5</ele>
        <time>2024-04-25T11:32:26Z</time>
      </trkpt>
      <trkpt lat="44.36126" lon="5.78006">
        <ele>668.1</ele>
        <time>2024-04-25T11:32:30Z</time>
      </trkpt>
      <trkpt lat="44.36127" lon="5.77991">
        <ele>666.3</ele>
        <time>2024-04-25T11:32:37Z</time>
      </trkpt>
      <trkpt lat="44.36124" lon="5.77979">
        <ele>664.8</ele>
        <time>2024-04-25T11:32:41Z</time>
      </trkpt>
      <trkpt lat="44.36121" lon="5.77966">
        <ele>663.3</ele>
        <time>2024-04-25T11:32:45Z</time>
      </trkpt>
      <trkpt lat="44.36123" lon="5.77952">
        <ele>661.7</ele>
        <time>2024-04-25T11:32:49Z</time>
      </trkpt>
      <trkpt lat="44.36127" lon="5.77937">
        <ele>660</ele>
        <time>2024-04-25T11:32:53Z</time>
      </trkpt>
      <trkpt lat="44.36133" lon="5.77927">
        <ele>658.6</ele>
        <time>2024-04-25T11:33:14Z</time>
      </trkpt>
      <trkpt lat="44.36143" lon="5.77926">
        <ele>657.1</ele>
        <time>2024-04-25T11:33:23Z</time>
      </trkpt>
      <trkpt lat="44.36149" lon="5.77915">
        <ele>656.5</ele>
        <time>2024-04-25T11:33:52Z</time>
      </trkpt>
      <trkpt lat="44.36153" lon="5.77902">
        <ele>656.8</ele>
        <time>2024-04-25T11:34:45Z</time>
      </trkpt>
      <trkpt lat="44.36157" lon="5.77888">
        <ele>657.7</ele>
        <time>2024-04-25T11:35:05Z</time>
      </trkpt>
      <trkpt lat="44.3616" lon="5.77876">
        <ele>658.7</ele>
        <time>2024-04-25T11:35:14Z</time>
      </trkpt>
      <trkpt lat="44.36169" lon="5.77868">
        <ele>660.1</ele>
        <time>2024-04-25T11:35:22Z</time>
      </trkpt>
      <trkpt lat="44.36178" lon="5.77861">
        <ele>661.5</ele>
        <time>2024-04-25T11:35:31Z</time>
      </trkpt>
      <trkpt lat="44.36187" lon="5.77856">
        <ele>662.6</ele>
        <time>2024-04-25T11:35:40Z</time>
      </trkpt>
      <trkpt lat="44.36194" lon="5.77844">
        <ele>663.9</ele>
        <time>2024-04-25T11:36:53Z</time>
      </trkpt>
      <trkpt lat="44.36204" lon="5.77839">
        <ele>664.6</ele>
        <time>2024-04-25T11:37:01Z</time>
      </trkpt>
      <trkpt lat="44.36212" lon="5.77832">
        <ele>665.3</ele>
        <time>2024-04-25T11:37:09Z</time>
      </trkpt>
      <trkpt lat="44.36221" lon="5.77826">
        <ele>666.1</ele>
        <time>2024-04-25T11:37:17Z</time>
      </trkpt>
      <trkpt lat="44.36231" lon="5.77819">
        <ele>667</ele>
        <time>2024-04-25T11:37:25Z</time>
      </trkpt>
      <trkpt lat="44.3624" lon="5.77812">
        <ele>667.9</ele>
        <time>2024-04-25T11:37:35Z</time>
      </trkpt>
      <trkpt lat="44.36249" lon="5.77805">
        <ele>668.7</ele>
        <time>2024-04-25T11:37:46Z</time>
      </trkpt>
      <trkpt lat="44.36256" lon="5.77795">
        <ele>669.3</ele>
        <time>2024-04-25T11:37:54Z</time>
      </trkpt>
      <trkpt lat="44.36264" lon="5.77787">
        <ele>669.4</ele>
        <time>2024-04-25T11:37:59Z</time>
      </trkpt>
      <trkpt lat="44.36271" lon="5.77778">
        <ele>669.3</ele>
        <time>2024-04-25T11:38:03Z</time>
      </trkpt>
      <trkpt lat="44.36281" lon="5.7777">
        <ele>669.1</ele>
        <time>2024-04-25T11:38:07Z</time>
      </trkpt>
      <trkpt lat="44.36289" lon="5.77764">
        <ele>668.9</ele>
        <time>2024-04-25T11:38:10Z</time>
      </trkpt>
      <trkpt lat="44.36297" lon="5.77757">
        <ele>668.8</ele>
        <time>2024-04-25T11:38:14Z</time>
      </trkpt>
      <trkpt lat="44.36306" lon="5.77748">
        <ele>668.7</ele>
        <time>2024-04-25T11:38:19Z</time>
      </trkpt>
      <trkpt lat="44.36313" lon="5.77739">
        <ele>668.7</ele>
        <time>2024-04-25T11:38:27Z</time>
      </trkpt>
      <trkpt lat="44.36324" lon="5.77727">
        <ele>668.5</ele>
        <time>2024-04-25T11:38:37Z</time>
      </trkpt>
      <trkpt lat="44.36331" lon="5.77719">
        <ele>668.3</ele>
        <time>2024-04-25T11:38:41Z</time>
      </trkpt>
      <trkpt lat="44.36338" lon="5.77711">
        <ele>668.1</ele>
        <time>2024-04-25T11:38:44Z</time>
      </trkpt>
      <trkpt lat="44.36347" lon="5.77703">
        <ele>667.9</ele>
        <time>2024-04-25T11:38:47Z</time>
      </trkpt>
      <trkpt lat="44.36356" lon="5.77698">
        <ele>667.8</ele>
        <time>2024-04-25T11:38:50Z</time>
      </trkpt>
      <trkpt lat="44.36365" lon="5.77696">
        <ele>667.7</ele>
        <time>2024-04-25T11:38:53Z</time>
      </trkpt>
      <trkpt lat="44.36375" lon="5.77695">
        <ele>667.6</ele>
        <time>2024-04-25T11:38:56Z</time>
      </trkpt>
      <trkpt lat="44.36385" lon="5.77694">
        <ele>667.6</ele>
        <time>2024-04-25T11:38:59Z</time>
      </trkpt>
      <trkpt lat="44.36394" lon="5.77688">
        <ele>667.6</ele>
        <time>2024-04-25T11:39:02Z</time>
      </trkpt>
      <trkpt lat="44.36401" lon="5.77675">
        <ele>667.5</ele>
        <time>2024-04-25T11:39:05Z</time>
      </trkpt>
      <trkpt lat="44.36407" lon="5.77661">
        <ele>667.6</ele>
        <time>2024-04-25T11:39:09Z</time>
      </trkpt>
      <trkpt lat="44.36413" lon="5.7765">
        <ele>667.7</ele>
        <time>2024-04-25T11:39:12Z</time>
      </trkpt>
      <trkpt lat="44.36422" lon="5.77638">
        <ele>667.9</ele>
        <time>2024-04-25T11:39:16Z</time>
      </trkpt>
      <trkpt lat="44.36428" lon="5.77628">
        <ele>668.1</ele>
        <time>2024-04-25T11:39:19Z</time>
      </trkpt>
      <trkpt lat="44.36434" lon="5.77618">
        <ele>668.3</ele>
        <time>2024-04-25T11:39:22Z</time>
      </trkpt>
      <trkpt lat="44.36441" lon="5.77604">
        <ele>668.6</ele>
        <time>2024-04-25T11:39:26Z</time>
      </trkpt>
      <trkpt lat="44.36449" lon="5.77592">
        <ele>668.8</ele>
        <time>2024-04-25T11:39:30Z</time>
      </trkpt>
      <trkpt lat="44.36456" lon="5.77578">
        <ele>669.1</ele>
        <time>2024-04-25T11:39:34Z</time>
      </trkpt>
      <trkpt lat="44.36462" lon="5.77568">
        <ele>669.3</ele>
        <time>2024-04-25T11:39:37Z</time>
      </trkpt>
      <trkpt lat="44.36467" lon="5.77557">
        <ele>669.4</ele>
        <time>2024-04-25T11:39:40Z</time>
      </trkpt>
      <trkpt lat="44.36471" lon="5.77545">
        <ele>669.5</ele>
        <time>2024-04-25T11:39:43Z</time>
      </trkpt>
      <trkpt lat="44.36475" lon="5.77531">
        <ele>669.5</ele>
        <time>2024-04-25T11:39:46Z</time>
      </trkpt>
      <trkpt lat="44.36478" lon="5.77517">
        <ele>669.5</ele>
        <time>2024-04-25T11:39:49Z</time>
      </trkpt>
      <trkpt lat="44.3648" lon="5.77502">
        <ele>669.6</ele>
        <time>2024-04-25T11:39:52Z</time>
      </trkpt>
      <trkpt lat="44.36483" lon="5.77485">
        <ele>669.8</ele>
        <time>2024-04-25T11:39:55Z</time>
      </trkpt>
      <trkpt lat="44.36486" lon="5.77471">
        <ele>670.2</ele>
        <time>2024-04-25T11:39:58Z</time>
      </trkpt>
      <trkpt lat="44.36491" lon="5.77457">
        <ele>670.7</ele>
        <time>2024-04-25T11:40:02Z</time>
      </trkpt>
      <trkpt lat="44.36498" lon="5.77447">
        <ele>671</ele>
        <time>2024-04-25T11:40:07Z</time>
      </trkpt>
      <trkpt lat="44.36507" lon="5.77438">
        <ele>671.3</ele>
        <time>2024-04-25T11:40:13Z</time>
      </trkpt>
      <trkpt lat="44.36515" lon="5.77428">
        <ele>672</ele>
        <time>2024-04-25T11:41:10Z</time>
      </trkpt>
      <trkpt lat="44.36523" lon="5.77417">
        <ele>672.2</ele>
        <time>2024-04-25T11:41:14Z</time>
      </trkpt>
      <trkpt lat="44.36532" lon="5.77408">
        <ele>672.5</ele>
        <time>2024-04-25T11:41:18Z</time>
      </trkpt>
      <trkpt lat="44.36539" lon="5.774">
        <ele>672.6</ele>
        <time>2024-04-25T11:41:21Z</time>
      </trkpt>
      <trkpt lat="44.36547" lon="5.77391">
        <ele>672.8</ele>
        <time>2024-04-25T11:41:25Z</time>
      </trkpt>
      <trkpt lat="44.36556" lon="5.77385">
        <ele>672.9</ele>
        <time>2024-04-25T11:41:29Z</time>
      </trkpt>
      <trkpt lat="44.36565" lon="5.77379">
        <ele>673.1</ele>
        <time>2024-04-25T11:41:33Z</time>
      </trkpt>
      <trkpt lat="44.36574" lon="5.77375">
        <ele>673</ele>
        <time>2024-04-25T11:41:38Z</time>
      </trkpt>
      <trkpt lat="44.36583" lon="5.77372">
        <ele>672.4</ele>
        <time>2024-04-25T11:41:42Z</time>
      </trkpt>
      <trkpt lat="44.36594" lon="5.77368">
        <ele>671.3</ele>
        <time>2024-04-25T11:41:45Z</time>
      </trkpt>
      <trkpt lat="44.36605" lon="5.77366">
        <ele>670.1</ele>
        <time>2024-04-25T11:41:48Z</time>
      </trkpt>
      <trkpt lat="44.36615" lon="5.77365">
        <ele>668.7</ele>
        <time>2024-04-25T11:41:50Z</time>
      </trkpt>
      <trkpt lat="44.36625" lon="5.77364">
        <ele>667.1</ele>
        <time>2024-04-25T11:41:52Z</time>
      </trkpt>
      <trkpt lat="44.36637" lon="5.77362">
        <ele>665.2</ele>
        <time>2024-04-25T11:41:54Z</time>
      </trkpt>
      <trkpt lat="44.36649" lon="5.77357">
        <ele>663.2</ele>
        <time>2024-04-25T11:41:56Z</time>
      </trkpt>
      <trkpt lat="44.36661" lon="5.7735">
        <ele>661.2</ele>
        <time>2024-04-25T11:41:58Z</time>
      </trkpt>
      <trkpt lat="44.36672" lon="5.77346">
        <ele>659.4</ele>
        <time>2024-04-25T11:42:00Z</time>
      </trkpt>
      <trkpt lat="44.36685" lon="5.77343">
        <ele>657.9</ele>
        <time>2024-04-25T11:42:02Z</time>
      </trkpt>
      <trkpt lat="44.36697" lon="5.77333">
        <ele>657.6</ele>
        <time>2024-04-25T11:42:04Z</time>
      </trkpt>
      <trkpt lat="44.36707" lon="5.7732">
        <ele>656.5</ele>
        <time>2024-04-25T11:42:06Z</time>
      </trkpt>
      <trkpt lat="44.36717" lon="5.77307">
        <ele>655.3</ele>
        <time>2024-04-25T11:42:08Z</time>
      </trkpt>
      <trkpt lat="44.36725" lon="5.77293">
        <ele>654.1</ele>
        <time>2024-04-25T11:42:10Z</time>
      </trkpt>
      <trkpt lat="44.36731" lon="5.7728">
        <ele>653.1</ele>
        <time>2024-04-25T11:42:12Z</time>
      </trkpt>
      <trkpt lat="44.36729" lon="5.77266">
        <ele>652.3</ele>
        <time>2024-04-25T11:42:14Z</time>
      </trkpt>
      <trkpt lat="44.36728" lon="5.77253">
        <ele>651.3</ele>
        <time>2024-04-25T11:42:16Z</time>
      </trkpt>
      <trkpt lat="44.36732" lon="5.77238">
        <ele>650.2</ele>
        <time>2024-04-25T11:42:18Z</time>
      </trkpt>
      <trkpt lat="44.36734" lon="5.77222">
        <ele>649.3</ele>
        <time>2024-04-25T11:42:20Z</time>
      </trkpt>
      <trkpt lat="44.36736" lon="5.77205">
        <ele>648.4</ele>
        <time>2024-04-25T11:42:22Z</time>
      </trkpt>
      <trkpt lat="44.36736" lon="5.77186">
        <ele>647.7</ele>
        <time>2024-04-25T11:42:24Z</time>
      </trkpt>
      <trkpt lat="44.36737" lon="5.77168">
        <ele>647.1</ele>
        <time>2024-04-25T11:42:26Z</time>
      </trkpt>
      <trkpt lat="44.36736" lon="5.77152">
        <ele>646.6</ele>
        <time>2024-04-25T11:42:28Z</time>
      </trkpt>
      <trkpt lat="44.36733" lon="5.77139">
        <ele>646.3</ele>
        <time>2024-04-25T11:42:30Z</time>
      </trkpt>
      <trkpt lat="44.36726" lon="5.77126">
        <ele>646</ele>
        <time>2024-04-25T11:42:33Z</time>
      </trkpt>
      <trkpt lat="44.36718" lon="5.77119">
        <ele>645.6</ele>
        <time>2024-04-25T12:53:35Z</time>
      </trkpt>
      <trkpt lat="44.36714" lon="5.77107">
        <ele>645.3</ele>
        <time>2024-04-25T12:53:59Z</time>
      </trkpt>
      <trkpt lat="44.3671" lon="5.77092">
        <ele>644.8</ele>
        <time>2024-04-25T12:54:06Z</time>
      </trkpt>
      <trkpt lat="44.36706" lon="5.77078">
        <ele>644.2</ele>
        <time>2024-04-25T12:54:09Z</time>
      </trkpt>
      <trkpt lat="44.36697" lon="5.77068">
        <ele>643.6</ele>
        <time>2024-04-25T12:54:12Z</time>
      </trkpt>
      <trkpt lat="44.36688" lon="5.77059">
        <ele>643.1</ele>
        <time>2024-04-25T12:54:15Z</time>
      </trkpt>
      <trkpt lat="44.36681" lon="5.77045">
        <ele>642.6</ele>
        <time>2024-04-25T12:54:19Z</time>
      </trkpt>
      <trkpt lat="44.36683" lon="5.77031">
        <ele>642.1</ele>
        <time>2024-04-25T12:54:22Z</time>
      </trkpt>
      <trkpt lat="44.36687" lon="5.77017">
        <ele>641.8</ele>
        <time>2024-04-25T12:54:25Z</time>
      </trkpt>
      <trkpt lat="44.36691" lon="5.77005">
        <ele>641.6</ele>
        <time>2024-04-25T12:54:28Z</time>
      </trkpt>
      <trkpt lat="44.36695" lon="5.7699">
        <ele>641.5</ele>
        <time>2024-04-25T12:54:32Z</time>
      </trkpt>
      <trkpt lat="44.367" lon="5.76977">
        <ele>641.4</ele>
        <time>2024-04-25T12:54:36Z</time>
      </trkpt>
      <trkpt lat="44.36705" lon="5.76962">
        <ele>641.3</ele>
        <time>2024-04-25T12:54:40Z</time>
      </trkpt>
      <trkpt lat="44.36711" lon="5.76951">
        <ele>641.2</ele>
        <time>2024-04-25T12:54:43Z</time>
      </trkpt>
      <trkpt lat="44.36717" lon="5.76939">
        <ele>641.1</ele>
        <time>2024-04-25T12:54:46Z</time>
      </trkpt>
      <trkpt lat="44.36725" lon="5.76928">
        <ele>640.9</ele>
        <time>2024-04-25T12:54:49Z</time>
      </trkpt>
      <trkpt lat="44.36734" lon="5.76917">
        <ele>640.8</ele>
        <time>2024-04-25T12:54:52Z</time>
      </trkpt>
      <trkpt lat="44.36742" lon="5.76907">
        <ele>640.6</ele>
        <time>2024-04-25T12:54:55Z</time>
      </trkpt>
      <trkpt lat="44.36752" lon="5.76896">
        <ele>640.5</ele>
        <time>2024-04-25T12:54:58Z</time>
      </trkpt>
      <trkpt lat="44.3676" lon="5.76886">
        <ele>640.3</ele>
        <time>2024-04-25T12:55:01Z</time>
      </trkpt>
      <trkpt lat="44.3677" lon="5.76876">
        <ele>640.2</ele>
        <time>2024-04-25T12:55:04Z</time>
      </trkpt>
      <trkpt lat="44.3678" lon="5.76865">
        <ele>640</ele>
        <time>2024-04-25T12:55:07Z</time>
      </trkpt>
      <trkpt lat="44.3679" lon="5.76858">
        <ele>640</ele>
        <time>2024-04-25T12:55:10Z</time>
      </trkpt>
      <trkpt lat="44.368" lon="5.76859">
        <ele>640</ele>
        <time>2024-04-25T12:55:14Z</time>
      </trkpt>
      <trkpt lat="44.36808" lon="5.76869">
        <ele>639.9</ele>
        <time>2024-04-25T12:55:19Z</time>
      </trkpt>
      <trkpt lat="44.36817" lon="5.7688">
        <ele>639.8</ele>
        <time>2024-04-25T12:55:23Z</time>
      </trkpt>
      <trkpt lat="44.36826" lon="5.76887">
        <ele>639.6</ele>
        <time>2024-04-25T12:55:26Z</time>
      </trkpt>
      <trkpt lat="44.36834" lon="5.76895">
        <ele>639.6</ele>
        <time>2024-04-25T12:55:29Z</time>
      </trkpt>
      <trkpt lat="44.36844" lon="5.76899">
        <ele>639.6</ele>
        <time>2024-04-25T12:55:32Z</time>
      </trkpt>
      <trkpt lat="44.36853" lon="5.769">
        <ele>639.6</ele>
        <time>2024-04-25T12:55:34Z</time>
      </trkpt>
      <trkpt lat="44.36865" lon="5.76904">
        <ele>639.6</ele>
        <time>2024-04-25T12:55:37Z</time>
      </trkpt>
      <trkpt lat="44.36877" lon="5.76906">
        <ele>639.9</ele>
        <time>2024-04-25T12:55:40Z</time>
      </trkpt>
      <trkpt lat="44.36887" lon="5.769">
        <ele>640.1</ele>
        <time>2024-04-25T12:55:43Z</time>
      </trkpt>
      <trkpt lat="44.36894" lon="5.76891">
        <ele>640.4</ele>
        <time>2024-04-25T12:55:46Z</time>
      </trkpt>
      <trkpt lat="44.36905" lon="5.7689">
        <ele>640.9</ele>
        <time>2024-04-25T12:55:50Z</time>
      </trkpt>
      <trkpt lat="44.36914" lon="5.76894">
        <ele>641.4</ele>
        <time>2024-04-25T12:55:53Z</time>
      </trkpt>
      <trkpt lat="44.36924" lon="5.769">
        <ele>642</ele>
        <time>2024-04-25T12:55:57Z</time>
      </trkpt>
      <trkpt lat="44.36934" lon="5.76905">
        <ele>642.7</ele>
        <time>2024-04-25T12:56:01Z</time>
      </trkpt>
      <trkpt lat="44.36943" lon="5.76912">
        <ele>643.4</ele>
        <time>2024-04-25T12:56:05Z</time>
      </trkpt>
      <trkpt lat="44.36952" lon="5.76916">
        <ele>644.1</ele>
        <time>2024-04-25T12:56:09Z</time>
      </trkpt>
      <trkpt lat="44.36962" lon="5.76918">
        <ele>644.8</ele>
        <time>2024-04-25T12:57:16Z</time>
      </trkpt>
      <trkpt lat="44.36972" lon="5.76917">
        <ele>645.3</ele>
        <time>2024-04-25T12:57:20Z</time>
      </trkpt>
      <trkpt lat="44.36983" lon="5.76915">
        <ele>645.1</ele>
        <time>2024-04-25T12:57:24Z</time>
      </trkpt>
      <trkpt lat="44.36994" lon="5.76911">
        <ele>645</ele>
        <time>2024-04-25T12:57:28Z</time>
      </trkpt>
      <trkpt lat="44.37003" lon="5.76908">
        <ele>645</ele>
        <time>2024-04-25T12:57:31Z</time>
      </trkpt>
      <trkpt lat="44.37012" lon="5.76907">
        <ele>645</ele>
        <time>2024-04-25T12:57:34Z</time>
      </trkpt>
      <trkpt lat="44.37021" lon="5.76906">
        <ele>645.1</ele>
        <time>2024-04-25T12:57:37Z</time>
      </trkpt>
      <trkpt lat="44.3703" lon="5.76905">
        <ele>645.1</ele>
        <time>2024-04-25T12:57:40Z</time>
      </trkpt>
      <trkpt lat="44.3704" lon="5.76902">
        <ele>645.3</ele>
        <time>2024-04-25T12:57:44Z</time>
      </trkpt>
      <trkpt lat="44.37051" lon="5.769">
        <ele>645.5</ele>
        <time>2024-04-25T12:57:48Z</time>
      </trkpt>
      <trkpt lat="44.37061" lon="5.76899">
        <ele>645.8</ele>
        <time>2024-04-25T12:57:52Z</time>
      </trkpt>
      <trkpt lat="44.3707" lon="5.76897">
        <ele>646</ele>
        <time>2024-04-25T12:57:56Z</time>
      </trkpt>
      <trkpt lat="44.3708" lon="5.76897">
        <ele>646.2</ele>
        <time>2024-04-25T12:58:00Z</time>
      </trkpt>
      <trkpt lat="44.3709" lon="5.76898">
        <ele>646.5</ele>
        <time>2024-04-25T12:58:04Z</time>
      </trkpt>
      <trkpt lat="44.37099" lon="5.76897">
        <ele>646.8</ele>
        <time>2024-04-25T12:58:08Z</time>
      </trkpt>
      <trkpt lat="44.37108" lon="5.76896">
        <ele>647</ele>
        <time>2024-04-25T12:58:12Z</time>
      </trkpt>
      <trkpt lat="44.37117" lon="5.76895">
        <ele>647.3</ele>
        <time>2024-04-25T12:58:16Z</time>
      </trkpt>
      <trkpt lat="44.37126" lon="5.76894">
        <ele>647.6</ele>
        <time>2024-04-25T12:58:20Z</time>
      </trkpt>
      <trkpt lat="44.37136" lon="5.76893">
        <ele>647.9</ele>
        <time>2024-04-25T12:58:25Z</time>
      </trkpt>
      <trkpt lat="44.37146" lon="5.76894">
        <ele>648.2</ele>
        <time>2024-04-25T12:58:31Z</time>
      </trkpt>
      <trkpt lat="44.37156" lon="5.76894">
        <ele>648.5</ele>
        <time>2024-04-25T12:58:39Z</time>
      </trkpt>
      <trkpt lat="44.37167" lon="5.76896">
        <ele>648.8</ele>
        <time>2024-04-25T12:58:47Z</time>
      </trkpt>
      <trkpt lat="44.37177" lon="5.76897">
        <ele>649.1</ele>
        <time>2024-04-25T12:58:52Z</time>
      </trkpt>
      <trkpt lat="44.37187" lon="5.76896">
        <ele>649.5</ele>
        <time>2024-04-25T12:58:57Z</time>
      </trkpt>
      <trkpt lat="44.37196" lon="5.76893">
        <ele>649.7</ele>
        <time>2024-04-25T12:59:01Z</time>
      </trkpt>
      <trkpt lat="44.37206" lon="5.76888">
        <ele>650.2</ele>
        <time>2024-04-25T12:59:06Z</time>
      </trkpt>
      <trkpt lat="44.37215" lon="5.76884">
        <ele>650.5</ele>
        <time>2024-04-25T12:59:10Z</time>
      </trkpt>
      <trkpt lat="44.37226" lon="5.76882">
        <ele>650.9</ele>
        <time>2024-04-25T12:59:15Z</time>
      </trkpt>
      <trkpt lat="44.37235" lon="5.76881">
        <ele>651.3</ele>
        <time>2024-04-25T12:59:19Z</time>
      </trkpt>
      <trkpt lat="44.37245" lon="5.76876">
        <ele>651.7</ele>
        <time>2024-04-25T12:59:25Z</time>
      </trkpt>
      <trkpt lat="44.37251" lon="5.76866">
        <ele>651.7</ele>
        <time>2024-04-25T12:59:31Z</time>
      </trkpt>
      <trkpt lat="44.37257" lon="5.76856">
        <ele>651.9</ele>
        <time>2024-04-25T12:59:37Z</time>
      </trkpt>
      <trkpt lat="44.37263" lon="5.76846">
        <ele>652.2</ele>
        <time>2024-04-25T12:59:42Z</time>
      </trkpt>
      <trkpt lat="44.3727" lon="5.76837">
        <ele>652.7</ele>
        <time>2024-04-25T12:59:47Z</time>
      </trkpt>
      <trkpt lat="44.37278" lon="5.76831">
        <ele>653.2</ele>
        <time>2024-04-25T12:59:52Z</time>
      </trkpt>
      <trkpt lat="44.37286" lon="5.76824">
        <ele>653.9</ele>
        <time>2024-04-25T13:00:00Z</time>
      </trkpt>
      <trkpt lat="44.37295" lon="5.76817">
        <ele>654.7</ele>
        <time>2024-04-25T13:00:08Z</time>
      </trkpt>
      <trkpt lat="44.37304" lon="5.7681">
        <ele>655.6</ele>
        <time>2024-04-25T13:00:18Z</time>
      </trkpt>
      <trkpt lat="44.37314" lon="5.76805">
        <ele>656.4</ele>
        <time>2024-04-25T13:03:04Z</time>
      </trkpt>
      <trkpt lat="44.37324" lon="5.76801">
        <ele>657.1</ele>
        <time>2024-04-25T13:03:09Z</time>
      </trkpt>
      <trkpt lat="44.37334" lon="5.76798">
        <ele>657.6</ele>
        <time>2024-04-25T13:03:15Z</time>
      </trkpt>
      <trkpt lat="44.37344" lon="5.76796">
        <ele>658.1</ele>
        <time>2024-04-25T13:03:20Z</time>
      </trkpt>
      <trkpt lat="44.37354" lon="5.76794">
        <ele>658.5</ele>
        <time>2024-04-25T13:03:25Z</time>
      </trkpt>
      <trkpt lat="44.37364" lon="5.76791">
        <ele>658.9</ele>
        <time>2024-04-25T13:03:30Z</time>
      </trkpt>
      <trkpt lat="44.37373" lon="5.7679">
        <ele>659.3</ele>
        <time>2024-04-25T13:03:35Z</time>
      </trkpt>
      <trkpt lat="44.37383" lon="5.76787">
        <ele>659.8</ele>
        <time>2024-04-25T13:03:41Z</time>
      </trkpt>
      <trkpt lat="44.37393" lon="5.76785">
        <ele>660.4</ele>
        <time>2024-04-25T13:03:48Z</time>
      </trkpt>
      <trkpt lat="44.37402" lon="5.76783">
        <ele>661</ele>
        <time>2024-04-25T13:03:54Z</time>
      </trkpt>
      <trkpt lat="44.37411" lon="5.76774">
        <ele>661.8</ele>
        <time>2024-04-25T13:04:02Z</time>
      </trkpt>
      <trkpt lat="44.37414" lon="5.76762">
        <ele>662.6</ele>
        <time>2024-04-25T13:04:10Z</time>
      </trkpt>
      <trkpt lat="44.37415" lon="5.76748">
        <ele>663.5</ele>
        <time>2024-04-25T13:04:18Z</time>
      </trkpt>
      <trkpt lat="44.37416" lon="5.76733">
        <ele>664.4</ele>
        <time>2024-04-25T13:04:25Z</time>
      </trkpt>
      <trkpt lat="44.3742" lon="5.76718">
        <ele>665.2</ele>
        <time>2024-04-25T13:04:32Z</time>
      </trkpt>
      <trkpt lat="44.37424" lon="5.76703">
        <ele>666.1</ele>
        <time>2024-04-25T13:04:40Z</time>
      </trkpt>
      <trkpt lat="44.37429" lon="5.76691">
        <ele>666.9</ele>
        <time>2024-04-25T13:04:47Z</time>
      </trkpt>
      <trkpt lat="44.37434" lon="5.76678">
        <ele>667.9</ele>
        <time>2024-04-25T13:04:55Z</time>
      </trkpt>
      <trkpt lat="44.37438" lon="5.76662">
        <ele>669.1</ele>
        <time>2024-04-25T13:05:02Z</time>
      </trkpt>
      <trkpt lat="44.37442" lon="5.76649">
        <ele>670.2</ele>
        <time>2024-04-25T13:05:08Z</time>
      </trkpt>
      <trkpt lat="44.3745" lon="5.76638">
        <ele>671.4</ele>
        <time>2024-04-25T13:05:16Z</time>
      </trkpt>
      <trkpt lat="44.37455" lon="5.76627">
        <ele>672.2</ele>
        <time>2024-04-25T13:05:22Z</time>
      </trkpt>
      <trkpt lat="44.3746" lon="5.76616">
        <ele>672.9</ele>
        <time>2024-04-25T13:05:28Z</time>
      </trkpt>
      <trkpt lat="44.37466" lon="5.76604">
        <ele>673.3</ele>
        <time>2024-04-25T13:05:36Z</time>
      </trkpt>
      <trkpt lat="44.37473" lon="5.76593">
        <ele>673.6</ele>
        <time>2024-04-25T13:05:42Z</time>
      </trkpt>
      <trkpt lat="44.37479" lon="5.76583">
        <ele>673.9</ele>
        <time>2024-04-25T13:05:48Z</time>
      </trkpt>
      <trkpt lat="44.37486" lon="5.76572">
        <ele>674.3</ele>
        <time>2024-04-25T13:05:54Z</time>
      </trkpt>
      <trkpt lat="44.37492" lon="5.76562">
        <ele>674.6</ele>
        <time>2024-04-25T13:05:59Z</time>
      </trkpt>
      <trkpt lat="44.37499" lon="5.76551">
        <ele>675</ele>
        <time>2024-04-25T13:06:03Z</time>
      </trkpt>
      <trkpt lat="44.37506" lon="5.76539">
        <ele>675.6</ele>
        <time>2024-04-25T13:06:08Z</time>
      </trkpt>
      <trkpt lat="44.37513" lon="5.76527">
        <ele>676.2</ele>
        <time>2024-04-25T13:06:14Z</time>
      </trkpt>
      <trkpt lat="44.37521" lon="5.76516">
        <ele>676.8</ele>
        <time>2024-04-25T13:06:19Z</time>
      </trkpt>
      <trkpt lat="44.37529" lon="5.76509">
        <ele>677.3</ele>
        <time>2024-04-25T13:06:23Z</time>
      </trkpt>
      <trkpt lat="44.37538" lon="5.76501">
        <ele>677.8</ele>
        <time>2024-04-25T13:06:28Z</time>
      </trkpt>
      <trkpt lat="44.37546" lon="5.76493">
        <ele>678.3</ele>
        <time>2024-04-25T13:06:33Z</time>
      </trkpt>
      <trkpt lat="44.37553" lon="5.76482">
        <ele>678.7</ele>
        <time>2024-04-25T13:06:38Z</time>
      </trkpt>
      <trkpt lat="44.37559" lon="5.76472">
        <ele>679.2</ele>
        <time>2024-04-25T13:06:43Z</time>
      </trkpt>
      <trkpt lat="44.37565" lon="5.7646">
        <ele>680</ele>
        <time>2024-04-25T13:06:50Z</time>
      </trkpt>
      <trkpt lat="44.37573" lon="5.76453">
        <ele>680.9</ele>
        <time>2024-04-25T13:06:56Z</time>
      </trkpt>
      <trkpt lat="44.37582" lon="5.76451">
        <ele>681.9</ele>
        <time>2024-04-25T13:07:02Z</time>
      </trkpt>
      <trkpt lat="44.37587" lon="5.76463">
        <ele>682.8</ele>
        <time>2024-04-25T13:07:56Z</time>
      </trkpt>
      <trkpt lat="44.3759" lon="5.76476">
        <ele>683.4</ele>
        <time>2024-04-25T13:08:00Z</time>
      </trkpt>
      <trkpt lat="44.37594" lon="5.76489">
        <ele>684</ele>
        <time>2024-04-25T13:08:04Z</time>
      </trkpt>
      <trkpt lat="44.37598" lon="5.76503">
        <ele>684.5</ele>
        <time>2024-04-25T13:08:09Z</time>
      </trkpt>
      <trkpt lat="44.37604" lon="5.76515">
        <ele>684.8</ele>
        <time>2024-04-25T13:08:14Z</time>
      </trkpt>
      <trkpt lat="44.37609" lon="5.76527">
        <ele>685.1</ele>
        <time>2024-04-25T13:08:19Z</time>
      </trkpt>
      <trkpt lat="44.37614" lon="5.76538">
        <ele>685.2</ele>
        <time>2024-04-25T13:08:23Z</time>
      </trkpt>
      <trkpt lat="44.3762" lon="5.76549">
        <ele>685.4</ele>
        <time>2024-04-25T13:08:27Z</time>
      </trkpt>
      <trkpt lat="44.37626" lon="5.76562">
        <ele>685.6</ele>
        <time>2024-04-25T13:08:32Z</time>
      </trkpt>
      <trkpt lat="44.37634" lon="5.76573">
        <ele>685.9</ele>
        <time>2024-04-25T13:08:37Z</time>
      </trkpt>
      <trkpt lat="44.3764" lon="5.76583">
        <ele>686.2</ele>
        <time>2024-04-25T13:08:41Z</time>
      </trkpt>
      <trkpt lat="44.37646" lon="5.76595">
        <ele>686.6</ele>
        <time>2024-04-25T13:08:46Z</time>
      </trkpt>
      <trkpt lat="44.37655" lon="5.76609">
        <ele>687.1</ele>
        <time>2024-04-25T13:08:52Z</time>
      </trkpt>
      <trkpt lat="44.37662" lon="5.76619">
        <ele>687.6</ele>
        <time>2024-04-25T13:08:58Z</time>
      </trkpt>
      <trkpt lat="44.37672" lon="5.76626">
        <ele>688.1</ele>
        <time>2024-04-25T13:09:04Z</time>
      </trkpt>
      <trkpt lat="44.37682" lon="5.76629">
        <ele>688.6</ele>
        <time>2024-04-25T13:09:10Z</time>
      </trkpt>
      <trkpt lat="44.37692" lon="5.76627">
        <ele>689.1</ele>
        <time>2024-04-25T13:09:15Z</time>
      </trkpt>
      <trkpt lat="44.37703" lon="5.76623">
        <ele>689.7</ele>
        <time>2024-04-25T13:09:21Z</time>
      </trkpt>
      <trkpt lat="44.37713" lon="5.76618">
        <ele>690.3</ele>
        <time>2024-04-25T13:09:27Z</time>
      </trkpt>
      <trkpt lat="44.37722" lon="5.76612">
        <ele>690.9</ele>
        <time>2024-04-25T13:09:33Z</time>
      </trkpt>
      <trkpt lat="44.37731" lon="5.76607">
        <ele>691.4</ele>
        <time>2024-04-25T13:09:38Z</time>
      </trkpt>
      <trkpt lat="44.37741" lon="5.76602">
        <ele>692</ele>
        <time>2024-04-25T13:09:45Z</time>
      </trkpt>
      <trkpt lat="44.3775" lon="5.766">
        <ele>692.5</ele>
        <time>2024-04-25T13:09:50Z</time>
      </trkpt>
      <trkpt lat="44.37761" lon="5.76604">
        <ele>693.2</ele>
        <time>2024-04-25T13:09:56Z</time>
      </trkpt>
      <trkpt lat="44.37767" lon="5.76614">
        <ele>693.9</ele>
        <time>2024-04-25T13:10:02Z</time>
      </trkpt>
      <trkpt lat="44.37773" lon="5.76626">
        <ele>694.7</ele>
        <time>2024-04-25T13:10:09Z</time>
      </trkpt>
      <trkpt lat="44.37776" lon="5.76642">
        <ele>695.5</ele>
        <time>2024-04-25T13:10:17Z</time>
      </trkpt>
      <trkpt lat="44.37778" lon="5.76658">
        <ele>696.4</ele>
        <time>2024-04-25T13:10:25Z</time>
      </trkpt>
      <trkpt lat="44.3778" lon="5.76673">
        <ele>697.3</ele>
        <time>2024-04-25T13:10:33Z</time>
      </trkpt>
      <trkpt lat="44.37785" lon="5.76686">
        <ele>698.2</ele>
        <time>2024-04-25T13:10:41Z</time>
      </trkpt>
      <trkpt lat="44.37793" lon="5.76696">
        <ele>699.1</ele>
        <time>2024-04-25T13:10:49Z</time>
      </trkpt>
      <trkpt lat="44.37801" lon="5.76705">
        <ele>700.1</ele>
        <time>2024-04-25T13:10:57Z</time>
      </trkpt>
      <trkpt lat="44.3781" lon="5.76714">
        <ele>701.1</ele>
        <time>2024-04-25T13:11:05Z</time>
      </trkpt>
      <trkpt lat="44.37819" lon="5.76721">
        <ele>702</ele>
        <time>2024-04-25T13:11:13Z</time>
      </trkpt>
      <trkpt lat="44.37827" lon="5.76727">
        <ele>703.1</ele>
        <time>2024-04-25T13:13:55Z</time>
      </trkpt>
      <trkpt lat="44.37837" lon="5.7673">
        <ele>703.9</ele>
        <time>2024-04-25T13:14:01Z</time>
      </trkpt>
      <trkpt lat="44.37847" lon="5.76736">
        <ele>704.9</ele>
        <time>2024-04-25T13:14:08Z</time>
      </trkpt>
      <trkpt lat="44.37856" lon="5.76742">
        <ele>705.9</ele>
        <time>2024-04-25T13:14:14Z</time>
      </trkpt>
      <trkpt lat="44.37866" lon="5.76748">
        <ele>707</ele>
        <time>2024-04-25T13:14:21Z</time>
      </trkpt>
      <trkpt lat="44.37877" lon="5.76754">
        <ele>708.1</ele>
        <time>2024-04-25T13:14:29Z</time>
      </trkpt>
      <trkpt lat="44.37885" lon="5.76764">
        <ele>709</ele>
        <time>2024-04-25T13:14:37Z</time>
      </trkpt>
      <trkpt lat="44.3789" lon="5.76776">
        <ele>709.7</ele>
        <time>2024-04-25T13:14:44Z</time>
      </trkpt>
      <trkpt lat="44.37893" lon="5.76788">
        <ele>710.3</ele>
        <time>2024-04-25T13:14:50Z</time>
      </trkpt>
      <trkpt lat="44.37898" lon="5.76802">
        <ele>711.1</ele>
        <time>2024-04-25T13:14:58Z</time>
      </trkpt>
      <trkpt lat="44.37903" lon="5.76814">
        <ele>711.9</ele>
        <time>2024-04-25T13:15:06Z</time>
      </trkpt>
      <trkpt lat="44.37907" lon="5.76828">
        <ele>713</ele>
        <time>2024-04-25T13:15:14Z</time>
      </trkpt>
      <trkpt lat="44.37909" lon="5.76843">
        <ele>714.2</ele>
        <time>2024-04-25T13:15:22Z</time>
      </trkpt>
      <trkpt lat="44.3791" lon="5.76856">
        <ele>715.2</ele>
        <time>2024-04-25T13:15:28Z</time>
      </trkpt>
      <trkpt lat="44.37912" lon="5.76872">
        <ele>716.3</ele>
        <time>2024-04-25T13:15:36Z</time>
      </trkpt>
      <trkpt lat="44.37918" lon="5.76882">
        <ele>716.9</ele>
        <time>2024-04-25T13:15:42Z</time>
      </trkpt>
      <trkpt lat="44.37928" lon="5.76888">
        <ele>717.3</ele>
        <time>2024-04-25T13:15:48Z</time>
      </trkpt>
      <trkpt lat="44.37939" lon="5.76891">
        <ele>717.5</ele>
        <time>2024-04-25T13:15:56Z</time>
      </trkpt>
      <trkpt lat="44.37948" lon="5.76894">
        <ele>717.6</ele>
        <time>2024-04-25T13:16:02Z</time>
      </trkpt>
      <trkpt lat="44.37956" lon="5.769">
        <ele>717.7</ele>
        <time>2024-04-25T13:16:09Z</time>
      </trkpt>
      <trkpt lat="44.37964" lon="5.76908">
        <ele>717.9</ele>
        <time>2024-04-25T13:16:17Z</time>
      </trkpt>
      <trkpt lat="44.37973" lon="5.76914">
        <ele>718.2</ele>
        <time>2024-04-25T13:16:25Z</time>
      </trkpt>
      <trkpt lat="44.37982" lon="5.76916">
        <ele>718.8</ele>
        <time>2024-04-25T13:16:35Z</time>
      </trkpt>
      <trkpt lat="44.37992" lon="5.76915">
        <ele>719.6</ele>
        <time>2024-04-25T13:16:46Z</time>
      </trkpt>
      <trkpt lat="44.38002" lon="5.76914">
        <ele>720.4</ele>
        <time>2024-04-25T13:16:55Z</time>
      </trkpt>
      <trkpt lat="44.38011" lon="5.76913">
        <ele>721.1</ele>
        <time>2024-04-25T13:17:01Z</time>
      </trkpt>
      <trkpt lat="44.38022" lon="5.76911">
        <ele>722.1</ele>
        <time>2024-04-25T13:17:09Z</time>
      </trkpt>
      <trkpt lat="44.38032" lon="5.7691">
        <ele>722.9</ele>
        <time>2024-04-25T13:17:16Z</time>
      </trkpt>
      <trkpt lat="44.38044" lon="5.76911">
        <ele>723.8</ele>
        <time>2024-04-25T13:17:24Z</time>
      </trkpt>
      <trkpt lat="44.38054" lon="5.76911">
        <ele>724.7</ele>
        <time>2024-04-25T13:18:28Z</time>
      </trkpt>
      <trkpt lat="44.38062" lon="5.76904">
        <ele>725.5</ele>
        <time>2024-04-25T13:18:32Z</time>
      </trkpt>
      <trkpt lat="44.3807" lon="5.76897">
        <ele>726.1</ele>
        <time>2024-04-25T13:18:36Z</time>
      </trkpt>
      <trkpt lat="44.38079" lon="5.76887">
        <ele>727</ele>
        <time>2024-04-25T13:18:43Z</time>
      </trkpt>
      <trkpt lat="44.38087" lon="5.76879">
        <ele>727.5</ele>
        <time>2024-04-25T13:18:48Z</time>
      </trkpt>
      <trkpt lat="44.38095" lon="5.76873">
        <ele>727.7</ele>
        <time>2024-04-25T13:18:53Z</time>
      </trkpt>
      <trkpt lat="44.38105" lon="5.76875">
        <ele>728.2</ele>
        <time>2024-04-25T13:18:59Z</time>
      </trkpt>
      <trkpt lat="44.38114" lon="5.76879">
        <ele>728.5</ele>
        <time>2024-04-25T13:19:04Z</time>
      </trkpt>
      <trkpt lat="44.38121" lon="5.76892">
        <ele>728.9</ele>
        <time>2024-04-25T13:19:10Z</time>
      </trkpt>
      <trkpt lat="44.38124" lon="5.76907">
        <ele>729.4</ele>
        <time>2024-04-25T13:19:16Z</time>
      </trkpt>
      <trkpt lat="44.38127" lon="5.7692">
        <ele>729.9</ele>
        <time>2024-04-25T13:19:21Z</time>
      </trkpt>
      <trkpt lat="44.38127" lon="5.76935">
        <ele>730.3</ele>
        <time>2024-04-25T13:19:26Z</time>
      </trkpt>
      <trkpt lat="44.38123" lon="5.7695">
        <ele>730.8</ele>
        <time>2024-04-25T13:19:32Z</time>
      </trkpt>
      <trkpt lat="44.38117" lon="5.7696">
        <ele>731.2</ele>
        <time>2024-04-25T13:20:24Z</time>
      </trkpt>
      <trkpt lat="44.38109" lon="5.76969">
        <ele>731</ele>
        <time>2024-04-25T13:21:02Z</time>
      </trkpt>
      <trkpt lat="44.38098" lon="5.76979">
        <ele>729.1</ele>
        <time>2024-04-25T13:21:05Z</time>
      </trkpt>
      <trkpt lat="44.38091" lon="5.76987">
        <ele>727.9</ele>
        <time>2024-04-25T13:21:08Z</time>
      </trkpt>
      <trkpt lat="44.38085" lon="5.76997">
        <ele>727</ele>
        <time>2024-04-25T13:21:11Z</time>
      </trkpt>
      <trkpt lat="44.38082" lon="5.77012">
        <ele>726</ele>
        <time>2024-04-25T13:21:15Z</time>
      </trkpt>
      <trkpt lat="44.38082" lon="5.77026">
        <ele>725.4</ele>
        <time>2024-04-25T13:21:18Z</time>
      </trkpt>
      <trkpt lat="44.38082" lon="5.77042">
        <ele>725</ele>
        <time>2024-04-25T13:21:21Z</time>
      </trkpt>
      <trkpt lat="44.38085" lon="5.77059">
        <ele>724.7</ele>
        <time>2024-04-25T13:21:24Z</time>
      </trkpt>
      <trkpt lat="44.38089" lon="5.77073">
        <ele>724.4</ele>
        <time>2024-04-25T13:21:27Z</time>
      </trkpt>
      <trkpt lat="44.38093" lon="5.77085">
        <ele>724.1</ele>
        <time>2024-04-25T13:21:30Z</time>
      </trkpt>
      <trkpt lat="44.38098" lon="5.77098">
        <ele>723.4</ele>
        <time>2024-04-25T13:21:33Z</time>
      </trkpt>
      <trkpt lat="44.38103" lon="5.77111">
        <ele>722.4</ele>
        <time>2024-04-25T13:21:36Z</time>
      </trkpt>
      <trkpt lat="44.38109" lon="5.77123">
        <ele>721.4</ele>
        <time>2024-04-25T13:21:38Z</time>
      </trkpt>
      <trkpt lat="44.38117" lon="5.77137">
        <ele>720.3</ele>
        <time>2024-04-25T13:21:42Z</time>
      </trkpt>
      <trkpt lat="44.38125" lon="5.77148">
        <ele>719.5</ele>
        <time>2024-04-25T13:21:45Z</time>
      </trkpt>
      <trkpt lat="44.38133" lon="5.77157">
        <ele>718.4</ele>
        <time>2024-04-25T13:21:48Z</time>
      </trkpt>
      <trkpt lat="44.38143" lon="5.77159">
        <ele>717.2</ele>
        <time>2024-04-25T13:21:51Z</time>
      </trkpt>
      <trkpt lat="44.38154" lon="5.77159">
        <ele>715.8</ele>
        <time>2024-04-25T13:21:54Z</time>
      </trkpt>
      <trkpt lat="44.38166" lon="5.77165">
        <ele>714.3</ele>
        <time>2024-04-25T13:21:57Z</time>
      </trkpt>
      <trkpt lat="44.38173" lon="5.77173">
        <ele>713.5</ele>
        <time>2024-04-25T13:21:59Z</time>
      </trkpt>
      <trkpt lat="44.38177" lon="5.7719">
        <ele>712.7</ele>
        <time>2024-04-25T13:22:02Z</time>
      </trkpt>
      <trkpt lat="44.38174" lon="5.77205">
        <ele>712.3</ele>
        <time>2024-04-25T13:22:05Z</time>
      </trkpt>
      <trkpt lat="44.38167" lon="5.77217">
        <ele>712</ele>
        <time>2024-04-25T13:22:08Z</time>
      </trkpt>
      <trkpt lat="44.3816" lon="5.77227">
        <ele>711.7</ele>
        <time>2024-04-25T13:22:11Z</time>
      </trkpt>
      <trkpt lat="44.38151" lon="5.77236">
        <ele>711.3</ele>
        <time>2024-04-25T13:22:14Z</time>
      </trkpt>
      <trkpt lat="44.38144" lon="5.77245">
        <ele>711</ele>
        <time>2024-04-25T13:22:17Z</time>
      </trkpt>
      <trkpt lat="44.38153" lon="5.77248">
        <ele>713.2</ele>
        <time>2024-04-25T13:22:47Z</time>
      </trkpt>
      <trkpt lat="44.38164" lon="5.77242">
        <ele>715.3</ele>
        <time>2024-04-25T13:24:59Z</time>
      </trkpt>
      <trkpt lat="44.38174" lon="5.7724">
        <ele>717.7</ele>
        <time>2024-04-25T13:26:15Z</time>
      </trkpt>
      <trkpt lat="44.38182" lon="5.77233">
        <ele>719.6</ele>
        <time>2024-04-25T13:26:24Z</time>
      </trkpt>
      <trkpt lat="44.38192" lon="5.77228">
        <ele>722</ele>
        <time>2024-04-25T13:27:02Z</time>
      </trkpt>
      <trkpt lat="44.38202" lon="5.77223">
        <ele>724.4</ele>
        <time>2024-04-25T13:27:22Z</time>
      </trkpt>
      <trkpt lat="44.38212" lon="5.77221">
        <ele>727</ele>
        <time>2024-04-25T13:27:42Z</time>
      </trkpt>
      <trkpt lat="44.38219" lon="5.77213">
        <ele>729.8</ele>
        <time>2024-04-25T13:28:15Z</time>
      </trkpt>
      <trkpt lat="44.38228" lon="5.77208">
        <ele>732.7</ele>
        <time>2024-04-25T13:28:26Z</time>
      </trkpt>
      <trkpt lat="44.38236" lon="5.772">
        <ele>735.3</ele>
        <time>2024-04-25T13:28:45Z</time>
      </trkpt>
      <trkpt lat="44.38244" lon="5.7719">
        <ele>737.3</ele>
        <time>2024-04-25T13:29:02Z</time>
      </trkpt>
      <trkpt lat="44.38252" lon="5.77196">
        <ele>738.7</ele>
        <time>2024-04-25T13:30:11Z</time>
      </trkpt>
      <trkpt lat="44.38255" lon="5.7721">
        <ele>738.5</ele>
        <time>2024-04-25T13:30:15Z</time>
      </trkpt>
      <trkpt lat="44.38258" lon="5.77226">
        <ele>738.2</ele>
        <time>2024-04-25T13:30:19Z</time>
      </trkpt>
      <trkpt lat="44.38261" lon="5.7724">
        <ele>737.7</ele>
        <time>2024-04-25T13:30:22Z</time>
      </trkpt>
      <trkpt lat="44.38266" lon="5.77254">
        <ele>737.3</ele>
        <time>2024-04-25T13:30:25Z</time>
      </trkpt>
      <trkpt lat="44.38273" lon="5.77263">
        <ele>737</ele>
        <time>2024-04-25T13:30:28Z</time>
      </trkpt>
      <trkpt lat="44.3828" lon="5.77273">
        <ele>736.8</ele>
        <time>2024-04-25T13:30:31Z</time>
      </trkpt>
      <trkpt lat="44.38282" lon="5.77288">
        <ele>736.9</ele>
        <time>2024-04-25T13:30:36Z</time>
      </trkpt>
      <trkpt lat="44.38287" lon="5.773">
        <ele>737</ele>
        <time>2024-04-25T13:30:40Z</time>
      </trkpt>
      <trkpt lat="44.38292" lon="5.77312">
        <ele>737.2</ele>
        <time>2024-04-25T13:30:44Z</time>
      </trkpt>
      <trkpt lat="44.38297" lon="5.77326">
        <ele>737.3</ele>
        <time>2024-04-25T13:30:48Z</time>
      </trkpt>
      <trkpt lat="44.383" lon="5.77341">
        <ele>737.4</ele>
        <time>2024-04-25T13:30:52Z</time>
      </trkpt>
      <trkpt lat="44.38302" lon="5.77356">
        <ele>737.5</ele>
        <time>2024-04-25T13:30:56Z</time>
      </trkpt>
      <trkpt lat="44.38305" lon="5.77368">
        <ele>737.5</ele>
        <time>2024-04-25T13:30:59Z</time>
      </trkpt>
      <trkpt lat="44.38306" lon="5.77383">
        <ele>737.6</ele>
        <time>2024-04-25T13:31:03Z</time>
      </trkpt>
      <trkpt lat="44.38309" lon="5.77396">
        <ele>737.7</ele>
        <time>2024-04-25T13:31:08Z</time>
      </trkpt>
      <trkpt lat="44.38314" lon="5.77409">
        <ele>737.8</ele>
        <time>2024-04-25T13:32:15Z</time>
      </trkpt>
      <trkpt lat="44.38317" lon="5.77422">
        <ele>737.7</ele>
        <time>2024-04-25T13:32:18Z</time>
      </trkpt>
      <trkpt lat="44.38318" lon="5.77438">
        <ele>737.7</ele>
        <time>2024-04-25T13:32:21Z</time>
      </trkpt>
      <trkpt lat="44.38327" lon="5.77446">
        <ele>737.7</ele>
        <time>2024-04-25T13:32:26Z</time>
      </trkpt>
      <trkpt lat="44.38334" lon="5.77454">
        <ele>737.8</ele>
        <time>2024-04-25T13:32:29Z</time>
      </trkpt>
      <trkpt lat="44.38344" lon="5.77463">
        <ele>737.9</ele>
        <time>2024-04-25T13:32:35Z</time>
      </trkpt>
      <trkpt lat="44.38351" lon="5.77473">
        <ele>738.1</ele>
        <time>2024-04-25T13:32:40Z</time>
      </trkpt>
      <trkpt lat="44.38357" lon="5.77486">
        <ele>738.1</ele>
        <time>2024-04-25T13:32:44Z</time>
      </trkpt>
      <trkpt lat="44.38358" lon="5.77499">
        <ele>738</ele>
        <time>2024-04-25T13:32:47Z</time>
      </trkpt>
      <trkpt lat="44.3836" lon="5.77512">
        <ele>737.9</ele>
        <time>2024-04-25T13:32:51Z</time>
      </trkpt>
      <trkpt lat="44.38362" lon="5.77526">
        <ele>737.8</ele>
        <time>2024-04-25T13:32:54Z</time>
      </trkpt>
      <trkpt lat="44.38365" lon="5.77539">
        <ele>737.7</ele>
        <time>2024-04-25T13:32:57Z</time>
      </trkpt>
      <trkpt lat="44.38369" lon="5.77551">
        <ele>737.6</ele>
        <time>2024-04-25T13:33:00Z</time>
      </trkpt>
      <trkpt lat="44.38374" lon="5.77563">
        <ele>737.5</ele>
        <time>2024-04-25T13:33:03Z</time>
      </trkpt>
      <trkpt lat="44.38379" lon="5.77576">
        <ele>737.4</ele>
        <time>2024-04-25T13:33:06Z</time>
      </trkpt>
      <trkpt lat="44.38384" lon="5.77587">
        <ele>737.3</ele>
        <time>2024-04-25T13:33:09Z</time>
      </trkpt>
      <trkpt lat="44.38388" lon="5.776">
        <ele>737.1</ele>
        <time>2024-04-25T13:33:12Z</time>
      </trkpt>
      <trkpt lat="44.38393" lon="5.77616">
        <ele>736.8</ele>
        <time>2024-04-25T13:33:15Z</time>
      </trkpt>
      <trkpt lat="44.38397" lon="5.77634">
        <ele>736.5</ele>
        <time>2024-04-25T13:33:18Z</time>
      </trkpt>
      <trkpt lat="44.38399" lon="5.7765">
        <ele>736.4</ele>
        <time>2024-04-25T13:33:22Z</time>
      </trkpt>
      <trkpt lat="44.384" lon="5.77665">
        <ele>736.3</ele>
        <time>2024-04-25T13:33:25Z</time>
      </trkpt>
      <trkpt lat="44.38404" lon="5.7768">
        <ele>736.3</ele>
        <time>2024-04-25T13:33:28Z</time>
      </trkpt>
      <trkpt lat="44.38406" lon="5.77694">
        <ele>736.4</ele>
        <time>2024-04-25T13:33:31Z</time>
      </trkpt>
      <trkpt lat="44.38406" lon="5.77707">
        <ele>736.5</ele>
        <time>2024-04-25T13:33:34Z</time>
      </trkpt>
      <trkpt lat="44.38405" lon="5.77721">
        <ele>736.6</ele>
        <time>2024-04-25T13:33:38Z</time>
      </trkpt>
      <trkpt lat="44.38402" lon="5.77736">
        <ele>736.6</ele>
        <time>2024-04-25T13:33:42Z</time>
      </trkpt>
      <trkpt lat="44.38399" lon="5.77753">
        <ele>736.5</ele>
        <time>2024-04-25T13:33:46Z</time>
      </trkpt>
      <trkpt lat="44.38398" lon="5.77767">
        <ele>736.4</ele>
        <time>2024-04-25T13:33:49Z</time>
      </trkpt>
      <trkpt lat="44.38397" lon="5.77781">
        <ele>736</ele>
        <time>2024-04-25T13:33:52Z</time>
      </trkpt>
      <trkpt lat="44.38395" lon="5.77797">
        <ele>735.5</ele>
        <time>2024-04-25T13:33:55Z</time>
      </trkpt>
      <trkpt lat="44.38395" lon="5.7781">
        <ele>735.1</ele>
        <time>2024-04-25T13:33:57Z</time>
      </trkpt>
      <trkpt lat="44.38397" lon="5.77823">
        <ele>734.6</ele>
        <time>2024-04-25T13:33:59Z</time>
      </trkpt>
      <trkpt lat="44.38402" lon="5.7784">
        <ele>733.8</ele>
        <time>2024-04-25T13:34:02Z</time>
      </trkpt>
      <trkpt lat="44.38404" lon="5.77855">
        <ele>733.3</ele>
        <time>2024-04-25T13:34:05Z</time>
      </trkpt>
      <trkpt lat="44.38407" lon="5.77874">
        <ele>733.1</ele>
        <time>2024-04-25T13:34:08Z</time>
      </trkpt>
      <trkpt lat="44.38409" lon="5.77892">
        <ele>733</ele>
        <time>2024-04-25T13:34:11Z</time>
      </trkpt>
      <trkpt lat="44.38409" lon="5.77905">
        <ele>733</ele>
        <time>2024-04-25T13:34:13Z</time>
      </trkpt>
      <trkpt lat="44.3841" lon="5.77923">
        <ele>733.1</ele>
        <time>2024-04-25T13:34:16Z</time>
      </trkpt>
      <trkpt lat="44.38412" lon="5.77939">
        <ele>733.3</ele>
        <time>2024-04-25T13:34:19Z</time>
      </trkpt>
      <trkpt lat="44.38414" lon="5.77956">
        <ele>733.7</ele>
        <time>2024-04-25T13:34:22Z</time>
      </trkpt>
      <trkpt lat="44.38416" lon="5.77971">
        <ele>734.2</ele>
        <time>2024-04-25T13:34:25Z</time>
      </trkpt>
      <trkpt lat="44.38417" lon="5.77985">
        <ele>734.8</ele>
        <time>2024-04-25T13:34:28Z</time>
      </trkpt>
      <trkpt lat="44.38418" lon="5.77998">
        <ele>735.5</ele>
        <time>2024-04-25T13:34:32Z</time>
      </trkpt>
      <trkpt lat="44.38422" lon="5.7801">
        <ele>736</ele>
        <time>2024-04-25T13:34:36Z</time>
      </trkpt>
      <trkpt lat="44.38429" lon="5.78021">
        <ele>736.4</ele>
        <time>2024-04-25T13:34:40Z</time>
      </trkpt>
      <trkpt lat="44.38436" lon="5.78031">
        <ele>736.6</ele>
        <time>2024-04-25T13:34:44Z</time>
      </trkpt>
      <trkpt lat="44.38443" lon="5.78041">
        <ele>736.6</ele>
        <time>2024-04-25T13:34:47Z</time>
      </trkpt>
      <trkpt lat="44.38448" lon="5.78054">
        <ele>736.5</ele>
        <time>2024-04-25T13:34:50Z</time>
      </trkpt>
      <trkpt lat="44.38454" lon="5.78067">
        <ele>736.3</ele>
        <time>2024-04-25T13:34:53Z</time>
      </trkpt>
      <trkpt lat="44.3846" lon="5.7808">
        <ele>736</ele>
        <time>2024-04-25T13:34:56Z</time>
      </trkpt>
      <trkpt lat="44.38464" lon="5.78096">
        <ele>735.6</ele>
        <time>2024-04-25T13:34:59Z</time>
      </trkpt>
      <trkpt lat="44.38468" lon="5.78112">
        <ele>735.2</ele>
        <time>2024-04-25T13:35:02Z</time>
      </trkpt>
      <trkpt lat="44.38468" lon="5.78127">
        <ele>734.7</ele>
        <time>2024-04-25T13:35:05Z</time>
      </trkpt>
      <trkpt lat="44.38471" lon="5.78142">
        <ele>734.2</ele>
        <time>2024-04-25T13:35:08Z</time>
      </trkpt>
      <trkpt lat="44.38476" lon="5.78157">
        <ele>733.6</ele>
        <time>2024-04-25T13:35:11Z</time>
      </trkpt>
      <trkpt lat="44.38482" lon="5.78173">
        <ele>733.1</ele>
        <time>2024-04-25T13:35:14Z</time>
      </trkpt>
      <trkpt lat="44.38485" lon="5.78185">
        <ele>732.9</ele>
        <time>2024-04-25T13:35:16Z</time>
      </trkpt>
      <trkpt lat="44.38491" lon="5.78202">
        <ele>732.5</ele>
        <time>2024-04-25T13:35:19Z</time>
      </trkpt>
      <trkpt lat="44.38494" lon="5.78214">
        <ele>732.4</ele>
        <time>2024-04-25T13:35:21Z</time>
      </trkpt>
      <trkpt lat="44.38499" lon="5.78225">
        <ele>732.3</ele>
        <time>2024-04-25T13:35:23Z</time>
      </trkpt>
      <trkpt lat="44.38507" lon="5.78241">
        <ele>732.2</ele>
        <time>2024-04-25T13:35:26Z</time>
      </trkpt>
      <trkpt lat="44.38512" lon="5.78252">
        <ele>732.2</ele>
        <time>2024-04-25T13:35:28Z</time>
      </trkpt>
      <trkpt lat="44.38518" lon="5.78264">
        <ele>732.2</ele>
        <time>2024-04-25T13:35:30Z</time>
      </trkpt>
      <trkpt lat="44.38524" lon="5.78276">
        <ele>732.2</ele>
        <time>2024-04-25T13:35:32Z</time>
      </trkpt>
      <trkpt lat="44.38529" lon="5.78288">
        <ele>732.2</ele>
        <time>2024-04-25T13:35:34Z</time>
      </trkpt>
      <trkpt lat="44.38535" lon="5.78299">
        <ele>732.2</ele>
        <time>2024-04-25T13:35:36Z</time>
      </trkpt>
      <trkpt lat="44.38542" lon="5.78312">
        <ele>732.3</ele>
        <time>2024-04-25T13:35:39Z</time>
      </trkpt>
      <trkpt lat="44.38548" lon="5.78322">
        <ele>732.3</ele>
        <time>2024-04-25T13:35:42Z</time>
      </trkpt>
      <trkpt lat="44.38554" lon="5.78332">
        <ele>732.2</ele>
        <time>2024-04-25T13:35:45Z</time>
      </trkpt>
      <trkpt lat="44.38562" lon="5.78341">
        <ele>731.9</ele>
        <time>2024-04-25T13:35:48Z</time>
      </trkpt>
      <trkpt lat="44.3857" lon="5.78351">
        <ele>731.7</ele>
        <time>2024-04-25T13:35:51Z</time>
      </trkpt>
      <trkpt lat="44.38578" lon="5.78364">
        <ele>731.5</ele>
        <time>2024-04-25T13:35:54Z</time>
      </trkpt>
      <trkpt lat="44.38588" lon="5.78375">
        <ele>731.5</ele>
        <time>2024-04-25T13:35:57Z</time>
      </trkpt>
      <trkpt lat="44.38596" lon="5.78386">
        <ele>731.7</ele>
        <time>2024-04-25T13:36:01Z</time>
      </trkpt>
      <trkpt lat="44.38603" lon="5.78395">
        <ele>732.1</ele>
        <time>2024-04-25T13:36:05Z</time>
      </trkpt>
      <trkpt lat="44.38611" lon="5.78404">
        <ele>732.6</ele>
        <time>2024-04-25T13:36:11Z</time>
      </trkpt>
      <trkpt lat="44.38617" lon="5.78414">
        <ele>733.1</ele>
        <time>2024-04-25T13:37:15Z</time>
      </trkpt>
      <trkpt lat="44.3862" lon="5.78427">
        <ele>733.6</ele>
        <time>2024-04-25T13:37:43Z</time>
      </trkpt>
      <trkpt lat="44.38624" lon="5.7844">
        <ele>734</ele>
        <time>2024-04-25T13:38:07Z</time>
      </trkpt>
      <trkpt lat="44.38628" lon="5.78455">
        <ele>734.5</ele>
        <time>2024-04-25T13:38:46Z</time>
      </trkpt>
      <trkpt lat="44.38635" lon="5.78465">
        <ele>735</ele>
        <time>2024-04-25T13:38:51Z</time>
      </trkpt>
      <trkpt lat="44.38641" lon="5.78475">
        <ele>735.5</ele>
        <time>2024-04-25T13:38:59Z</time>
      </trkpt>
      <trkpt lat="44.38648" lon="5.78488">
        <ele>736</ele>
        <time>2024-04-25T13:39:07Z</time>
      </trkpt>
      <trkpt lat="44.38651" lon="5.78501">
        <ele>736.6</ele>
        <time>2024-04-25T13:39:13Z</time>
      </trkpt>
      <trkpt lat="44.38655" lon="5.78515">
        <ele>737.1</ele>
        <time>2024-04-25T13:39:19Z</time>
      </trkpt>
      <trkpt lat="44.38659" lon="5.78527">
        <ele>737.6</ele>
        <time>2024-04-25T13:39:23Z</time>
      </trkpt>
      <trkpt lat="44.38664" lon="5.78542">
        <ele>738.1</ele>
        <time>2024-04-25T13:39:30Z</time>
      </trkpt>
      <trkpt lat="44.38668" lon="5.78554">
        <ele>738.6</ele>
        <time>2024-04-25T13:39:35Z</time>
      </trkpt>
      <trkpt lat="44.38671" lon="5.78569">
        <ele>739.2</ele>
        <time>2024-04-25T13:39:43Z</time>
      </trkpt>
      <trkpt lat="44.38677" lon="5.78579">
        <ele>739.7</ele>
        <time>2024-04-25T13:39:50Z</time>
      </trkpt>
      <trkpt lat="44.38682" lon="5.78596">
        <ele>740.5</ele>
        <time>2024-04-25T13:39:58Z</time>
      </trkpt>
      <trkpt lat="44.38685" lon="5.78608">
        <ele>741.1</ele>
        <time>2024-04-25T13:40:05Z</time>
      </trkpt>
      <trkpt lat="44.38685" lon="5.78622">
        <ele>741.6</ele>
        <time>2024-04-25T13:40:12Z</time>
      </trkpt>
      <trkpt lat="44.38686" lon="5.78635">
        <ele>742.1</ele>
        <time>2024-04-25T13:40:18Z</time>
      </trkpt>
      <trkpt lat="44.38689" lon="5.78648">
        <ele>742.7</ele>
        <time>2024-04-25T13:41:00Z</time>
      </trkpt>
      <trkpt lat="44.38693" lon="5.78662">
        <ele>743.2</ele>
        <time>2024-04-25T13:41:07Z</time>
      </trkpt>
      <trkpt lat="44.38699" lon="5.78672">
        <ele>743.9</ele>
        <time>2024-04-25T13:41:53Z</time>
      </trkpt>
      <trkpt lat="44.38707" lon="5.78681">
        <ele>744.4</ele>
        <time>2024-04-25T13:41:58Z</time>
      </trkpt>
      <trkpt lat="44.38716" lon="5.78685">
        <ele>745.1</ele>
        <time>2024-04-25T13:42:03Z</time>
      </trkpt>
      <trkpt lat="44.38725" lon="5.7869">
        <ele>745.9</ele>
        <time>2024-04-25T13:42:18Z</time>
      </trkpt>
      <trkpt lat="44.38733" lon="5.78698">
        <ele>762.4</ele>
        <time>2024-04-25T13:42:30Z</time>
      </trkpt>
      <trkpt lat="44.38741" lon="5.78709">
        <ele>781.5</ele>
        <time>2024-04-25T13:42:40Z</time>
      </trkpt>
      <trkpt lat="44.38744" lon="5.78721">
        <ele>781.6</ele>
        <time>2024-04-25T13:42:51Z</time>
      </trkpt>
      <trkpt lat="44.38746" lon="5.78735">
        <ele>781.6</ele>
        <time>2024-04-25T13:42:57Z</time>
      </trkpt>
      <trkpt lat="44.38746" lon="5.78749">
        <ele>781.6</ele>
        <time>2024-04-25T13:43:03Z</time>
      </trkpt>
      <trkpt lat="44.38747" lon="5.78764">
        <ele>781.6</ele>
        <time>2024-04-25T13:43:59Z</time>
      </trkpt>
      <trkpt lat="44.38746" lon="5.78777">
        <ele>781.6</ele>
        <time>2024-04-25T13:44:04Z</time>
      </trkpt>
      <trkpt lat="44.38748" lon="5.78792">
        <ele>781.5</ele>
        <time>2024-04-25T13:44:08Z</time>
      </trkpt>
      <trkpt lat="44.38752" lon="5.78806">
        <ele>781.5</ele>
        <time>2024-04-25T13:44:13Z</time>
      </trkpt>
      <trkpt lat="44.3876" lon="5.78816">
        <ele>781.5</ele>
        <time>2024-04-25T13:44:18Z</time>
      </trkpt>
      <trkpt lat="44.38771" lon="5.78822">
        <ele>781.5</ele>
        <time>2024-04-25T13:44:24Z</time>
      </trkpt>
      <trkpt lat="44.38781" lon="5.78828">
        <ele>781.5</ele>
        <time>2024-04-25T13:44:36Z</time>
      </trkpt>
      <trkpt lat="44.38777" lon="5.78841">
        <ele>781.2</ele>
        <time>2024-04-25T13:46:26Z</time>
      </trkpt>
      <trkpt lat="44.38787" lon="5.78842">
        <ele>781</ele>
        <time>2024-04-25T13:47:01Z</time>
      </trkpt>
      <trkpt lat="44.38796" lon="5.78841">
        <ele>780.9</ele>
        <time>2024-04-25T13:47:16Z</time>
      </trkpt>
      <trkpt lat="44.38804" lon="5.78848">
        <ele>780.8</ele>
        <time>2024-04-25T13:47:21Z</time>
      </trkpt>
      <trkpt lat="44.3881" lon="5.78858">
        <ele>780.7</ele>
        <time>2024-04-25T13:47:25Z</time>
      </trkpt>
      <trkpt lat="44.38819" lon="5.78867">
        <ele>780.5</ele>
        <time>2024-04-25T13:47:32Z</time>
      </trkpt>
      <trkpt lat="44.38827" lon="5.78876">
        <ele>780.4</ele>
        <time>2024-04-25T13:47:37Z</time>
      </trkpt>
      <trkpt lat="44.38832" lon="5.78889">
        <ele>780.3</ele>
        <time>2024-04-25T13:47:43Z</time>
      </trkpt>
      <trkpt lat="44.38835" lon="5.78903">
        <ele>780.3</ele>
        <time>2024-04-25T13:47:50Z</time>
      </trkpt>
      <trkpt lat="44.38831" lon="5.7889">
        <ele>780.3</ele>
        <time>2024-04-25T13:48:09Z</time>
      </trkpt>
      <trkpt lat="44.38825" lon="5.78879">
        <ele>780.3</ele>
        <time>2024-04-25T13:48:14Z</time>
      </trkpt>
      <trkpt lat="44.38817" lon="5.78871">
        <ele>780.3</ele>
        <time>2024-04-25T13:48:19Z</time>
      </trkpt>
      <trkpt lat="44.38809" lon="5.78858">
        <ele>780.4</ele>
        <time>2024-04-25T13:48:23Z</time>
      </trkpt>
      <trkpt lat="44.38801" lon="5.78849">
        <ele>780.5</ele>
        <time>2024-04-25T13:48:26Z</time>
      </trkpt>
      <trkpt lat="44.38792" lon="5.78842">
        <ele>780.6</ele>
        <time>2024-04-25T13:48:30Z</time>
      </trkpt>
      <trkpt lat="44.38803" lon="5.78847">
        <ele>780.5</ele>
        <time>2024-04-25T13:51:27Z</time>
      </trkpt>
      <trkpt lat="44.3881" lon="5.78857">
        <ele>780.4</ele>
        <time>2024-04-25T13:51:32Z</time>
      </trkpt>
      <trkpt lat="44.38818" lon="5.78865">
        <ele>780.3</ele>
        <time>2024-04-25T13:51:39Z</time>
      </trkpt>
      <trkpt lat="44.38826" lon="5.78873">
        <ele>780.3</ele>
        <time>2024-04-25T13:51:45Z</time>
      </trkpt>
      <trkpt lat="44.38831" lon="5.78887">
        <ele>780.4</ele>
        <time>2024-04-25T13:51:52Z</time>
      </trkpt>
      <trkpt lat="44.38833" lon="5.78902">
        <ele>780.6</ele>
        <time>2024-04-25T13:52:02Z</time>
      </trkpt>
      <trkpt lat="44.38831" lon="5.78917">
        <ele>781</ele>
        <time>2024-04-25T13:52:22Z</time>
      </trkpt>
      <trkpt lat="44.38828" lon="5.78931">
        <ele>781.5</ele>
        <time>2024-04-25T13:52:53Z</time>
      </trkpt>
      <trkpt lat="44.38821" lon="5.78922">
        <ele>780.8</ele>
        <time>2024-04-25T13:55:23Z</time>
      </trkpt>
      <trkpt lat="44.38823" lon="5.78907">
        <ele>780.3</ele>
        <time>2024-04-25T13:56:33Z</time>
      </trkpt>
      <trkpt lat="44.38824" lon="5.78892">
        <ele>780.3</ele>
        <time>2024-04-25T13:57:33Z</time>
      </trkpt>
      <trkpt lat="44.38819" lon="5.78879">
        <ele>780.4</ele>
        <time>2024-04-25T13:57:37Z</time>
      </trkpt>
      <trkpt lat="44.38813" lon="5.78867">
        <ele>780.6</ele>
        <time>2024-04-25T13:57:40Z</time>
      </trkpt>
      <trkpt lat="44.38809" lon="5.78853">
        <ele>780.7</ele>
        <time>2024-04-25T13:57:45Z</time>
      </trkpt>
      <trkpt lat="44.38803" lon="5.78841">
        <ele>780.9</ele>
        <time>2024-04-25T13:57:50Z</time>
      </trkpt>
      <trkpt lat="44.38793" lon="5.78839">
        <ele>781</ele>
        <time>2024-04-25T13:58:05Z</time>
      </trkpt>
      <trkpt lat="44.38785" lon="5.78832">
        <ele>781.1</ele>
        <time>2024-04-25T13:58:11Z</time>
      </trkpt>
      <trkpt lat="44.38773" lon="5.78832">
        <ele>781.3</ele>
        <time>2024-04-25T13:58:14Z</time>
      </trkpt>
      <trkpt lat="44.38762" lon="5.78831">
        <ele>781.4</ele>
        <time>2024-04-25T13:58:19Z</time>
      </trkpt>
      <trkpt lat="44.38754" lon="5.78824">
        <ele>781.5</ele>
        <time>2024-04-25T13:58:27Z</time>
      </trkpt>
      <trkpt lat="44.38748" lon="5.7881">
        <ele>781.5</ele>
        <time>2024-04-25T13:58:32Z</time>
      </trkpt>
      <trkpt lat="44.38748" lon="5.78796">
        <ele>781.5</ele>
        <time>2024-04-25T13:58:35Z</time>
      </trkpt>
      <trkpt lat="44.38747" lon="5.78779">
        <ele>781.5</ele>
        <time>2024-04-25T13:58:38Z</time>
      </trkpt>
      <trkpt lat="44.38746" lon="5.78765">
        <ele>781.6</ele>
        <time>2024-04-25T13:58:41Z</time>
      </trkpt>
      <trkpt lat="44.38744" lon="5.78752">
        <ele>781.6</ele>
        <time>2024-04-25T13:58:43Z</time>
      </trkpt>
      <trkpt lat="44.38743" lon="5.78738">
        <ele>781.6</ele>
        <time>2024-04-25T13:58:46Z</time>
      </trkpt>
      <trkpt lat="44.38741" lon="5.78721">
        <ele>781.6</ele>
        <time>2024-04-25T13:58:49Z</time>
      </trkpt>
      <trkpt lat="44.38737" lon="5.78708">
        <ele>777.7</ele>
        <time>2024-04-25T13:58:53Z</time>
      </trkpt>
      <trkpt lat="44.38731" lon="5.78696">
        <ele>746.1</ele>
        <time>2024-04-25T13:58:59Z</time>
      </trkpt>
      <trkpt lat="44.38724" lon="5.78688">
        <ele>745.4</ele>
        <time>2024-04-25T13:59:09Z</time>
      </trkpt>
      <trkpt lat="44.38716" lon="5.78682">
        <ele>744.7</ele>
        <time>2024-04-25T13:59:17Z</time>
      </trkpt>
      <trkpt lat="44.38706" lon="5.78676">
        <ele>744</ele>
        <time>2024-04-25T13:59:21Z</time>
      </trkpt>
      <trkpt lat="44.38697" lon="5.78674">
        <ele>743.6</ele>
        <time>2024-04-25T13:59:23Z</time>
      </trkpt>
      <trkpt lat="44.38689" lon="5.78664">
        <ele>743</ele>
        <time>2024-04-25T13:59:26Z</time>
      </trkpt>
      <trkpt lat="44.38687" lon="5.78649">
        <ele>742.5</ele>
        <time>2024-04-25T13:59:31Z</time>
      </trkpt>
      <trkpt lat="44.38688" lon="5.78634">
        <ele>741.9</ele>
        <time>2024-04-25T13:59:36Z</time>
      </trkpt>
      <trkpt lat="44.3869" lon="5.7862">
        <ele>741.4</ele>
        <time>2024-04-25T13:59:40Z</time>
      </trkpt>
      <trkpt lat="44.38687" lon="5.78604">
        <ele>740.7</ele>
        <time>2024-04-25T13:59:44Z</time>
      </trkpt>
      <trkpt lat="44.38683" lon="5.7859">
        <ele>740.1</ele>
        <time>2024-04-25T13:59:47Z</time>
      </trkpt>
      <trkpt lat="44.38677" lon="5.78579">
        <ele>739.5</ele>
        <time>2024-04-25T13:59:51Z</time>
      </trkpt>
      <trkpt lat="44.38672" lon="5.78567">
        <ele>738.9</ele>
        <time>2024-04-25T13:59:55Z</time>
      </trkpt>
      <trkpt lat="44.3867" lon="5.78554">
        <ele>738.4</ele>
        <time>2024-04-25T13:59:58Z</time>
      </trkpt>
      <trkpt lat="44.38667" lon="5.78542">
        <ele>738</ele>
        <time>2024-04-25T14:00:01Z</time>
      </trkpt>
      <trkpt lat="44.38661" lon="5.78531">
        <ele>737.6</ele>
        <time>2024-04-25T14:00:04Z</time>
      </trkpt>
      <trkpt lat="44.38656" lon="5.78516">
        <ele>737</ele>
        <time>2024-04-25T14:00:08Z</time>
      </trkpt>
      <trkpt lat="44.38653" lon="5.78503">
        <ele>736.6</ele>
        <time>2024-04-25T14:00:11Z</time>
      </trkpt>
      <trkpt lat="44.38648" lon="5.7849">
        <ele>736.1</ele>
        <time>2024-04-25T14:00:14Z</time>
      </trkpt>
      <trkpt lat="44.38641" lon="5.78477">
        <ele>735.5</ele>
        <time>2024-04-25T14:00:17Z</time>
      </trkpt>
      <trkpt lat="44.38633" lon="5.78464">
        <ele>734.9</ele>
        <time>2024-04-25T14:00:20Z</time>
      </trkpt>
      <trkpt lat="44.38627" lon="5.78453">
        <ele>734.4</ele>
        <time>2024-04-25T14:00:23Z</time>
      </trkpt>
      <trkpt lat="44.38623" lon="5.7844">
        <ele>733.9</ele>
        <time>2024-04-25T14:00:26Z</time>
      </trkpt>
      <trkpt lat="44.3862" lon="5.78427">
        <ele>733.5</ele>
        <time>2024-04-25T14:00:30Z</time>
      </trkpt>
      <trkpt lat="44.38616" lon="5.78415">
        <ele>733.1</ele>
        <time>2024-04-25T14:00:37Z</time>
      </trkpt>
      <trkpt lat="44.38611" lon="5.78404">
        <ele>732.7</ele>
        <time>2024-04-25T14:01:03Z</time>
      </trkpt>
      <trkpt lat="44.38603" lon="5.7839">
        <ele>731.5</ele>
        <time>2024-04-25T14:05:49Z</time>
      </trkpt>
      <trkpt lat="44.38595" lon="5.78381">
        <ele>731.5</ele>
        <time>2024-04-25T14:05:51Z</time>
      </trkpt>
      <trkpt lat="44.38584" lon="5.7837">
        <ele>731.6</ele>
        <time>2024-04-25T14:05:54Z</time>
      </trkpt>
      <trkpt lat="44.38577" lon="5.78361">
        <ele>731.8</ele>
        <time>2024-04-25T14:05:56Z</time>
      </trkpt>
      <trkpt lat="44.38568" lon="5.78348">
        <ele>732</ele>
        <time>2024-04-25T14:05:59Z</time>
      </trkpt>
      <trkpt lat="44.38558" lon="5.78338">
        <ele>732.2</ele>
        <time>2024-04-25T14:06:02Z</time>
      </trkpt>
      <trkpt lat="44.38551" lon="5.7833">
        <ele>732.3</ele>
        <time>2024-04-25T14:06:04Z</time>
      </trkpt>
      <trkpt lat="44.38544" lon="5.78318">
        <ele>732.3</ele>
        <time>2024-04-25T14:06:06Z</time>
      </trkpt>
      <trkpt lat="44.38536" lon="5.78304">
        <ele>732.2</ele>
        <time>2024-04-25T14:06:09Z</time>
      </trkpt>
      <trkpt lat="44.38529" lon="5.78289">
        <ele>732.2</ele>
        <time>2024-04-25T14:06:12Z</time>
      </trkpt>
      <trkpt lat="44.38524" lon="5.78277">
        <ele>732.2</ele>
        <time>2024-04-25T14:06:14Z</time>
      </trkpt>
      <trkpt lat="44.38518" lon="5.78265">
        <ele>732.2</ele>
        <time>2024-04-25T14:06:16Z</time>
      </trkpt>
      <trkpt lat="44.38512" lon="5.78253">
        <ele>732.2</ele>
        <time>2024-04-25T14:06:18Z</time>
      </trkpt>
      <trkpt lat="44.38506" lon="5.7824">
        <ele>732.2</ele>
        <time>2024-04-25T14:06:20Z</time>
      </trkpt>
      <trkpt lat="44.38499" lon="5.78227">
        <ele>732.3</ele>
        <time>2024-04-25T14:06:22Z</time>
      </trkpt>
      <trkpt lat="44.38494" lon="5.78216">
        <ele>732.4</ele>
        <time>2024-04-25T14:06:24Z</time>
      </trkpt>
      <trkpt lat="44.3849" lon="5.78203">
        <ele>732.5</ele>
        <time>2024-04-25T14:06:26Z</time>
      </trkpt>
      <trkpt lat="44.38486" lon="5.78191">
        <ele>732.7</ele>
        <time>2024-04-25T14:06:28Z</time>
      </trkpt>
      <trkpt lat="44.38483" lon="5.78179">
        <ele>733</ele>
        <time>2024-04-25T14:06:30Z</time>
      </trkpt>
      <trkpt lat="44.38478" lon="5.78168">
        <ele>733.3</ele>
        <time>2024-04-25T14:06:32Z</time>
      </trkpt>
      <trkpt lat="44.38473" lon="5.78154">
        <ele>733.8</ele>
        <time>2024-04-25T14:06:35Z</time>
      </trkpt>
      <trkpt lat="44.38468" lon="5.78141">
        <ele>734.3</ele>
        <time>2024-04-25T14:06:38Z</time>
      </trkpt>
      <trkpt lat="44.38466" lon="5.78125">
        <ele>734.8</ele>
        <time>2024-04-25T14:06:42Z</time>
      </trkpt>
      <trkpt lat="44.38464" lon="5.7811">
        <ele>735.3</ele>
        <time>2024-04-25T14:06:46Z</time>
      </trkpt>
      <trkpt lat="44.38462" lon="5.78095">
        <ele>735.6</ele>
        <time>2024-04-25T14:06:50Z</time>
      </trkpt>
      <trkpt lat="44.38459" lon="5.78082">
        <ele>736</ele>
        <time>2024-04-25T14:06:54Z</time>
      </trkpt>
      <trkpt lat="44.38454" lon="5.78071">
        <ele>736.2</ele>
        <time>2024-04-25T14:06:58Z</time>
      </trkpt>
      <trkpt lat="44.38448" lon="5.78057">
        <ele>736.4</ele>
        <time>2024-04-25T14:07:04Z</time>
      </trkpt>
      <trkpt lat="44.38444" lon="5.78045">
        <ele>736.6</ele>
        <time>2024-04-25T14:07:09Z</time>
      </trkpt>
      <trkpt lat="44.38438" lon="5.78034">
        <ele>736.6</ele>
        <time>2024-04-25T14:07:13Z</time>
      </trkpt>
      <trkpt lat="44.3843" lon="5.78024">
        <ele>736.5</ele>
        <time>2024-04-25T14:07:17Z</time>
      </trkpt>
      <trkpt lat="44.38423" lon="5.78012">
        <ele>736.1</ele>
        <time>2024-04-25T14:07:21Z</time>
      </trkpt>
      <trkpt lat="44.38417" lon="5.77999">
        <ele>735.5</ele>
        <time>2024-04-25T14:07:25Z</time>
      </trkpt>
      <trkpt lat="44.38415" lon="5.77985">
        <ele>734.8</ele>
        <time>2024-04-25T14:07:29Z</time>
      </trkpt>
      <trkpt lat="44.38413" lon="5.77968">
        <ele>734.1</ele>
        <time>2024-04-25T14:07:32Z</time>
      </trkpt>
      <trkpt lat="44.38412" lon="5.77954">
        <ele>733.7</ele>
        <time>2024-04-25T14:07:34Z</time>
      </trkpt>
      <trkpt lat="44.3841" lon="5.77939">
        <ele>733.3</ele>
        <time>2024-04-25T14:07:36Z</time>
      </trkpt>
      <trkpt lat="44.38409" lon="5.77926">
        <ele>733.2</ele>
        <time>2024-04-25T14:07:38Z</time>
      </trkpt>
      <trkpt lat="44.38407" lon="5.77913">
        <ele>733.1</ele>
        <time>2024-04-25T14:07:40Z</time>
      </trkpt>
      <trkpt lat="44.38406" lon="5.77896">
        <ele>733</ele>
        <time>2024-04-25T14:07:43Z</time>
      </trkpt>
      <trkpt lat="44.38405" lon="5.77879">
        <ele>733</ele>
        <time>2024-04-25T14:07:46Z</time>
      </trkpt>
      <trkpt lat="44.38403" lon="5.77863">
        <ele>733.2</ele>
        <time>2024-04-25T14:07:49Z</time>
      </trkpt>
      <trkpt lat="44.38401" lon="5.77847">
        <ele>733.5</ele>
        <time>2024-04-25T14:07:52Z</time>
      </trkpt>
      <trkpt lat="44.38399" lon="5.77833">
        <ele>734.1</ele>
        <time>2024-04-25T14:07:55Z</time>
      </trkpt>
      <trkpt lat="44.38396" lon="5.77821">
        <ele>734.6</ele>
        <time>2024-04-25T14:07:58Z</time>
      </trkpt>
      <trkpt lat="44.38394" lon="5.77806">
        <ele>735.2</ele>
        <time>2024-04-25T14:08:02Z</time>
      </trkpt>
      <trkpt lat="44.38394" lon="5.77791">
        <ele>735.7</ele>
        <time>2024-04-25T14:08:09Z</time>
      </trkpt>
      <trkpt lat="44.38395" lon="5.77777">
        <ele>736.1</ele>
        <time>2024-04-25T14:08:14Z</time>
      </trkpt>
      <trkpt lat="44.38397" lon="5.77763">
        <ele>736.4</ele>
        <time>2024-04-25T14:08:19Z</time>
      </trkpt>
      <trkpt lat="44.38398" lon="5.77748">
        <ele>736.6</ele>
        <time>2024-04-25T14:08:24Z</time>
      </trkpt>
      <trkpt lat="44.384" lon="5.77735">
        <ele>736.6</ele>
        <time>2024-04-25T14:08:28Z</time>
      </trkpt>
      <trkpt lat="44.38403" lon="5.77719">
        <ele>736.6</ele>
        <time>2024-04-25T14:08:33Z</time>
      </trkpt>
      <trkpt lat="44.38404" lon="5.77706">
        <ele>736.5</ele>
        <time>2024-04-25T14:08:37Z</time>
      </trkpt>
      <trkpt lat="44.38405" lon="5.77691">
        <ele>736.4</ele>
        <time>2024-04-25T14:08:41Z</time>
      </trkpt>
      <trkpt lat="44.38403" lon="5.77678">
        <ele>736.3</ele>
        <time>2024-04-25T14:08:44Z</time>
      </trkpt>
      <trkpt lat="44.38399" lon="5.77664">
        <ele>736.3</ele>
        <time>2024-04-25T14:08:48Z</time>
      </trkpt>
      <trkpt lat="44.38397" lon="5.77648">
        <ele>736.4</ele>
        <time>2024-04-25T14:08:52Z</time>
      </trkpt>
      <trkpt lat="44.38396" lon="5.77633">
        <ele>736.5</ele>
        <time>2024-04-25T14:08:56Z</time>
      </trkpt>
      <trkpt lat="44.38393" lon="5.77619">
        <ele>736.7</ele>
        <time>2024-04-25T14:09:00Z</time>
      </trkpt>
      <trkpt lat="44.38389" lon="5.77606">
        <ele>736.9</ele>
        <time>2024-04-25T14:09:04Z</time>
      </trkpt>
      <trkpt lat="44.38385" lon="5.77594">
        <ele>737.1</ele>
        <time>2024-04-25T14:09:08Z</time>
      </trkpt>
      <trkpt lat="44.38381" lon="5.7758">
        <ele>737.3</ele>
        <time>2024-04-25T14:09:13Z</time>
      </trkpt>
      <trkpt lat="44.38375" lon="5.77568">
        <ele>737.5</ele>
        <time>2024-04-25T14:09:16Z</time>
      </trkpt>
      <trkpt lat="44.38371" lon="5.77556">
        <ele>737.6</ele>
        <time>2024-04-25T14:09:20Z</time>
      </trkpt>
      <trkpt lat="44.38365" lon="5.77543">
        <ele>737.6</ele>
        <time>2024-04-25T14:09:24Z</time>
      </trkpt>
      <trkpt lat="44.3836" lon="5.77528">
        <ele>737.7</ele>
        <time>2024-04-25T14:09:28Z</time>
      </trkpt>
      <trkpt lat="44.38358" lon="5.77514">
        <ele>737.9</ele>
        <time>2024-04-25T14:09:31Z</time>
      </trkpt>
      <trkpt lat="44.38356" lon="5.77499">
        <ele>738</ele>
        <time>2024-04-25T14:09:35Z</time>
      </trkpt>
      <trkpt lat="44.38354" lon="5.77486">
        <ele>738.1</ele>
        <time>2024-04-25T14:09:38Z</time>
      </trkpt>
      <trkpt lat="44.38351" lon="5.77474">
        <ele>738.1</ele>
        <time>2024-04-25T14:09:42Z</time>
      </trkpt>
      <trkpt lat="44.38344" lon="5.77465">
        <ele>738</ele>
        <time>2024-04-25T14:09:46Z</time>
      </trkpt>
      <trkpt lat="44.38337" lon="5.77457">
        <ele>737.9</ele>
        <time>2024-04-25T14:09:50Z</time>
      </trkpt>
      <trkpt lat="44.38329" lon="5.77447">
        <ele>737.8</ele>
        <time>2024-04-25T14:09:53Z</time>
      </trkpt>
      <trkpt lat="44.3832" lon="5.7744">
        <ele>737.7</ele>
        <time>2024-04-25T14:09:56Z</time>
      </trkpt>
      <trkpt lat="44.38316" lon="5.77426">
        <ele>737.7</ele>
        <time>2024-04-25T14:10:00Z</time>
      </trkpt>
      <trkpt lat="44.38314" lon="5.77411">
        <ele>737.8</ele>
        <time>2024-04-25T14:10:04Z</time>
      </trkpt>
      <trkpt lat="44.38309" lon="5.774">
        <ele>737.8</ele>
        <time>2024-04-25T14:10:07Z</time>
      </trkpt>
      <trkpt lat="44.38305" lon="5.77386">
        <ele>737.7</ele>
        <time>2024-04-25T14:10:11Z</time>
      </trkpt>
      <trkpt lat="44.38303" lon="5.77373">
        <ele>737.6</ele>
        <time>2024-04-25T14:10:14Z</time>
      </trkpt>
      <trkpt lat="44.38301" lon="5.77359">
        <ele>737.5</ele>
        <time>2024-04-25T14:10:17Z</time>
      </trkpt>
      <trkpt lat="44.38299" lon="5.77345">
        <ele>737.5</ele>
        <time>2024-04-25T14:10:20Z</time>
      </trkpt>
      <trkpt lat="44.38295" lon="5.7733">
        <ele>737.4</ele>
        <time>2024-04-25T14:10:23Z</time>
      </trkpt>
      <trkpt lat="44.38292" lon="5.77317">
        <ele>737.3</ele>
        <time>2024-04-25T14:10:26Z</time>
      </trkpt>
      <trkpt lat="44.38287" lon="5.77304">
        <ele>737.1</ele>
        <time>2024-04-25T14:10:29Z</time>
      </trkpt>
      <trkpt lat="44.38282" lon="5.77292">
        <ele>737</ele>
        <time>2024-04-25T14:10:32Z</time>
      </trkpt>
      <trkpt lat="44.38279" lon="5.77279">
        <ele>736.8</ele>
        <time>2024-04-25T14:10:35Z</time>
      </trkpt>
      <trkpt lat="44.38273" lon="5.77266">
        <ele>736.8</ele>
        <time>2024-04-25T14:10:39Z</time>
      </trkpt>
      <trkpt lat="44.38266" lon="5.77257">
        <ele>737</ele>
        <time>2024-04-25T14:10:42Z</time>
      </trkpt>
      <trkpt lat="44.3826" lon="5.77245">
        <ele>737.4</ele>
        <time>2024-04-25T14:10:45Z</time>
      </trkpt>
      <trkpt lat="44.38257" lon="5.77232">
        <ele>737.8</ele>
        <time>2024-04-25T14:10:49Z</time>
      </trkpt>
      <trkpt lat="44.38254" lon="5.77218">
        <ele>738.2</ele>
        <time>2024-04-25T14:10:54Z</time>
      </trkpt>
      <trkpt lat="44.38251" lon="5.77205">
        <ele>738.5</ele>
        <time>2024-04-25T14:10:58Z</time>
      </trkpt>
      <trkpt lat="44.38249" lon="5.77192">
        <ele>738.7</ele>
        <time>2024-04-25T14:11:03Z</time>
      </trkpt>
      <trkpt lat="44.38238" lon="5.77195">
        <ele>736.4</ele>
        <time>2024-04-25T14:11:13Z</time>
      </trkpt>
      <trkpt lat="44.38231" lon="5.77204">
        <ele>734.3</ele>
        <time>2024-04-25T14:11:17Z</time>
      </trkpt>
      <trkpt lat="44.38221" lon="5.77212">
        <ele>730.8</ele>
        <time>2024-04-25T14:11:26Z</time>
      </trkpt>
      <trkpt lat="44.38212" lon="5.77219">
        <ele>727.5</ele>
        <time>2024-04-25T14:11:29Z</time>
      </trkpt>
      <trkpt lat="44.382" lon="5.77224">
        <ele>724.4</ele>
        <time>2024-04-25T14:11:32Z</time>
      </trkpt>
      <trkpt lat="44.38191" lon="5.77228">
        <ele>722.1</ele>
        <time>2024-04-25T14:11:34Z</time>
      </trkpt>
      <trkpt lat="44.3818" lon="5.77234">
        <ele>719.3</ele>
        <time>2024-04-25T14:11:37Z</time>
      </trkpt>
      <trkpt lat="44.38171" lon="5.77239">
        <ele>717.3</ele>
        <time>2024-04-25T14:11:39Z</time>
      </trkpt>
      <trkpt lat="44.38162" lon="5.77243">
        <ele>715.4</ele>
        <time>2024-04-25T14:11:41Z</time>
      </trkpt>
      <trkpt lat="44.38152" lon="5.77248">
        <ele>713.5</ele>
        <time>2024-04-25T14:11:43Z</time>
      </trkpt>
      <trkpt lat="44.38142" lon="5.77252">
        <ele>711.5</ele>
        <time>2024-04-25T14:11:47Z</time>
      </trkpt>
      <trkpt lat="44.38134" lon="5.77243">
        <ele>711.2</ele>
        <time>2024-04-25T14:11:54Z</time>
      </trkpt>
      <trkpt lat="44.38125" lon="5.77246">
        <ele>711.5</ele>
        <time>2024-04-25T14:11:58Z</time>
      </trkpt>
      <trkpt lat="44.38117" lon="5.77252">
        <ele>711.8</ele>
        <time>2024-04-25T14:12:57Z</time>
      </trkpt>
      <trkpt lat="44.3811" lon="5.7726">
        <ele>712.1</ele>
        <time>2024-04-25T14:15:06Z</time>
      </trkpt>
      <trkpt lat="44.38099" lon="5.77269">
        <ele>711.4</ele>
        <time>2024-04-25T14:15:45Z</time>
      </trkpt>
      <trkpt lat="44.38089" lon="5.77275">
        <ele>709</ele>
        <time>2024-04-25T14:15:47Z</time>
      </trkpt>
      <trkpt lat="44.38078" lon="5.7728">
        <ele>706.9</ele>
        <time>2024-04-25T14:15:49Z</time>
      </trkpt>
      <trkpt lat="44.38065" lon="5.77286">
        <ele>704.4</ele>
        <time>2024-04-25T14:15:51Z</time>
      </trkpt>
      <trkpt lat="44.38052" lon="5.77291">
        <ele>701.8</ele>
        <time>2024-04-25T14:15:54Z</time>
      </trkpt>
      <trkpt lat="44.38041" lon="5.77296">
        <ele>700.5</ele>
        <time>2024-04-25T14:15:56Z</time>
      </trkpt>
      <trkpt lat="44.3803" lon="5.77304">
        <ele>699.1</ele>
        <time>2024-04-25T14:15:58Z</time>
      </trkpt>
      <trkpt lat="44.38022" lon="5.77318">
        <ele>699</ele>
        <time>2024-04-25T14:16:00Z</time>
      </trkpt>
      <trkpt lat="44.38015" lon="5.77332">
        <ele>700.2</ele>
        <time>2024-04-25T14:16:02Z</time>
      </trkpt>
      <trkpt lat="44.38008" lon="5.77343">
        <ele>700.8</ele>
        <time>2024-04-25T14:16:04Z</time>
      </trkpt>
      <trkpt lat="44.37999" lon="5.77345">
        <ele>700.9</ele>
        <time>2024-04-25T14:16:06Z</time>
      </trkpt>
      <trkpt lat="44.37992" lon="5.77331">
        <ele>698</ele>
        <time>2024-04-25T14:16:09Z</time>
      </trkpt>
      <trkpt lat="44.37988" lon="5.77318">
        <ele>696.2</ele>
        <time>2024-04-25T14:16:11Z</time>
      </trkpt>
      <trkpt lat="44.37982" lon="5.77306">
        <ele>695.3</ele>
        <time>2024-04-25T14:16:13Z</time>
      </trkpt>
      <trkpt lat="44.37977" lon="5.77291">
        <ele>694.7</ele>
        <time>2024-04-25T14:16:15Z</time>
      </trkpt>
      <trkpt lat="44.37971" lon="5.77277">
        <ele>694</ele>
        <time>2024-04-25T14:16:18Z</time>
      </trkpt>
      <trkpt lat="44.37965" lon="5.77267">
        <ele>693.3</ele>
        <time>2024-04-25T14:16:21Z</time>
      </trkpt>
      <trkpt lat="44.37962" lon="5.77253">
        <ele>692.8</ele>
        <time>2024-04-25T14:16:26Z</time>
      </trkpt>
      <trkpt lat="44.37959" lon="5.77237">
        <ele>692.3</ele>
        <time>2024-04-25T14:16:29Z</time>
      </trkpt>
      <trkpt lat="44.37952" lon="5.77221">
        <ele>691.7</ele>
        <time>2024-04-25T14:16:32Z</time>
      </trkpt>
      <trkpt lat="44.37946" lon="5.77205">
        <ele>691.1</ele>
        <time>2024-04-25T14:16:35Z</time>
      </trkpt>
      <trkpt lat="44.37942" lon="5.77193">
        <ele>691</ele>
        <time>2024-04-25T14:16:37Z</time>
      </trkpt>
      <trkpt lat="44.37934" lon="5.77181">
        <ele>690.4</ele>
        <time>2024-04-25T14:16:40Z</time>
      </trkpt>
      <trkpt lat="44.37925" lon="5.77168">
        <ele>689.4</ele>
        <time>2024-04-25T14:16:43Z</time>
      </trkpt>
      <trkpt lat="44.37918" lon="5.77159">
        <ele>688.8</ele>
        <time>2024-04-25T14:16:45Z</time>
      </trkpt>
      <trkpt lat="44.37909" lon="5.77146">
        <ele>688.6</ele>
        <time>2024-04-25T14:16:48Z</time>
      </trkpt>
      <trkpt lat="44.37899" lon="5.77132">
        <ele>688.6</ele>
        <time>2024-04-25T14:16:52Z</time>
      </trkpt>
      <trkpt lat="44.37892" lon="5.77121">
        <ele>688.6</ele>
        <time>2024-04-25T14:16:56Z</time>
      </trkpt>
      <trkpt lat="44.3788" lon="5.77118">
        <ele>689</ele>
        <time>2024-04-25T14:17:00Z</time>
      </trkpt>
      <trkpt lat="44.37871" lon="5.77114">
        <ele>689.3</ele>
        <time>2024-04-25T14:17:03Z</time>
      </trkpt>
      <trkpt lat="44.37864" lon="5.77105">
        <ele>689.5</ele>
        <time>2024-04-25T14:17:06Z</time>
      </trkpt>
      <trkpt lat="44.37855" lon="5.77097">
        <ele>690.2</ele>
        <time>2024-04-25T14:17:09Z</time>
      </trkpt>
      <trkpt lat="44.37849" lon="5.77087">
        <ele>690.4</ele>
        <time>2024-04-25T14:17:12Z</time>
      </trkpt>
      <trkpt lat="44.37844" lon="5.77076">
        <ele>690.4</ele>
        <time>2024-04-25T14:17:15Z</time>
      </trkpt>
      <trkpt lat="44.37838" lon="5.77063">
        <ele>690.2</ele>
        <time>2024-04-25T14:17:19Z</time>
      </trkpt>
      <trkpt lat="44.37835" lon="5.77051">
        <ele>690.6</ele>
        <time>2024-04-25T14:17:22Z</time>
      </trkpt>
      <trkpt lat="44.37831" lon="5.77039">
        <ele>690.7</ele>
        <time>2024-04-25T14:17:25Z</time>
      </trkpt>
      <trkpt lat="44.37828" lon="5.77024">
        <ele>687.7</ele>
        <time>2024-04-25T14:18:33Z</time>
      </trkpt>
      <trkpt lat="44.37827" lon="5.77011">
        <ele>687.8</ele>
        <time>2024-04-25T14:18:37Z</time>
      </trkpt>
      <trkpt lat="44.37825" lon="5.76996">
        <ele>688.2</ele>
        <time>2024-04-25T14:18:40Z</time>
      </trkpt>
      <trkpt lat="44.37823" lon="5.76981">
        <ele>688.1</ele>
        <time>2024-04-25T14:18:43Z</time>
      </trkpt>
      <trkpt lat="44.37823" lon="5.76965">
        <ele>687.6</ele>
        <time>2024-04-25T14:18:46Z</time>
      </trkpt>
      <trkpt lat="44.37819" lon="5.7695">
        <ele>687</ele>
        <time>2024-04-25T14:18:49Z</time>
      </trkpt>
      <trkpt lat="44.37814" lon="5.76935">
        <ele>686.4</ele>
        <time>2024-04-25T14:18:52Z</time>
      </trkpt>
      <trkpt lat="44.37808" lon="5.76922">
        <ele>685.9</ele>
        <time>2024-04-25T14:18:55Z</time>
      </trkpt>
      <trkpt lat="44.378" lon="5.76912">
        <ele>685.4</ele>
        <time>2024-04-25T14:18:58Z</time>
      </trkpt>
      <trkpt lat="44.37791" lon="5.76906">
        <ele>684.9</ele>
        <time>2024-04-25T14:19:01Z</time>
      </trkpt>
      <trkpt lat="44.37781" lon="5.76902">
        <ele>684.4</ele>
        <time>2024-04-25T14:19:04Z</time>
      </trkpt>
      <trkpt lat="44.37769" lon="5.76902">
        <ele>683.8</ele>
        <time>2024-04-25T14:19:07Z</time>
      </trkpt>
      <trkpt lat="44.37759" lon="5.76901">
        <ele>683.4</ele>
        <time>2024-04-25T14:19:09Z</time>
      </trkpt>
      <trkpt lat="44.37751" lon="5.76895">
        <ele>682.9</ele>
        <time>2024-04-25T14:19:11Z</time>
      </trkpt>
      <trkpt lat="44.37743" lon="5.76887">
        <ele>682.5</ele>
        <time>2024-04-25T14:19:13Z</time>
      </trkpt>
      <trkpt lat="44.37736" lon="5.76877">
        <ele>682</ele>
        <time>2024-04-25T14:19:15Z</time>
      </trkpt>
      <trkpt lat="44.3773" lon="5.76865">
        <ele>681.5</ele>
        <time>2024-04-25T14:19:17Z</time>
      </trkpt>
      <trkpt lat="44.37724" lon="5.76852">
        <ele>680.9</ele>
        <time>2024-04-25T14:19:19Z</time>
      </trkpt>
      <trkpt lat="44.37717" lon="5.76841">
        <ele>680.4</ele>
        <time>2024-04-25T14:19:21Z</time>
      </trkpt>
      <trkpt lat="44.37709" lon="5.76833">
        <ele>680</ele>
        <time>2024-04-25T14:19:23Z</time>
      </trkpt>
      <trkpt lat="44.37697" lon="5.76826">
        <ele>679.4</ele>
        <time>2024-04-25T14:19:26Z</time>
      </trkpt>
      <trkpt lat="44.37687" lon="5.76821">
        <ele>678.8</ele>
        <time>2024-04-25T14:19:29Z</time>
      </trkpt>
      <trkpt lat="44.37677" lon="5.76813">
        <ele>678.3</ele>
        <time>2024-04-25T14:19:32Z</time>
      </trkpt>
      <trkpt lat="44.37666" lon="5.76804">
        <ele>677.7</ele>
        <time>2024-04-25T14:19:35Z</time>
      </trkpt>
      <trkpt lat="44.37657" lon="5.76797">
        <ele>677.2</ele>
        <time>2024-04-25T14:19:37Z</time>
      </trkpt>
      <trkpt lat="44.37648" lon="5.76793">
        <ele>676.7</ele>
        <time>2024-04-25T14:19:39Z</time>
      </trkpt>
      <trkpt lat="44.37637" lon="5.76792">
        <ele>676.2</ele>
        <time>2024-04-25T14:19:41Z</time>
      </trkpt>
      <trkpt lat="44.37624" lon="5.76795">
        <ele>675.6</ele>
        <time>2024-04-25T14:19:44Z</time>
      </trkpt>
      <trkpt lat="44.37615" lon="5.76797">
        <ele>675.2</ele>
        <time>2024-04-25T14:19:46Z</time>
      </trkpt>
      <trkpt lat="44.37603" lon="5.76795">
        <ele>674.6</ele>
        <time>2024-04-25T14:19:49Z</time>
      </trkpt>
      <trkpt lat="44.3759" lon="5.76792">
        <ele>674</ele>
        <time>2024-04-25T14:19:52Z</time>
      </trkpt>
      <trkpt lat="44.37579" lon="5.76788">
        <ele>673.4</ele>
        <time>2024-04-25T14:19:55Z</time>
      </trkpt>
      <trkpt lat="44.37569" lon="5.76785">
        <ele>672.9</ele>
        <time>2024-04-25T14:19:58Z</time>
      </trkpt>
      <trkpt lat="44.37558" lon="5.76785">
        <ele>672.4</ele>
        <time>2024-04-25T14:20:02Z</time>
      </trkpt>
      <trkpt lat="44.3755" lon="5.76792">
        <ele>670.9</ele>
        <time>2024-04-25T14:20:16Z</time>
      </trkpt>
      <trkpt lat="44.37543" lon="5.76807">
        <ele>668.6</ele>
        <time>2024-04-25T14:20:34Z</time>
      </trkpt>
      <trkpt lat="44.37537" lon="5.7682">
        <ele>667.8</ele>
        <time>2024-04-25T14:20:37Z</time>
      </trkpt>
      <trkpt lat="44.37528" lon="5.76836">
        <ele>666.9</ele>
        <time>2024-04-25T14:20:40Z</time>
      </trkpt>
      <trkpt lat="44.37519" lon="5.76843">
        <ele>666.4</ele>
        <time>2024-04-25T14:20:43Z</time>
      </trkpt>
      <trkpt lat="44.37508" lon="5.76845">
        <ele>665.4</ele>
        <time>2024-04-25T14:20:46Z</time>
      </trkpt>
      <trkpt lat="44.37497" lon="5.76843">
        <ele>664.8</ele>
        <time>2024-04-25T14:20:49Z</time>
      </trkpt>
      <trkpt lat="44.37485" lon="5.76843">
        <ele>664.4</ele>
        <time>2024-04-25T14:20:52Z</time>
      </trkpt>
      <trkpt lat="44.37474" lon="5.7685">
        <ele>664</ele>
        <time>2024-04-25T14:20:55Z</time>
      </trkpt>
      <trkpt lat="44.37466" lon="5.76862">
        <ele>663.8</ele>
        <time>2024-04-25T14:20:58Z</time>
      </trkpt>
      <trkpt lat="44.37461" lon="5.76878">
        <ele>664.3</ele>
        <time>2024-04-25T14:21:01Z</time>
      </trkpt>
      <trkpt lat="44.37454" lon="5.76895">
        <ele>665.3</ele>
        <time>2024-04-25T14:21:04Z</time>
      </trkpt>
      <trkpt lat="44.37444" lon="5.769">
        <ele>665</ele>
        <time>2024-04-25T14:21:07Z</time>
      </trkpt>
      <trkpt lat="44.37435" lon="5.76899">
        <ele>664.3</ele>
        <time>2024-04-25T14:21:09Z</time>
      </trkpt>
      <trkpt lat="44.37421" lon="5.769">
        <ele>663.5</ele>
        <time>2024-04-25T14:21:12Z</time>
      </trkpt>
      <trkpt lat="44.37408" lon="5.76903">
        <ele>662.6</ele>
        <time>2024-04-25T14:21:15Z</time>
      </trkpt>
      <trkpt lat="44.37399" lon="5.76902">
        <ele>661.8</ele>
        <time>2024-04-25T14:21:17Z</time>
      </trkpt>
      <trkpt lat="44.37389" lon="5.76898">
        <ele>660.8</ele>
        <time>2024-04-25T14:21:20Z</time>
      </trkpt>
      <trkpt lat="44.37381" lon="5.76892">
        <ele>659.6</ele>
        <time>2024-04-25T14:21:23Z</time>
      </trkpt>
      <trkpt lat="44.37369" lon="5.76887">
        <ele>658.3</ele>
        <time>2024-04-25T14:21:26Z</time>
      </trkpt>
      <trkpt lat="44.37357" lon="5.76883">
        <ele>657.3</ele>
        <time>2024-04-25T14:21:29Z</time>
      </trkpt>
      <trkpt lat="44.37348" lon="5.76881">
        <ele>656.7</ele>
        <time>2024-04-25T14:21:31Z</time>
      </trkpt>
      <trkpt lat="44.37336" lon="5.76878">
        <ele>655.9</ele>
        <time>2024-04-25T14:21:34Z</time>
      </trkpt>
      <trkpt lat="44.37326" lon="5.76876">
        <ele>655.3</ele>
        <time>2024-04-25T14:21:36Z</time>
      </trkpt>
      <trkpt lat="44.37316" lon="5.76874">
        <ele>654.8</ele>
        <time>2024-04-25T14:21:38Z</time>
      </trkpt>
      <trkpt lat="44.37306" lon="5.76873">
        <ele>654.3</ele>
        <time>2024-04-25T14:21:40Z</time>
      </trkpt>
      <trkpt lat="44.37297" lon="5.76871">
        <ele>653.8</ele>
        <time>2024-04-25T14:21:42Z</time>
      </trkpt>
      <trkpt lat="44.37286" lon="5.76869">
        <ele>653.4</ele>
        <time>2024-04-25T14:21:44Z</time>
      </trkpt>
      <trkpt lat="44.37277" lon="5.76866">
        <ele>652.9</ele>
        <time>2024-04-25T14:21:46Z</time>
      </trkpt>
      <trkpt lat="44.37266" lon="5.76861">
        <ele>652.3</ele>
        <time>2024-04-25T14:21:49Z</time>
      </trkpt>
      <trkpt lat="44.37257" lon="5.76866">
        <ele>651.8</ele>
        <time>2024-04-25T14:22:28Z</time>
      </trkpt>
      <trkpt lat="44.37249" lon="5.76878">
        <ele>651.7</ele>
        <time>2024-04-25T14:22:32Z</time>
      </trkpt>
      <trkpt lat="44.37238" lon="5.76884">
        <ele>651.4</ele>
        <time>2024-04-25T14:22:35Z</time>
      </trkpt>
      <trkpt lat="44.37225" lon="5.76886">
        <ele>650.9</ele>
        <time>2024-04-25T14:22:38Z</time>
      </trkpt>
      <trkpt lat="44.37215" lon="5.76888">
        <ele>650.5</ele>
        <time>2024-04-25T14:22:40Z</time>
      </trkpt>
      <trkpt lat="44.37205" lon="5.76892">
        <ele>650.1</ele>
        <time>2024-04-25T14:22:42Z</time>
      </trkpt>
      <trkpt lat="44.37194" lon="5.76897">
        <ele>649.6</ele>
        <time>2024-04-25T14:22:44Z</time>
      </trkpt>
      <trkpt lat="44.37183" lon="5.76899">
        <ele>649.3</ele>
        <time>2024-04-25T14:22:46Z</time>
      </trkpt>
      <trkpt lat="44.37171" lon="5.769">
        <ele>648.9</ele>
        <time>2024-04-25T14:22:48Z</time>
      </trkpt>
      <trkpt lat="44.37159" lon="5.76899">
        <ele>648.6</ele>
        <time>2024-04-25T14:22:50Z</time>
      </trkpt>
      <trkpt lat="44.37146" lon="5.76898">
        <ele>648.2</ele>
        <time>2024-04-25T14:22:52Z</time>
      </trkpt>
      <trkpt lat="44.37134" lon="5.76898">
        <ele>647.8</ele>
        <time>2024-04-25T14:22:54Z</time>
      </trkpt>
      <trkpt lat="44.37122" lon="5.76898">
        <ele>647.5</ele>
        <time>2024-04-25T14:22:56Z</time>
      </trkpt>
      <trkpt lat="44.3711" lon="5.76899">
        <ele>647.1</ele>
        <time>2024-04-25T14:22:58Z</time>
      </trkpt>
      <trkpt lat="44.37098" lon="5.76899">
        <ele>646.7</ele>
        <time>2024-04-25T14:23:00Z</time>
      </trkpt>
      <trkpt lat="44.37085" lon="5.769">
        <ele>646.3</ele>
        <time>2024-04-25T14:23:02Z</time>
      </trkpt>
      <trkpt lat="44.37074" lon="5.769">
        <ele>646.1</ele>
        <time>2024-04-25T14:23:04Z</time>
      </trkpt>
      <trkpt lat="44.37061" lon="5.769">
        <ele>645.8</ele>
        <time>2024-04-25T14:23:06Z</time>
      </trkpt>
      <trkpt lat="44.37049" lon="5.76902">
        <ele>645.5</ele>
        <time>2024-04-25T14:23:08Z</time>
      </trkpt>
      <trkpt lat="44.37037" lon="5.76904">
        <ele>645.3</ele>
        <time>2024-04-25T14:23:10Z</time>
      </trkpt>
      <trkpt lat="44.37026" lon="5.76905">
        <ele>645.1</ele>
        <time>2024-04-25T14:23:12Z</time>
      </trkpt>
      <trkpt lat="44.37014" lon="5.76906">
        <ele>645</ele>
        <time>2024-04-25T14:23:14Z</time>
      </trkpt>
      <trkpt lat="44.37003" lon="5.76908">
        <ele>645</ele>
        <time>2024-04-25T14:23:16Z</time>
      </trkpt>
      <trkpt lat="44.36993" lon="5.76912">
        <ele>645</ele>
        <time>2024-04-25T14:23:18Z</time>
      </trkpt>
      <trkpt lat="44.36983" lon="5.76916">
        <ele>645.1</ele>
        <time>2024-04-25T14:23:20Z</time>
      </trkpt>
      <trkpt lat="44.36974" lon="5.76917">
        <ele>645.2</ele>
        <time>2024-04-25T14:23:22Z</time>
      </trkpt>
      <trkpt lat="44.36965" lon="5.76918">
        <ele>645</ele>
        <time>2024-04-25T14:23:24Z</time>
      </trkpt>
      <trkpt lat="44.36953" lon="5.76917">
        <ele>644.3</ele>
        <time>2024-04-25T14:23:27Z</time>
      </trkpt>
      <trkpt lat="44.36941" lon="5.76912">
        <ele>643.4</ele>
        <time>2024-04-25T14:23:30Z</time>
      </trkpt>
      <trkpt lat="44.36933" lon="5.76905">
        <ele>642.8</ele>
        <time>2024-04-25T14:23:32Z</time>
      </trkpt>
      <trkpt lat="44.36924" lon="5.76899">
        <ele>642.1</ele>
        <time>2024-04-25T14:23:34Z</time>
      </trkpt>
      <trkpt lat="44.36915" lon="5.76894">
        <ele>641.5</ele>
        <time>2024-04-25T14:23:36Z</time>
      </trkpt>
      <trkpt lat="44.36905" lon="5.76889">
        <ele>641</ele>
        <time>2024-04-25T14:23:38Z</time>
      </trkpt>
      <trkpt lat="44.36892" lon="5.76889">
        <ele>640.5</ele>
        <time>2024-04-25T14:23:41Z</time>
      </trkpt>
      <trkpt lat="44.36885" lon="5.76897">
        <ele>640.2</ele>
        <time>2024-04-25T14:23:43Z</time>
      </trkpt>
      <trkpt lat="44.36877" lon="5.76904">
        <ele>639.9</ele>
        <time>2024-04-25T14:23:45Z</time>
      </trkpt>
      <trkpt lat="44.36867" lon="5.76904">
        <ele>639.7</ele>
        <time>2024-04-25T14:23:47Z</time>
      </trkpt>
      <trkpt lat="44.36857" lon="5.76901">
        <ele>639.6</ele>
        <time>2024-04-25T14:23:49Z</time>
      </trkpt>
      <trkpt lat="44.36847" lon="5.76899">
        <ele>639.6</ele>
        <time>2024-04-25T14:23:51Z</time>
      </trkpt>
      <trkpt lat="44.36837" lon="5.76897">
        <ele>639.6</ele>
        <time>2024-04-25T14:23:53Z</time>
      </trkpt>
      <trkpt lat="44.36825" lon="5.76891">
        <ele>639.6</ele>
        <time>2024-04-25T14:23:56Z</time>
      </trkpt>
      <trkpt lat="44.36815" lon="5.76882">
        <ele>639.7</ele>
        <time>2024-04-25T14:23:59Z</time>
      </trkpt>
      <trkpt lat="44.36806" lon="5.76871">
        <ele>639.9</ele>
        <time>2024-04-25T14:24:02Z</time>
      </trkpt>
      <trkpt lat="44.36797" lon="5.76862">
        <ele>640</ele>
        <time>2024-04-25T14:24:05Z</time>
      </trkpt>
      <trkpt lat="44.36788" lon="5.7686">
        <ele>640</ele>
        <time>2024-04-25T14:24:08Z</time>
      </trkpt>
      <trkpt lat="44.36778" lon="5.76867">
        <ele>640</ele>
        <time>2024-04-25T14:24:11Z</time>
      </trkpt>
      <trkpt lat="44.36768" lon="5.76877">
        <ele>640.1</ele>
        <time>2024-04-25T14:24:14Z</time>
      </trkpt>
      <trkpt lat="44.36759" lon="5.76888">
        <ele>640.3</ele>
        <time>2024-04-25T14:24:17Z</time>
      </trkpt>
      <trkpt lat="44.36749" lon="5.76898">
        <ele>640.5</ele>
        <time>2024-04-25T14:24:20Z</time>
      </trkpt>
      <trkpt lat="44.36742" lon="5.76906">
        <ele>640.6</ele>
        <time>2024-04-25T14:24:22Z</time>
      </trkpt>
      <trkpt lat="44.36735" lon="5.76914">
        <ele>640.7</ele>
        <time>2024-04-25T14:24:24Z</time>
      </trkpt>
      <trkpt lat="44.36725" lon="5.76925">
        <ele>640.9</ele>
        <time>2024-04-25T14:24:27Z</time>
      </trkpt>
      <trkpt lat="44.36717" lon="5.76937">
        <ele>641</ele>
        <time>2024-04-25T14:24:30Z</time>
      </trkpt>
      <trkpt lat="44.3671" lon="5.76949">
        <ele>641.2</ele>
        <time>2024-04-25T14:24:33Z</time>
      </trkpt>
      <trkpt lat="44.36704" lon="5.76962">
        <ele>641.3</ele>
        <time>2024-04-25T14:24:36Z</time>
      </trkpt>
      <trkpt lat="44.36699" lon="5.76977">
        <ele>641.4</ele>
        <time>2024-04-25T14:24:39Z</time>
      </trkpt>
      <trkpt lat="44.36693" lon="5.76994">
        <ele>641.5</ele>
        <time>2024-04-25T14:24:42Z</time>
      </trkpt>
      <trkpt lat="44.36689" lon="5.77011">
        <ele>641.7</ele>
        <time>2024-04-25T14:24:45Z</time>
      </trkpt>
      <trkpt lat="44.36685" lon="5.77028">
        <ele>642.1</ele>
        <time>2024-04-25T14:24:48Z</time>
      </trkpt>
      <trkpt lat="44.36682" lon="5.77044">
        <ele>642.6</ele>
        <time>2024-04-25T14:24:51Z</time>
      </trkpt>
      <trkpt lat="44.36686" lon="5.77056">
        <ele>643</ele>
        <time>2024-04-25T14:24:55Z</time>
      </trkpt>
      <trkpt lat="44.36696" lon="5.77066">
        <ele>643.5</ele>
        <time>2024-04-25T14:24:59Z</time>
      </trkpt>
      <trkpt lat="44.36704" lon="5.77074">
        <ele>644</ele>
        <time>2024-04-25T14:25:02Z</time>
      </trkpt>
      <trkpt lat="44.36712" lon="5.77082">
        <ele>644.6</ele>
        <time>2024-04-25T14:25:05Z</time>
      </trkpt>
      <trkpt lat="44.36715" lon="5.77096">
        <ele>645.1</ele>
        <time>2024-04-25T14:25:09Z</time>
      </trkpt>
      <trkpt lat="44.36721" lon="5.77109">
        <ele>645.4</ele>
        <time>2024-04-25T14:25:14Z</time>
      </trkpt>
      <trkpt lat="44.36725" lon="5.77124">
        <ele>645.7</ele>
        <time>2024-04-25T14:25:20Z</time>
      </trkpt>
    </trkseg>
  </trk>
</gpx>